[[{"header":{"parameterUnit":"m.s-1","parameterCategory":1,"la1":31.0,"la2":29.5877,"lo1":-88.7671,"lo2":-86.6584,"dy":0.0162,"dx":0.0185,"nx":115,"ny":88,"refTime":"2025-11-07T00:00:00:Z","depth":0,"parameterNumber":2,"parameterNumberName":"U-component_of_WINDS"},"data":[0.0,0.0,0.0,0.0,0.0,0.0,0.0,0.0,0.0,0.0,0.0,0.0,0.0,0.0,0.0,0.0,0.0,0.0,0.0,0.0,0.0,0.0,0.0,0.0,0.0,0.0,0.0,0.0,0.0,0.0,0.0,0.0,0.0,0.0,0.0,0.0,0.0,0.0,0.0,0.0,0.0,0.0,0.0,0.0,0.0,0.0,0.0,0.0,0.0,0.0,0.0,0.0,0.0,0.0,0.0,0.0,0.0,0.0,0.0,0.0,0.0,0.0,0.0,0.0,0.0,0.0,0.0,0.0,0.0,0.0,0.0,0.0,0.0,0.0,0.0,0.0,0.0,0.0,0.0,0.0,0.0,0.0,0.0,0.0,0.0,0.0,0.0,0.0,0.0,0.0,0.0,0.0,0.0,0.0,0.0,0.0,0.0,0.0,0.0,0.0,0.0,0.0,0.0,0.0,0.0,0.0,0.0,0.0,0.0,0.0,0.0,0.0,0.0,0.0,0.0,0.0,0.0,0.0,0.0,0.0,0.0,0.0,0.0,0.0,0.0,0.0,0.0,0.0,0.0,0.0,0.0,0.0,0.0,0.0,0.0,0.0,0.0,0.0,0.0,0.0,0.0,0.0,0.0,0.0,0.0,0.0,0.0,0.0,0.0,0.0,0.0,0.0,0.0,0.0,0.0,0.0,0.0,0.0,0.0,0.0,0.0,0.0,0.0,0.0,0.0,0.0,0.0,0.0,0.0,0.0,0.0,0.0,0.0,0.0,0.0,0.0,0.0,0.0,0.0,0.0,0.0,0.0,0.0,0.0,0.0,0.0,0.0,0.0,0.0,0.0,0.0,0.0,0.0,0.0,0.0,0.0,0.0,0.0,0.0,0.0,0.0,0.0,0.0,0.0,0.0,0.0,0.0,0.0,0.0,0.0,0.0,0.0,0.0,0.0,0.0,0.0,0.0,0.0,0.0,0.0,0.0,0.0,0.0,0.0,0.0,0.0,0.0,0.0,0.0,0.0,0.0,0.0,0.0,0.0,0.0,0.0,0.0,0.0,0.0,0.0,0.0,0.0,0.0,0.0,0.0,0.0,0.0,0.0,0.0,0.0,0.0,0.0,0.0,0.0,0.0,0.0,0.0,0.0,0.0,0.0,0.0,0.0,0.0,0.0,0.0,0.0,0.0,0.0,0.0,0.0,0.0,0.0,0.0,0.0,0.0,0.0,0.0,0.0,0.0,0.0,0.0,0.0,0.0,0.0,0.0,0.0,0.0,0.0,0.0,0.0,0.0,0.0,0.0,0.0,0.0,0.0,0.0,0.0,0.0,0.0,0.0,0.0,0.0,0.0,0.0,0.0,0.0,0.0,0.0,0.0,0.0,0.0,0.0,0.0,0.0,0.0,0.0,0.0,0.0,0.0,0.0,0.0,0.0,0.0,0.0,0.0,0.0,0.0,0.0,0.0,0.0,0.0,0.0,0.0,0.0,0.0,0.0,0.0,0.0,0.0,0.0,0.0,0.0,0.0,0.0,0.0,0.0,0.0,0.0,0.0,0.0,0.0,0.0,0.0,0.0,0.0,0.0,0.0,0.0,0.0,0.0,0.0,0.0,0.0,0.0,0.0,0.0,0.0,0.0,0.0,0.0,0.0,0.0,0.0,0.0,0.0,0.0,0.0,0.0,0.0,0.0,0.0,0.0,0.0,0.0,0.0,0.0,0.0,0.0,0.0,0.0,0.0,0.0,0.0,0.0,0.0,0.0,0.0,0.0,0.0,0.0,0.0,0.0,0.0,0.0,0.0,0.0,0.0,0.0,0.0,0.0,0.0,0.0,0.0,0.0,0.0,0.0,0.0,0.0,0.0,0.0,0.0,0.0,0.0,0.0,0.0,0.0,0.0,0.0,0.0,0.0,0.0,0.0,0.0,0.0,0.0,0.0,0.0,0.0,0.0,0.0,0.0,0.0,0.0,0.0,0.0,0.0,0.0,0.0,0.0,0.0,0.0,0.0,0.0,0.0,0.0,0.0,0.0,0.0,0.0,0.0,0.0,0.0,0.0,0.0,0.0,0.0,0.0,0.0,0.0,0.0,0.0,0.0,0.0,0.0,0.0,0.0,0.0,0.0,0.0,0.0,0.0,0.0,0.0,0.0,0.0,0.0,0.0,0.0,0.0,0.0,0.0,0.0,0.0,0.0,0.0,0.0,0.0,0.0,0.0,0.0,0.0,0.0,0.0,0.0,0.0,0.0,0.0,0.0,0.0,0.0,0.0,0.0,0.0,0.0,0.0,0.0,0.0,0.0,0.0,0.0,0.0,0.0,0.0,0.0,0.0,0.0,0.0,0.0,0.0,0.0,0.0,0.0,0.0,0.0,0.0,0.0,0.0,0.0,0.0,0.0,0.0,0.0,0.0,0.0,0.0,0.0,0.0,0.0,0.0,0.0,0.0,0.0,0.0,0.0,0.0,0.0,0.0,0.0,0.0,0.0,0.0,0.0,0.0,0.0,0.0,0.0,0.0,0.0,0.0,0.0,0.0,0.0,0.0,0.0,0.0,0.0,0.0,0.0,0.0,0.0,0.0,0.0,0.0,0.0,0.0,0.0,0.0,0.0,0.0,0.0,0.0,0.0,0.0,0.0,0.0,0.0,0.0,0.0,0.0,0.0,0.0,0.0,0.0,0.0,0.0,0.0,0.0,0.0,0.0,0.0,0.0,0.0,0.0,0.0,0.0,0.0,0.0,0.0,0.0,0.0,0.0,0.0,0.0,0.0,0.0,0.0,0.0,0.0,0.0,0.0,0.0,0.0,0.0,0.0,0.0,0.0,0.0,0.0,0.0,0.0,0.0,0.0,0.0,0.0,0.0,0.0,0.0,0.0,0.0,0.0,0.0,0.0,0.0,0.0,0.0,0.0,0.0,0.0,0.0,0.0,0.0,0.0,0.0,0.0,0.0,0.0,0.0,0.0,0.0,0.0,0.0,0.0,0.0,0.0,0.0,0.0,0.0,0.0,0.0,0.0,0.0,0.0,0.0,0.0,0.0,0.0,0.0,0.0,0.0,0.0,0.0,0.0,0.0,0.0,0.0,0.0,0.0,0.0,0.0,0.0,0.0,0.0,0.0,0.0,0.0,0.0,0.0,0.0,0.0,0.0,0.0,0.0,0.0,0.0,0.0,0.0,0.0,0.0,0.0,0.0,0.0,0.0,0.0,0.0,0.0,0.0,0.0,0.0,0.0,0.0,0.0,0.0,0.0,0.0,0.0,0.0,0.0,0.0,0.0,0.0,0.0,0.0,0.0,0.0,0.0,0.0,0.0,0.0,0.0,0.0,0.0,0.0,0.0,0.0,0.0,0.0,0.0,0.0,0.0,0.0,0.0,0.0,0.0,0.0,0.0,0.0,0.0,0.0,0.0,0.0,0.0,0.0,0.0,0.0,0.0,0.0,0.0,0.0,0.0,0.0,0.0,0.0,0.0,0.0,0.0,0.0,0.0,0.0,0.0,0.0,0.0,0.0,0.0,0.0,0.0,0.0,0.0,0.0,0.0,0.0,0.0,0.0,0.0,0.0,0.0,0.0,0.0,0.0,0.0,0.0,0.0,0.0,0.0,0.0,0.0,0.0,0.0,0.0,0.0,0.0,0.0,0.0,0.0,0.0,0.0,0.0,0.0,0.0,0.0,0.0,0.0,0.0,0.0,0.0,0.0,0.0,0.0,0.0,0.0,0.0,0.0,0.0,0.0,0.0,0.0,0.0,0.0,0.0,0.0,0.0,0.0,0.0,0.0,0.0,0.0,0.0,0.0,0.0,0.0,0.0,0.0,0.0,0.0,0.0,0.0,0.0,0.0,0.0,0.0,0.0,0.0,0.0,0.0,0.0,0.0,0.0,0.0,0.0,0.0,0.0,0.0,0.0,0.0,0.0,0.0,0.0,0.0,0.0,0.0,0.0,0.0,0.0,0.0,0.0,0.0,0.0,0.0,0.0,0.0,0.0,0.0,0.0,0.0,0.0,0.0,0.0,0.0,0.0,0.0,0.0,0.0,0.0,0.0,0.0,0.0,0.0,0.0,0.0,0.0,0.0,0.0,0.0,0.0,0.0,0.0,0.0,0.0,0.0,0.0,0.0,0.0,0.0,0.0,0.0,0.0,0.0,0.0,0.0,0.0,0.0,0.0,0.0,0.0,0.0,0.0,0.0,0.0,0.0,0.0,0.0,0.0,0.0,0.0,0.0,0.0,0.0,0.0,0.0,0.0,0.0,0.0,0.0,0.0,0.0,0.0,1.7667,0.0,0.0,0.0,0.0,0.0,0.0,0.0,0.0,0.0,0.0,0.0,0.0,0.0,0.0,0.0,0.0,0.0,0.0,0.0,0.0,0.0,0.0,0.0,0.0,0.0,0.0,0.0,0.0,0.0,0.0,0.0,0.0,0.0,0.0,0.0,0.0,0.0,0.0,0.0,0.0,0.0,0.0,0.0,0.0,0.0,0.0,0.0,0.0,0.0,0.0,0.0,0.0,0.0,0.0,0.0,0.0,0.0,0.0,0.0,0.0,0.0,0.0,0.0,0.0,0.0,0.0,0.0,0.0,0.0,0.0,0.0,0.0,0.0,0.0,0.0,0.0,0.0,0.0,0.0,0.0,0.0,0.0,0.0,0.0,0.0,0.0,0.0,0.0,0.0,0.0,0.0,0.0,0.0,0.0,0.0,0.0,0.0,0.0,0.0,0.0,0.0,0.0,0.0,0.0,0.0,0.0,0.0,0.0,0.0,0.0,1.7774,1.7774,1.7774,1.7774,1.7774,0.0,0.0,0.0,0.0,0.0,0.0,0.0,0.0,0.0,0.0,0.0,0.0,0.0,0.0,0.0,0.0,0.0,0.0,0.0,0.0,0.0,0.0,0.0,0.0,0.0,0.0,0.0,0.0,0.0,0.0,0.0,0.0,0.0,0.0,0.0,0.0,0.0,0.0,0.0,0.0,0.0,0.0,0.0,0.0,0.0,0.0,0.0,0.0,0.0,0.0,0.0,0.0,0.0,0.0,0.0,0.0,0.0,0.0,0.0,0.0,0.0,0.0,0.0,0.0,0.0,0.0,0.0,0.0,0.0,0.0,0.0,0.0,0.0,0.0,0.0,0.0,0.0,0.0,0.0,0.0,0.0,0.0,0.0,0.0,0.0,0.0,0.0,0.0,0.0,0.0,0.0,0.0,0.0,0.0,0.0,0.0,0.0,0.0,0.0,0.0,0.0,0.0,0.0,0.0,0.0,0.0,0.0,0.0,0.0,0.0,0.0,0.0,1.7774,1.7774,1.7774,0.0,0.0,0.0,0.0,0.0,0.0,0.0,0.0,0.0,0.0,0.0,0.0,0.0,0.0,0.0,0.0,0.0,0.0,0.0,0.0,0.0,0.0,0.0,0.0,0.0,0.0,0.0,0.0,0.0,0.0,0.0,0.0,0.0,0.0,0.0,0.0,0.0,0.0,0.0,0.0,0.0,0.0,0.0,0.0,0.0,0.0,0.0,0.0,0.0,0.0,0.0,0.0,0.0,0.0,0.0,0.0,0.0,0.0,0.0,0.0,0.0,0.0,0.0,0.0,0.0,0.0,0.0,0.0,0.0,0.0,0.0,0.0,0.0,0.0,0.0,0.0,0.0,0.0,0.0,0.0,0.0,0.0,0.0,0.0,0.0,0.0,0.0,0.0,0.0,0.0,0.0,0.0,0.0,0.0,0.0,0.0,0.0,0.0,0.0,0.0,0.0,0.0,0.0,0.0,0.0,0.0,0.0,0.0,0.0,0.0,1.7774,1.7774,1.7774,0.0,1.7774,0.0,0.0,0.0,0.0,0.0,0.0,0.0,0.0,0.0,0.0,0.0,0.0,0.0,0.0,0.0,0.0,0.0,0.0,0.0,0.0,0.0,0.0,0.0,0.0,0.0,0.0,0.0,0.0,0.0,0.0,0.0,0.0,0.0,0.0,0.0,0.0,0.0,0.0,0.0,0.0,0.0,0.0,0.0,0.0,0.0,0.0,0.0,0.0,0.0,0.0,0.0,0.0,0.0,0.0,0.0,0.0,0.0,0.0,0.0,0.0,0.0,0.0,0.0,0.0,0.0,0.0,0.0,0.0,0.0,0.0,0.0,0.0,0.0,0.0,0.0,0.0,0.0,0.0,0.0,0.0,0.0,0.0,0.0,0.0,0.0,0.0,0.0,0.0,0.0,0.0,0.0,0.0,0.0,0.0,0.0,0.0,0.0,0.0,0.0,0.0,0.0,0.0,0.0,0.0,0.0,0.0,0.0,0.0,0.0,0.0,0.0,1.7774,1.7774,1.7774,0.0,0.0,0.0,0.0,0.0,0.0,0.0,0.0,0.0,0.0,0.0,0.0,0.0,0.0,0.0,0.0,0.0,0.0,0.0,0.0,0.0,0.0,0.0,0.0,0.0,0.0,0.0,0.0,0.0,0.0,0.0,0.0,0.0,0.0,0.0,0.0,0.0,0.0,0.0,0.0,0.0,0.0,0.0,0.0,0.0,0.0,0.0,0.0,0.0,0.0,0.0,0.0,0.0,0.0,0.0,0.0,0.0,0.0,0.0,0.0,0.0,0.0,0.0,0.0,0.0,0.0,0.0,0.0,0.0,0.0,0.0,0.0,0.0,0.0,0.0,0.0,0.0,0.0,0.0,0.0,0.0,0.0,0.0,0.0,0.0,0.0,0.0,0.0,0.0,0.0,0.0,0.0,0.0,0.0,0.0,0.0,0.0,0.0,0.0,0.0,0.0,0.0,0.0,0.0,0.0,0.0,0.0,0.0,0.0,0.0,1.7989,0.0,1.809,1.8093,1.8025,1.7811,0.0,0.0,0.0,0.0,0.0,0.0,0.0,0.0,0.0,0.0,0.0,0.0,0.0,0.0,0.0,0.0,0.0,0.0,0.0,0.0,0.0,0.0,0.0,0.0,0.0,0.0,0.0,0.0,0.0,0.0,0.0,0.0,0.0,0.0,0.0,0.0,0.0,0.0,0.0,0.0,0.0,0.0,0.0,0.0,0.0,0.0,0.0,0.0,0.0,0.0,0.0,0.0,0.0,0.0,0.0,0.0,0.0,0.0,0.0,0.0,0.0,0.0,0.0,0.0,0.0,0.0,0.0,0.0,0.0,0.0,0.0,0.0,0.0,0.0,0.0,0.0,0.0,0.0,0.0,0.0,0.0,0.0,0.0,0.0,0.0,0.0,0.0,0.0,0.0,0.0,0.0,0.0,0.0,0.0,0.0,0.0,0.0,0.0,0.0,0.0,0.0,0.0,0.0,0.0,0.0,0.0,0.0,0.0,0.0,1.851,1.8852,1.8849,1.8846,1.8499,0.0,0.0,0.0,0.0,0.0,0.0,0.0,0.0,0.0,0.0,0.0,0.0,0.0,0.0,0.0,0.0,0.0,0.0,0.0,0.0,0.0,0.0,0.0,0.0,0.0,0.0,0.0,0.0,0.0,0.0,0.0,0.0,0.0,0.0,0.0,0.0,0.0,0.0,0.0,0.0,0.0,0.0,0.0,0.0,0.0,0.0,0.0,0.0,0.0,0.0,0.0,0.0,0.0,0.0,0.0,0.0,0.0,0.0,0.0,0.0,0.0,0.0,0.0,0.0,0.0,0.0,0.0,0.0,0.0,0.0,0.0,0.0,0.0,0.0,0.0,0.0,0.0,0.0,0.0,0.0,0.0,0.0,0.0,0.0,0.0,0.0,0.0,0.0,0.0,0.0,0.0,0.0,0.0,0.0,0.0,0.0,0.0,0.0,0.0,0.0,0.0,0.0,0.0,0.0,0.0,0.0,0.0,0.0,0.0,1.8507,1.9243,1.9378,1.8913,1.8883,1.8544,0.0,0.0,0.0,0.0,0.0,0.0,0.0,0.0,0.0,0.0,0.0,0.0,0.0,0.0,0.0,0.0,0.0,0.0,0.0,0.0,0.0,0.0,0.0,0.0,0.0,0.0,0.0,0.0,0.0,0.0,0.0,0.0,0.0,0.0,0.0,0.0,0.0,0.0,0.0,0.0,0.0,0.0,0.0,0.0,0.0,0.0,0.0,0.0,0.0,0.0,0.0,0.0,0.0,0.0,0.0,0.0,0.0,0.0,0.0,0.0,0.0,0.0,0.0,0.0,0.0,0.0,0.0,0.0,0.0,0.0,0.0,0.0,0.0,0.0,0.0,0.0,0.0,0.0,0.0,0.0,0.0,0.0,0.0,0.0,0.0,0.0,0.0,0.0,0.0,0.0,0.0,0.0,0.0,0.0,0.0,0.0,0.0,0.0,0.0,0.0,0.0,0.0,0.0,0.0,0.0,0.0,0.0,0.0,0.0,1.9243,0.0,2.0153,0.0,1.939,1.8904,0.0,0.0,0.0,0.0,0.0,0.0,0.0,0.0,0.0,0.0,0.0,0.0,0.0,0.0,0.0,0.0,0.0,0.0,0.0,0.0,0.0,0.0,0.0,0.0,0.0,0.0,0.0,0.0,0.0,0.0,0.0,0.0,0.0,0.0,0.0,0.0,0.0,0.0,0.0,0.0,0.0,0.0,0.0,0.0,0.0,0.0,0.0,0.0,0.0,0.0,0.0,0.0,0.0,0.0,0.0,0.0,0.0,0.0,0.0,0.0,0.0,0.0,0.0,0.0,0.0,0.0,0.0,0.0,0.0,0.0,0.0,0.0,0.0,0.0,0.0,0.0,0.0,0.0,0.0,0.0,0.0,0.0,0.0,0.0,0.0,0.0,0.0,0.0,0.0,0.0,0.0,0.0,0.0,0.0,0.0,0.0,0.0,0.0,0.0,0.0,0.0,0.0,0.0,0.0,0.0,0.0,0.0,0.0,1.856,1.9974,2.0774,2.1156,2.116,2.0352,1.9642,0.0,0.0,0.0,0.0,0.0,0.0,0.0,0.0,0.0,0.0,0.0,0.0,0.0,0.0,0.0,0.0,0.0,0.0,0.0,0.0,0.0,0.0,0.0,0.0,0.0,0.0,0.0,0.0,0.0,0.0,0.0,0.0,0.0,0.0,0.0,0.0,0.0,0.0,0.0,0.0,0.0,0.0,0.0,0.0,0.0,0.0,0.0,0.0,0.0,0.0,0.0,0.0,0.0,0.0,0.0,0.0,0.0,0.0,0.0,0.0,0.0,0.0,0.0,0.0,0.0,0.0,0.0,0.0,0.0,0.0,0.0,0.0,0.0,0.0,0.0,0.0,0.0,0.0,0.0,0.0,0.0,0.0,0.0,0.0,0.0,0.0,0.0,0.0,0.0,0.0,0.0,0.0,0.0,0.0,0.0,0.0,0.0,0.0,0.0,0.0,0.0,0.0,0.0,0.0,0.0,0.0,0.0,0.0,0.0,2.0805,2.1583,2.1688,2.119,2.0426,1.9676,0.0,0.0,0.0,0.0,0.0,0.0,0.0,0.0,0.0,0.0,0.0,0.0,0.0,0.0,0.0,0.0,0.0,0.0,0.0,0.0,0.0,0.0,0.0,0.0,0.0,0.0,0.0,0.0,0.0,0.0,0.0,0.0,0.0,0.0,0.0,0.0,0.0,0.0,0.0,0.0,0.0,0.0,0.0,0.0,0.0,0.0,0.0,0.0,0.0,0.0,0.0,0.0,0.0,0.0,0.0,0.0,0.0,0.0,0.0,0.0,0.0,0.0,0.0,0.0,0.0,0.0,0.0,0.0,0.0,0.0,0.0,0.0,0.0,0.0,0.0,0.0,0.0,0.0,0.0,0.0,0.0,0.0,0.0,0.0,0.0,0.0,0.0,0.0,0.0,0.0,0.0,0.0,0.0,0.0,0.0,0.0,0.0,0.0,0.0,0.0,0.0,0.0,0.0,0.0,0.0,0.0,0.0,0.0,0.0,2.1586,2.2053,2.209,2.1627,2.0873,2.0085,1.931,0.0,0.0,0.0,0.0,0.0,0.0,0.0,0.0,0.0,0.0,0.0,0.0,0.0,0.0,0.0,0.0,0.0,0.0,0.0,0.0,0.0,0.0,0.0,0.0,0.0,0.0,0.0,0.0,0.0,0.0,0.0,0.0,0.0,0.0,0.0,0.0,0.0,0.0,0.0,0.0,0.0,0.0,0.0,0.0,0.0,0.0,0.0,0.0,0.0,0.0,0.0,0.0,0.0,0.0,0.0,0.0,0.0,0.0,0.0,0.0,0.0,0.0,0.0,0.0,0.0,0.0,0.0,0.0,0.0,0.0,0.0,0.0,0.0,0.0,0.0,0.0,0.0,0.0,0.0,0.0,0.0,0.0,0.0,0.0,0.0,0.0,0.0,0.0,0.0,0.0,0.0,0.0,0.0,0.0,0.0,0.0,0.0,0.0,0.0,0.0,0.0,0.0,0.0,0.0,0.0,0.0,0.0,0.0,2.2279,2.2313,2.2313,2.2252,2.1552,2.0845,0.0,0.0,0.0,0.0,0.0,0.0,0.0,0.0,0.0,0.0,0.0,0.0,0.0,0.0,0.0,0.0,0.0,0.0,0.0,0.0,0.0,0.0,0.0,0.0,0.0,0.0,0.0,0.0,0.0,0.0,0.0,0.0,0.0,0.0,0.0,0.0,0.0,0.0,0.0,0.0,0.0,0.0,0.0,0.0,0.0,0.0,0.0,0.0,0.0,0.0,0.0,0.0,0.0,0.0,0.0,0.0,0.0,0.0,0.0,0.0,0.0,0.0,0.0,0.0,0.0,0.0,0.0,0.0,0.0,0.0,0.0,0.0,0.0,0.0,0.0,0.0,0.0,0.0,0.0,0.0,0.0,0.0,0.0,0.0,0.0,0.0,0.0,0.0,0.0,0.0,0.0,0.0,0.0,0.0,0.0,0.0,0.0,0.0,0.0,0.0,0.0,0.0,0.0,0.0,0.0,0.0,0.0,0.0,0.0,2.2283,2.2313,2.2313,2.2286,2.1593,2.1092,0.0,0.0,0.0,0.0,0.0,0.0,0.0,0.0,0.0,0.0,0.0,0.0,0.0,0.0,0.0,0.0,0.0,0.0,0.0,0.0,0.0,0.0,0.0,0.0,0.0,0.0,0.0,0.0,0.0,0.0,0.0,0.0,0.0,0.0,0.0,0.0,0.0,0.0,0.0,0.0,0.0,0.0,0.0,0.0,0.0,0.0,0.0,0.0,0.0,0.0,0.0,0.0,0.0,0.0,0.0,0.0,0.0,0.0,0.0,0.0,0.0,0.0,0.0,0.0,0.0,0.0,0.0,0.0,0.0,0.0,0.0,0.0,0.0,0.0,0.0,0.0,0.0,0.0,0.0,0.0,0.0,0.0,0.0,0.0,0.0,0.0,0.0,0.0,0.0,0.0,0.0,0.0,0.0,0.0,0.0,0.0,0.0,0.0,0.0,0.0,0.0,0.0,0.0,0.0,0.0,0.0,0.0,0.0,2.2334,2.273,2.276,2.2763,2.2756,2.206,2.1529,0.0,0.0,0.0,0.0,0.0,0.0,0.0,0.0,0.0,0.0,0.0,0.0,0.0,0.0,0.0,0.0,0.0,0.0,0.0,0.0,0.0,0.0,0.0,0.0,0.0,0.0,0.0,0.0,0.0,0.0,0.0,0.0,0.0,0.0,0.0,0.0,0.0,0.0,0.0,0.0,0.0,0.0,0.0,0.0,0.0,0.0,0.0,0.0,0.0,0.0,0.0,0.0,0.0,0.0,0.0,0.0,0.0,0.0,0.0,0.0,0.0,0.0,0.0,0.0,0.0,0.0,0.0,0.0,0.0,0.0,0.0,0.0,0.0,0.0,0.0,0.0,0.0,0.0,0.0,0.0,0.0,0.0,0.0,0.0,0.0,0.0,0.0,0.0,0.0,0.0,0.0,0.0,0.0,0.0,0.0,0.0,0.0,0.0,0.0,0.0,0.0,0.0,0.0,0.0,0.0,0.0,0.0,0.0,2.3417,2.3515,2.3515,2.3515,2.3485,2.2726,2.1989,0.0,0.0,0.0,0.0,0.0,0.0,0.0,0.0,0.0,0.0,0.0,0.0,0.0,0.0,0.0,0.0,0.0,0.0,0.0,0.0,0.0,0.0,0.0,0.0,0.0,0.0,0.0,0.0,0.0,0.0,0.0,0.0,0.0,0.0,0.0,0.0,0.0,0.0,0.0,0.0,0.0,0.0,0.0,0.0,0.0,0.0,0.0,0.0,0.0,0.0,0.0,0.0,0.0,0.0,0.0,0.0,0.0,0.0,0.0,0.0,0.0,0.0,0.0,0.0,0.0,0.0,0.0,0.0,0.0,0.0,0.0,0.0,0.0,0.0,0.0,0.0,0.0,0.0,0.0,0.0,0.0,0.0,0.0,0.0,0.0,0.0,0.0,0.0,0.0,0.0,0.0,0.0,0.0,0.0,0.0,0.0,0.0,0.0,0.0,0.0,0.0,0.0,0.0,0.0,0.0,0.0,0.0,0.0,2.3688,2.4241,2.4271,2.4271,2.4274,2.3004,2.2215,0.0,0.0,0.0,0.0,0.0,0.0,0.0,0.0,0.0,0.0,0.0,0.0,0.0,0.0,0.0,0.0,0.0,0.0,0.0,0.0,0.0,0.0,0.0,0.0,0.0,0.0,0.0,0.0,0.0,0.0,0.0,0.0,0.0,0.0,0.0,0.0,0.0,0.0,0.0,0.0,0.0,0.0,0.0,0.0,0.0,0.0,0.0,0.0,2.2643,0.0,0.0,0.0,0.0,0.0,0.0,0.0,0.0,0.0,0.0,0.0,0.0,0.0,0.0,0.0,0.0,0.0,0.0,0.0,0.0,0.0,0.0,0.0,0.0,0.0,0.0,0.0,0.0,0.0,0.0,0.0,0.0,0.0,0.0,0.0,0.0,0.0,0.0,0.0,0.0,0.0,0.0,0.0,0.0,0.0,0.0,0.0,0.0,0.0,0.0,0.0,0.0,0.0,0.0,0.0,0.0,0.0,0.0,0.0,2.4271,2.4974,2.5037,2.5008,2.497,2.3579,2.2835,0.0,0.0,0.0,0.0,0.0,0.0,0.0,0.0,0.0,0.0,0.0,0.0,0.0,0.0,0.0,0.0,0.0,0.0,0.0,0.0,0.0,0.0,0.0,0.0,0.0,0.0,0.0,0.0,0.0,0.0,0.0,0.0,0.0,0.0,0.0,0.0,0.0,0.0,0.0,0.0,0.0,0.0,0.0,0.0,0.0,0.0,0.0,0.0,0.0,0.0,0.0,0.0,0.0,0.0,0.0,0.0,0.0,0.0,0.0,0.0,0.0,0.0,0.0,0.0,0.0,0.0,0.0,0.0,0.0,0.0,0.0,0.0,0.0,0.0,0.0,0.0,0.0,0.0,0.0,0.0,0.0,0.0,0.0,0.0,0.0,0.0,0.0,0.0,0.0,0.0,0.0,0.0,0.0,0.0,0.0,0.0,0.0,0.0,0.0,0.0,0.0,0.0,0.0,0.0,0.0,0.0,0.0,2.4173,2.4906,2.574,2.577,2.5774,2.5736,2.4361,2.3579,2.3519,0.0,0.0,0.0,0.0,0.0,0.0,0.0,0.0,0.0,0.0,0.0,0.0,0.0,0.0,0.0,0.0,0.0,0.0,0.0,0.0,0.0,0.0,0.0,0.0,0.0,0.0,0.0,0.0,0.0,0.0,0.0,0.0,0.0,0.0,0.0,0.0,0.0,0.0,2.0764,2.2199,0.0,0.0,0.0,0.0,0.0,0.0,0.0,0.0,2.4258,0.0,0.0,0.0,0.0,0.0,0.0,0.0,0.0,0.0,0.0,0.0,0.0,0.0,0.0,0.0,0.0,0.0,0.0,0.0,0.0,0.0,0.0,0.0,0.0,0.0,0.0,0.0,0.0,0.0,0.0,0.0,0.0,0.0,0.0,0.0,0.0,0.0,0.0,0.0,0.0,0.0,0.0,0.0,0.0,0.0,0.0,0.0,0.0,0.0,0.0,0.0,0.0,0.0,0.0,0.0,0.0,2.4278,2.444,2.5147,2.6492,2.6526,2.6526,2.6492,2.5075,2.4308,2.4199,0.0,0.0,0.0,0.0,0.0,0.0,0.0,0.0,0.0,0.0,0.0,0.0,0.0,0.0,0.0,0.0,0.0,0.0,0.0,0.0,0.0,0.0,0.0,0.0,0.0,0.0,0.0,0.0,0.0,0.0,0.0,0.0,0.0,0.0,0.0,0.0,0.0,0.0,0.0,2.3414,2.4045,0.0,0.0,0.0,0.0,0.0,0.0,0.0,0.0,2.4417,0.0,0.0,0.0,0.0,0.0,0.0,0.0,0.0,0.0,0.0,0.0,0.0,0.0,0.0,0.0,0.0,0.0,0.0,0.0,0.0,0.0,0.0,0.0,0.0,0.0,0.0,0.0,0.0,0.0,0.0,0.0,0.0,0.0,0.0,0.0,0.0,0.0,0.0,0.0,0.0,0.0,0.0,0.0,0.0,0.0,0.0,0.0,0.0,0.0,0.0,0.0,0.0,0.0,0.0,0.0,2.4448,2.4872,2.5579,2.6661,2.6695,2.6695,2.6661,2.5252,2.4511,0.0,0.0,0.0,0.0,0.0,0.0,0.0,0.0,0.0,0.0,0.0,0.0,0.0,0.0,0.0,0.0,0.0,0.0,0.0,0.0,0.0,0.0,0.0,0.0,0.0,0.0,0.0,0.0,0.0,0.0,0.0,0.0,0.0,0.0,0.0,0.0,0.0,0.0,0.0,0.0,2.3708,2.4197,2.4197,0.0,0.0,0.0,0.0,0.0,0.0,2.5086,2.4934,0.0,0.0,0.0,0.0,0.0,0.0,0.0,0.0,0.0,0.0,0.0,0.0,0.0,0.0,0.0,0.0,0.0,0.0,0.0,0.0,0.0,0.0,0.0,0.0,0.0,0.0,0.0,0.0,0.0,0.0,0.0,0.0,0.0,0.0,0.0,0.0,0.0,0.0,0.0,0.0,0.0,0.0,0.0,0.0,0.0,0.0,0.0,0.0,0.0,0.0,0.0,0.0,0.0,0.0,0.0,2.4508,2.524,2.5947,2.6666,2.6695,2.6695,2.6695,2.529,2.4511,0.0,0.0,0.0,0.0,0.0,0.0,0.0,0.0,0.0,0.0,0.0,0.0,0.0,0.0,0.0,0.0,0.0,0.0,0.0,0.0,0.0,0.0,0.0,0.0,0.0,0.0,0.0,0.0,0.0,0.0,0.0,0.0,0.0,0.0,0.0,0.0,0.0,0.0,0.0,0.0,0.0,2.4376,2.4229,2.4337,0.0,0.0,0.0,0.0,2.5719,2.5737,0.0,0.0,0.0,0.0,0.0,0.0,0.0,0.0,0.0,0.0,0.0,0.0,0.0,0.0,0.0,0.0,0.0,0.0,0.0,0.0,0.0,0.0,0.0,0.0,0.0,0.0,0.0,0.0,0.0,0.0,0.0,0.0,0.0,0.0,0.0,0.0,0.0,0.0,0.0,0.0,0.0,0.0,0.0,0.0,0.0,0.0,0.0,0.0,0.0,0.0,0.0,0.0,0.0,0.0,0.0,0.0,2.4478,2.524,2.5973,2.6657,2.6695,2.6695,2.6695,2.5282,2.4511,0.0,0.0,0.0,0.0,0.0,0.0,0.0,0.0,0.0,0.0,0.0,0.0,0.0,0.0,0.0,0.0,0.0,0.0,0.0,0.0,0.0,0.0,0.0,0.0,0.0,0.0,0.0,0.0,0.0,0.0,0.0,0.0,0.0,0.0,0.0,0.0,0.0,0.0,0.0,0.0,0.0,2.5005,2.4305,2.4826,2.5255,0.0,0.0,0.0,2.729,2.6909,0.0,0.0,0.0,0.0,0.0,0.0,0.0,0.0,0.0,0.0,0.0,0.0,0.0,0.0,0.0,0.0,0.0,0.0,0.0,0.0,0.0,0.0,0.0,0.0,0.0,0.0,0.0,0.0,0.0,0.0,0.0,0.0,0.0,0.0,0.0,0.0,0.0,0.0,0.0,0.0,0.0,0.0,0.0,0.0,0.0,0.0,0.0,0.0,0.0,0.0,0.0,0.0,0.0,0.0,0.0,2.4398,2.5139,2.6277,2.7017,2.7296,2.7321,2.7127,2.6695,2.525,2.445,0.0,0.0,0.0,0.0,0.0,0.0,0.0,0.0,0.0,0.0,0.0,0.0,0.0,0.0,0.0,0.0,0.0,0.0,0.0,0.0,0.0,0.0,0.0,0.0,0.0,0.0,0.0,0.0,0.0,0.0,0.0,0.0,0.0,0.0,0.0,0.0,0.0,0.0,0.0,0.0,0.0,0.0,2.5507,2.5798,0.0,0.0,0.0,2.6934,2.7686,0.0,0.0,0.0,0.0,0.0,0.0,0.0,0.0,0.0,0.0,0.0,0.0,0.0,0.0,0.0,0.0,0.0,0.0,0.0,0.0,0.0,0.0,0.0,0.0,0.0,0.0,0.0,0.0,0.0,0.0,0.0,0.0,0.0,0.0,0.0,0.0,0.0,0.0,0.0,0.0,0.0,0.0,0.0,0.0,0.0,0.0,0.0,0.0,0.0,0.0,0.0,0.0,0.0,0.0,0.0,0.0,0.0,2.5592,2.7253,2.7993,2.7815,2.7815,2.7553,2.6962,2.5231,0.0,0.0,0.0,0.0,0.0,0.0,0.0,0.0,0.0,0.0,0.0,0.0,0.0,0.0,0.0,0.0,0.0,0.0,0.0,0.0,0.0,0.0,0.0,0.0,0.0,0.0,0.0,0.0,0.0,0.0,0.0,0.0,0.0,0.0,0.0,0.0,0.0,0.0,0.0,0.0,0.0,0.0,2.6182,2.6568,2.6795,2.702,0.0,0.0,2.808,2.8371,2.8886,2.9023,0.0,0.0,0.0,0.0,0.0,0.0,0.0,0.0,0.0,0.0,0.0,0.0,0.0,0.0,0.0,0.0,0.0,0.0,0.0,0.0,0.0,0.0,0.0,0.0,0.0,0.0,0.0,0.0,0.0,0.0,0.0,0.0,0.0,0.0,0.0,0.0,0.0,0.0,0.0,0.0,0.0,0.0,0.0,0.0,0.0,0.0,0.0,0.0,0.0,0.0,0.0,0.0,0.0,0.0,0.0,2.5664,2.7778,2.8543,2.7849,2.7815,2.7752,2.768,2.5284,2.4081,0.0,0.0,0.0,0.0,0.0,0.0,0.0,0.0,0.0,0.0,0.0,0.0,0.0,0.0,0.0,0.0,0.0,0.0,0.0,0.0,0.0,0.0,0.0,0.0,0.0,0.0,0.0,0.0,0.0,0.0,0.0,0.0,0.0,0.0,0.0,0.0,0.0,0.0,0.0,0.0,0.0,2.7743,2.7068,2.759,2.8393,0.0,0.0,2.9113,2.9899,3.007,2.9837,2.906,0.0,0.0,0.0,0.0,0.0,0.0,0.0,0.0,0.0,0.0,0.0,0.0,0.0,0.0,0.0,0.0,0.0,0.0,0.0,0.0,0.0,0.0,0.0,0.0,0.0,0.0,0.0,0.0,0.0,0.0,0.0,0.0,0.0,0.0,0.0,0.0,0.0,0.0,0.0,0.0,0.0,0.0,0.0,0.0,0.0,0.0,0.0,0.0,0.0,0.0,0.0,0.0,0.0,2.5782,2.6346,2.8182,2.8791,2.8137,2.8122,2.7692,2.682,2.5343,2.4328,0.0,0.0,0.0,0.0,0.0,0.0,0.0,0.0,0.0,0.0,0.0,0.0,0.0,0.0,0.0,0.0,0.0,0.0,0.0,0.0,0.0,0.0,0.0,0.0,0.0,0.0,0.0,0.0,1.772,1.8195,1.9339,0.0,0.0,0.0,0.0,0.0,0.0,0.0,0.0,0.0,0.0,2.8777,2.9552,2.9731,0.0,0.0,3.0722,3.0806,3.0916,3.0954,3.0653,2.9873,2.947,0.0,0.0,0.0,0.0,0.0,0.0,0.0,0.0,0.0,0.0,0.0,0.0,0.0,0.0,0.0,0.0,0.0,0.0,0.0,0.0,0.0,0.0,0.0,0.0,0.0,0.0,0.0,0.0,0.0,0.0,0.0,0.0,0.0,0.0,0.0,0.0,0.0,0.0,0.0,0.0,0.0,0.0,0.0,0.0,0.0,0.0,0.0,0.0,0.0,0.0,0.0,0.0,2.6305,2.6781,2.8567,2.9146,2.8318,2.8275,2.7811,2.6794,2.5608,2.4599,0.0,0.0,0.0,0.0,0.0,0.0,0.0,0.0,0.0,0.0,0.0,0.0,0.0,0.0,0.0,0.0,0.0,0.0,0.0,0.0,0.0,0.0,0.0,0.0,0.0,0.0,0.0,0.0,1.851,1.9224,2.0515,0.0,0.0,0.0,0.0,0.0,0.0,0.0,0.0,0.0,0.0,2.9867,3.1051,3.1092,3.12,3.1748,3.1953,3.1945,3.1769,3.1762,3.1497,3.069,0.0,0.0,0.0,0.0,0.0,0.0,0.0,0.0,0.0,0.0,0.0,0.0,0.0,0.0,0.0,0.0,0.0,0.0,0.0,0.0,0.0,0.0,0.0,0.0,0.0,0.0,0.0,0.0,0.0,0.0,0.0,0.0,0.0,0.0,0.0,0.0,0.0,0.0,0.0,0.0,0.0,0.0,0.0,0.0,0.0,0.0,0.0,0.0,0.0,0.0,0.0,0.0,0.0,0.0,2.675,2.9024,2.9597,2.8323,2.8275,2.821,2.7979,2.6188,2.4943,2.435,0.0,0.0,0.0,0.0,0.0,0.0,0.0,0.0,0.0,0.0,0.0,0.0,0.0,0.0,0.0,0.0,0.0,0.0,0.0,0.0,0.0,0.0,0.0,0.0,0.0,0.0,1.8139,1.9172,2.0472,0.0,0.0,0.0,0.0,0.0,0.0,0.0,0.0,0.0,0.0,2.9823,3.1125,3.1054,3.1466,3.1998,3.2689,3.2568,3.2427,3.254,3.2557,3.2292,0.0,0.0,0.0,0.0,0.0,0.0,0.0,0.0,0.0,0.0,0.0,0.0,0.0,0.0,0.0,0.0,0.0,0.0,0.0,0.0,0.0,0.0,0.0,0.0,0.0,0.0,0.0,1.8352,1.836,0.0,0.0,0.0,0.0,0.0,0.0,0.0,0.0,0.0,0.0,0.0,2.3248,2.3412,0.0,0.0,0.0,0.0,0.0,0.0,0.0,0.0,0.0,0.0,0.0,0.0,2.7116,2.6825,2.9078,2.9443,2.7779,2.8099,2.8057,2.7585,2.6459,2.5343,2.4215,0.0,0.0,0.0,0.0,0.0,0.0,0.0,0.0,0.0,0.0,0.0,0.0,0.0,0.0,0.0,0.0,0.0,0.0,0.0,0.0,0.0,0.0,0.0,0.0,0.0,1.8953,0.0,0.0,0.0,0.0,0.0,0.0,0.0,0.0,0.0,0.0,0.0,2.9707,3.1297,3.1525,3.1766,3.237,3.2426,3.2811,0.0,0.0,0.0,0.0,0.0,0.0,0.0,0.0,0.0,0.0,0.0,0.0,0.0,0.0,3.4954,3.3307,3.3419,3.387,3.412,0.0,0.0,0.0,0.0,0.0,0.0,0.0,0.0,0.0,0.0,0.0,0.0,0.0,0.0,0.0,0.0,1.975,0.0,0.0,0.0,0.0,0.0,0.0,0.0,0.0,2.3944,2.425,2.4505,2.462,2.468,0.0,2.4352,2.4086,0.0,0.0,0.0,0.0,0.0,0.0,0.0,0.0,2.7735,2.7395,2.9274,2.9453,2.7813,2.7866,2.7817,2.759,2.6773,2.5957,2.5029,2.3694,2.262,0.0,0.0,0.0,0.0,0.0,0.0,0.0,0.0,0.0,0.0,0.0,0.0,0.0,0.0,0.0,0.0,0.0,0.0,0.0,0.0,0.0,0.0,0.0,1.9953,0.0,0.0,0.0,0.0,0.0,0.0,0.0,0.0,0.0,3.016,3.0582,3.1519,3.3243,3.3052,3.295,3.3608,0.0,0.0,0.0,0.0,0.0,0.0,0.0,3.5391,3.5441,3.5668,3.6149,3.7,3.7775,3.8462,3.9027,0.0,0.0,3.5502,3.5747,3.6362,3.6663,3.8241,3.9599,3.9896,4.0553,4.1095,0.0,0.0,0.0,0.0,0.0,0.0,0.0,0.0,2.1819,2.1759,0.0,2.1759,0.0,0.0,0.0,0.0,0.0,0.0,0.0,0.0,2.5991,2.6249,2.568,2.5792,2.5874,0.0,2.5984,2.6048,2.5938,2.3744,0.0,0.0,0.0,0.0,0.0,0.0,2.8915,2.8408,2.9609,2.9603,2.8253,2.7583,2.7503,2.8001,2.7237,2.6771,2.6695,2.5292,2.3875,2.2487,2.237,0.0,0.0,0.0,0.0,0.0,0.0,0.0,0.0,0.0,0.0,0.0,0.0,0.0,0.0,0.0,0.0,0.0,0.0,0.0,0.0,1.9851,0.0,0.0,0.0,0.0,0.0,0.0,0.0,0.0,0.0,0.0,3.1181,3.236,3.3489,3.3841,0.0,0.0,0.0,0.0,3.5364,3.5609,3.5857,3.6083,3.6206,3.6305,3.6376,3.638,0.0,0.0,3.8615,3.8179,3.827,3.9747,4.004,3.9473,3.7975,3.8286,3.9015,3.9757,4.0634,4.147,4.2098,4.1907,4.1499,2.4599,0.0,0.0,0.0,0.0,2.3982,2.4048,2.4442,2.3982,2.3515,2.3071,2.3558,0.0,0.0,0.0,0.0,0.0,0.0,2.559,2.6087,2.6447,2.6764,2.7046,2.7077,2.7323,2.7754,2.736,2.7366,2.7787,2.6675,2.5802,2.5185,0.0,0.0,0.0,0.0,2.8306,2.8262,2.9184,2.8786,2.6993,2.7142,2.7316,2.7372,2.8101,2.8258,2.7797,2.7176,2.624,2.5016,2.4741,0.0,0.0,0.0,0.0,0.0,0.0,0.0,0.0,0.0,0.0,0.0,0.0,0.0,0.0,0.0,0.0,0.0,0.0,0.0,2.1281,2.2116,2.3218,0.0,0.0,0.0,0.0,0.0,0.0,0.0,0.0,0.0,3.4266,3.4411,3.4743,0.0,0.0,3.4685,3.4753,3.5114,3.5636,3.6355,0.0,0.0,0.0,3.7914,3.7883,3.7976,3.8693,3.9464,4.03,4.0704,4.1258,4.2259,4.1981,4.145,4.1078,4.1087,4.1328,4.1662,4.2686,4.3705,4.3966,4.4259,4.4484,2.7333,2.659,2.6458,2.6249,2.5968,2.5573,2.5483,2.5579,2.5173,2.476,2.4412,2.4831,2.4592,2.3884,2.4513,0.0,0.0,0.0,2.7147,2.7775,2.7812,2.8004,2.8364,2.8387,2.8597,2.8979,2.8597,2.8603,2.9016,2.859,2.8163,2.7698,0.0,0.0,2.8169,2.8529,2.8754,2.8835,2.92,2.8674,2.7223,2.7742,2.8013,2.798,2.8974,2.9353,2.8963,2.8541,2.7781,2.6743,2.6278,2.5161,0.0,0.0,0.0,0.0,0.0,0.0,0.0,0.0,0.0,0.0,0.0,2.0491,0.0,0.0,0.0,0.0,2.0454,2.1549,2.3099,2.3909,0.0,0.0,0.0,0.0,0.0,0.0,0.0,3.2847,3.3749,3.4556,3.5362,3.5425,3.576,3.6652,3.5894,3.5384,3.5725,0.0,3.6016,3.6729,3.7184,3.7673,3.8278,3.848,3.87,3.9118,3.957,4.0161,4.0956,4.1503,4.2112,4.2734,4.2635,4.2412,4.2732,4.3018,4.3126,4.2873,4.3791,4.4737,4.5108,4.5324,4.5512,2.9675,2.9578,2.8393,2.7489,2.6854,2.6818,2.6488,2.5932,2.5938,2.5872,2.5848,2.5914,2.5908,2.5968,2.6542,0.0,0.0,2.8667,2.8996,2.9608,2.9608,2.9608,2.9608,2.9608,2.9645,2.9675,2.9668,2.9698,2.9758,2.9758,2.9819,2.9897,2.8705,2.8495,2.9247,2.9633,2.9891,2.9964,2.9555,2.8995,2.8258,2.8867,2.9219,2.9199,2.9833,3.0186,3.0166,2.9533,2.8831,2.8027,2.73,2.6226,2.4812,0.0,0.0,0.0,0.0,0.0,0.0,0.0,0.0,0.0,0.0,0.0,0.0,0.0,0.0,0.0,2.2192,0.0,2.4715,2.5571,0.0,0.0,0.0,3.0547,3.3376,3.3114,3.3265,3.4659,0.0,0.0,0.0,0.0,3.6496,3.7307,3.6676,3.64,3.7036,3.6731,3.6556,3.6835,3.74,3.7815,3.7863,3.8338,3.9059,3.9856,3.9978,4.0341,4.1067,4.1246,4.1536,4.2349,4.2451,4.2718,4.3461,4.4218,4.4562,4.3832,4.4305,4.5039,4.5626,4.5365,4.5145,3.0283,3.0313,3.0485,2.9924,2.8896,2.8889,2.88,2.8656,2.8643,2.8374,2.7912,2.844,2.865,2.8656,2.883,2.9069,2.9375,2.9375,2.9435,2.9608,2.9608,2.9608,2.9608,2.9608,2.9847,3.026,3.0283,3.0545,3.1039,3.1039,3.1054,3.1075,3.0753,3.0606,3.0536,3.0263,3.0257,3.0492,2.9571,2.8643,2.7759,2.884,2.9393,2.9306,3.0444,3.1047,3.0934,3.0789,3.0316,2.9591,2.8861,2.8015,2.7055,2.5634,0.0,0.0,0.0,0.0,0.0,0.0,0.0,0.0,0.0,2.3116,2.3669,0.0,2.4327,0.0,2.4872,2.626,2.7795,2.8604,0.0,0.0,3.1554,3.2073,3.3317,3.3841,3.4246,3.4671,3.5215,3.5572,3.5588,3.5769,3.6089,3.659,3.6806,3.6791,3.6594,3.7324,3.755,3.6978,3.741,3.7768,3.76,3.831,3.9435,4.0618,4.081,4.1099,4.1878,4.2025,4.2294,4.3091,4.3735,4.4164,4.4363,4.5059,4.5516,4.5374,4.5484,4.5668,4.5851,4.5732,4.5704,3.0927,3.0979,3.1354,3.1106,3.0425,3.014,2.9841,2.9608,2.9608,2.9398,2.9069,2.9442,2.9758,2.999,2.9983,3.0163,3.0439,3.0418,3.0455,3.0425,3.0133,3.0163,3.0432,3.014,3.017,3.0478,3.0478,3.0552,3.0658,3.0913,3.1032,3.1076,3.1361,3.1453,3.1353,3.083,3.0685,3.093,2.9653,2.8532,2.7636,2.8816,2.9427,2.9291,3.0631,3.1274,3.113,3.1166,3.1021,3.061,2.9871,2.9127,2.8383,2.7224,2.6108,0.0,0.0,0.0,0.0,0.0,0.0,0.0,0.0,0.0,0.0,0.0,2.7072,0.0,0.0,0.0,3.0325,3.0833,3.1669,3.3129,3.327,3.3699,3.4782,3.4945,3.5272,3.6056,3.6192,3.6361,3.6683,3.6723,3.6814,3.7055,3.7723,3.7712,3.6637,3.7012,3.7345,3.7166,3.7856,3.8601,3.8842,3.9536,4.0366,4.1376,4.1658,4.1984,4.3126,4.3379,4.3629,4.441,4.4913,4.5242,4.5274,4.5897,4.6425,4.6466,4.6723,4.6796,4.6503,4.6429,4.6503,3.1511,3.1511,3.1511,3.1511,3.1481,3.0867,3.0342,2.9847,2.9847,2.9841,2.9847,2.9854,3.0147,3.0635,3.0605,3.0927,3.1473,3.1511,3.1511,3.1444,3.089,3.0927,3.1481,3.0897,3.0635,3.0635,3.0635,3.0342,2.9884,3.0372,3.0635,3.0665,3.1204,3.1655,3.1888,3.1459,3.1294,3.1397,3.0047,2.8987,2.8226,2.9404,2.9901,2.9615,3.0843,3.1342,3.1026,3.1131,3.119,3.1157,3.0519,2.9828,2.9276,2.8441,2.7452,0.0,2.6826,0.0,0.0,0.0,0.0,0.0,0.0,0.0,0.0,2.8739,2.9779,3.034,3.0538,3.119,3.2457,3.2671,3.3264,3.4613,3.4787,3.5368,3.6716,3.6327,3.6417,3.7747,3.7319,3.719,3.7753,3.791,3.791,3.7916,3.8533,3.8438,3.7034,3.6932,3.7341,3.7655,3.836,3.9135,4.0315,4.0825,4.1293,4.2114,4.2574,4.3085,4.4374,4.4732,4.5051,4.5699,4.5959,4.6053,4.6048,4.6711,4.7218,4.7264,4.7746,4.7971,4.7448,4.7259,4.7484,3.1511,3.1511,3.1511,3.1511,3.1473,3.1361,3.1241,3.1129,3.1129,3.1159,3.1122,3.1152,3.1189,3.1301,3.1331,3.1384,3.1511,3.1511,3.1511,3.1511,3.1354,3.1368,3.1511,3.1368,3.1301,3.1308,3.1301,3.1241,3.1152,3.1234,3.1308,3.1331,3.1451,3.1888,0.0,0.0,0.0,0.0,3.1786,3.1387,3.1294,3.2376,3.2463,3.1384,3.2209,0.0,3.1074,3.1131,3.119,3.1161,3.0509,0.0,0.0,0.0,0.0,0.0,0.0,0.0,0.0,0.0,0.0,0.0,3.163,3.1901,3.1307,3.2046,3.2374,3.195,3.296,3.3801,3.4048,3.4646,3.5351,3.6248,3.635,3.6716,3.7544,3.7538,3.7612,3.7843,3.7787,3.7747,3.791,3.791,3.791,3.7996,3.8096,3.8041,3.7727,3.8597,3.8964,3.8178,3.8282,3.8684,3.9871,4.0583,4.1456,4.2353,4.3593,4.4311,4.4737,4.5292,4.5663,4.5984,4.6448,4.6865,4.688,4.7528,4.8039,4.8076,4.8228,4.826,4.8113,4.8076,4.8113,3.1511,0.0,3.1511,3.1511,0.0,0.0,3.1511,3.1511,3.1511,3.1511,3.1511,3.1511,3.1511,3.1511,3.1511,3.1511,3.1511,3.1511,3.1511,3.1473,3.1159,3.1189,3.1473,3.1159,3.1009,3.1009,3.1024,3.083,3.0605,3.0867,3.1017,3.1009,3.1331,3.1725,3.2139,3.223,3.2451,3.2845,3.2617,3.2296,3.1907,3.2736,3.2847,3.215,0.0,0.0,0.0,0.0,0.0,0.0,0.0,0.0,0.0,0.0,0.0,3.2268,3.2635,3.2663,3.2341,3.2989,3.3236,3.2887,3.4534,3.4974,3.3501,3.3733,3.41,3.4488,3.5199,3.5802,3.6163,3.6524,3.6902,3.728,3.7359,3.7494,3.7809,3.791,3.8052,3.8396,3.8424,3.8565,3.8943,3.8977,3.8983,3.9002,3.9228,3.9248,3.904,3.919,3.9297,3.9592,4.0061,4.0594,4.1451,4.223,4.2797,4.3678,4.4583,4.5375,4.5833,4.62,4.6613,4.6985,4.7434,4.7677,4.7735,4.8047,4.8448,4.882,4.894,4.9118,4.9407,4.9224,4.893,3.1511,3.1511,3.1511,3.1511,3.1511,3.1511,3.1511,3.1511,0.0,0.0,0.0,3.1511,3.1511,3.1511,3.1511,3.1511,3.1511,3.1511,3.1511,3.1481,3.0927,3.0957,3.1473,3.0927,3.0687,3.0687,3.0658,3.0425,2.996,3.0432,3.0695,3.0724,3.1241,3.1546,3.1719,3.1922,3.2449,3.3214,3.3135,3.2716,3.209,3.2686,3.2901,3.2714,3.326,3.3555,3.3517,3.3562,3.3649,3.379,3.3785,3.3717,3.3626,3.4173,3.424,3.3728,3.4872,3.5143,3.4094,3.4821,3.5295,3.5289,3.6902,3.711,3.5216,3.5222,3.5763,3.6891,3.6993,3.7224,3.7849,3.7877,3.7944,3.8086,3.8091,3.8153,3.8261,3.8288,3.8605,3.9073,3.918,3.9423,3.9937,4.0039,4.0106,4.0142,4.0327,4.0693,4.0272,3.956,3.9511,4.0641,4.1347,4.2387,4.301,4.3674,4.4388,4.4422,4.529,4.6212,4.6874,4.7223,4.7553,4.8039,4.8296,4.836,4.8461,4.8561,4.8837,4.9637,4.9821,5.0004,5.0545,5.0403,5.0009,3.1511,3.1511,3.1511,3.1511,3.1511,3.1511,3.1511,3.1511,3.1511,3.1511,3.1511,3.1511,3.1511,3.1511,3.1511,3.1511,3.1511,3.1511,3.1511,0.0,3.1384,3.1414,3.1511,3.1414,3.1361,3.1361,3.1368,3.1331,3.1241,3.1301,3.1354,3.1391,3.1444,3.184,3.2499,3.3572,3.4248,3.4349,3.3572,3.3387,3.3811,3.4328,3.4321,3.3816,3.3923,3.4091,3.424,3.4321,3.4635,3.5261,3.5306,3.5002,3.4404,3.4477,3.4443,3.4376,3.5143,3.5785,3.631,3.759,3.8368,3.8334,3.8091,3.7753,3.7477,3.7996,3.8199,3.7815,3.7753,3.7781,3.7916,3.7944,3.8255,3.8768,3.8836,3.9079,3.9694,3.9802,3.9836,3.9971,3.9937,3.9971,4.0208,4.0208,4.0242,4.0159,4.0461,4.0457,4.0828,4.04,4.0022,4.0291,4.0926,4.1366,4.2079,4.2686,4.3793,4.4125,4.541,4.6524,4.7093,4.7672,4.8081,4.8301,4.8421,4.8644,4.924,4.943,4.9758,5.0447,5.0624,5.0729,5.0944,5.1284,5.1394,3.1511,3.1511,3.1511,3.1511,3.1511,3.1511,3.1511,3.1511,3.1511,3.1511,3.1511,3.1511,3.1511,3.1511,3.1511,3.1511,3.1511,3.1511,3.1511,3.1511,3.1511,3.1511,3.1511,3.1511,3.1511,3.1511,3.1869,3.2026,3.2079,3.24,3.2602,3.2572,3.2579,3.2758,3.3138,3.4129,3.467,3.4651,3.4549,3.4667,3.494,3.5182,3.5142,3.4869,3.4891,3.4964,3.5037,3.5087,3.5233,3.5566,3.5605,3.565,3.5769,3.6101,3.6535,3.6947,3.7618,3.8024,3.8008,3.8261,3.8571,3.8943,3.8673,3.887,3.9641,3.8903,3.8436,3.8497,3.8497,3.8667,3.9051,3.9079,3.9383,4.0121,4.0189,4.0493,4.1115,4.1284,4.1284,4.1284,4.1284,4.1284,4.1284,4.1291,4.1291,4.1291,4.1291,4.1454,4.1745,4.1521,4.1426,4.1766,4.2363,4.2901,4.3219,4.4421,4.5293,4.5694,4.6606,4.736,4.7717,4.8154,4.8467,4.8919,4.9002,4.9331,5.0086,5.0236,5.0618,5.1249,5.1468,5.1573,5.2008,5.2412,5.2449,3.1959,3.1966,3.1966,3.1959,3.1959,3.1959,3.1959,3.1929,3.1966,3.1966,3.1899,3.1667,3.1511,3.1511,3.166,3.1713,3.175,3.1877,3.1929,3.1936,3.1936,3.1959,3.1959,3.1966,3.1966,3.1996,3.2482,3.2729,3.2789,3.3237,3.3599,3.3759,3.3781,3.3872,3.4044,3.4796,3.5194,3.5212,3.579,3.6044,3.5889,3.6038,3.6107,3.6118,3.6112,3.6214,3.6355,3.6355,3.6456,3.6597,3.6625,3.684,3.7297,3.7821,3.8322,3.8768,3.9457,3.9768,3.9519,3.8971,3.8971,3.9688,3.9722,4.0229,4.113,3.9912,3.9134,3.962,3.9829,4.0032,4.0479,4.058,4.0811,4.1379,4.1441,4.1644,4.2158,4.2286,4.2286,4.2286,4.2286,4.2252,4.2286,4.2286,4.2225,4.2191,4.2428,4.253,4.2557,4.2665,4.3054,4.3408,4.3785,4.3933,4.4643,4.5663,4.6499,4.6893,4.771,4.8248,4.8559,4.871,4.9089,4.9717,4.9865,5.0196,5.084,5.1052,5.1402,5.2087,5.2275,5.2454,5.292,5.3287,5.3324,3.3305,3.3305,3.3275,3.3305,3.3275,3.3275,3.3267,3.3275,3.3305,3.3305,3.3155,3.2056,3.1533,3.16,3.2146,3.2422,3.2452,3.3028,3.3275,3.3275,3.3305,3.3297,3.3237,3.3275,3.3305,3.3275,3.3365,3.3402,3.3432,3.356,3.3932,3.4516,3.4604,3.4942,3.5587,3.626,3.6612,3.6618,3.7306,3.7382,3.679,3.7364,3.7674,3.768,3.7674,3.8018,3.8464,3.87,3.8977,3.9599,3.9565,3.9362,3.8848,3.8842,3.8639,3.8159,3.8768,3.962,4.0825,4.0933,4.1136,4.1887,4.188,4.1955,4.2185,4.1995,4.1894,4.1961,4.1961,4.1894,4.2056,4.2022,4.2022,4.2158,4.2191,4.2232,4.2394,4.2286,4.2286,4.2286,4.2496,4.232,4.2462,4.2496,4.2428,4.2564,4.2997,4.3294,4.3362,4.3789,4.4229,4.4258,4.3993,4.3681,4.3978,4.477,4.6117,4.6674,4.7729,4.8743,4.9393,5.0004,5.0627,5.0556,5.0674,5.0996,5.16,5.1925,5.2176,5.27,5.2962,5.3109,5.3287,5.377,5.3995,3.3522,3.3522,3.3522,3.3522,3.3522,3.3522,3.3522,3.3522,3.3522,3.3522,3.3462,3.2901,3.2699,3.2691,3.2968,3.3088,3.3125,3.3365,3.3522,3.3522,3.3522,3.3522,3.3522,3.3522,3.3522,3.3552,3.3889,3.4106,3.4252,3.4918,3.5726,3.6443,3.6522,3.6695,3.7042,3.7691,3.8038,3.8065,3.8816,3.9063,3.8707,3.8161,3.791,3.791,3.791,3.8018,3.8288,3.8362,3.8504,3.8768,3.8808,3.8882,3.8983,3.9017,3.9276,3.9811,4.0534,4.121,4.1806,4.1847,4.1995,4.23,4.2286,4.2462,4.2895,4.2956,4.3125,4.3484,4.2834,4.2286,4.2327,4.2286,4.2455,4.2828,4.2956,4.3098,4.3619,4.366,4.366,4.366,4.366,4.3667,4.366,4.3653,4.3653,4.3687,4.3951,4.4113,4.4147,4.4398,4.4758,4.5093,4.4945,4.4959,4.518,4.6387,4.738,4.8204,4.9143,5.0069,5.0266,5.0513,5.0921,5.1413,5.1464,5.1787,5.2559,5.2679,5.2878,5.3287,5.3697,5.3917,5.3922,5.4552,5.4814,3.4069,3.4061,3.4023,3.4061,3.4053,3.4053,3.4053,3.4053,3.4053,3.4053,3.4053,3.4053,3.4053,3.4023,3.3881,3.3769,3.3791,3.3971,3.4061,3.4053,3.4053,3.4061,3.4061,3.4045,3.4155,3.4408,3.4855,3.509,3.5206,3.6291,3.7218,3.7757,3.8016,3.8229,3.8474,3.9008,3.9236,3.9249,3.9804,4.0106,3.9931,3.9051,3.8491,3.8497,3.8497,3.8497,3.8504,3.8497,3.8491,3.8491,3.87,3.9039,3.9552,3.9789,4.0398,4.1366,4.1988,4.2394,4.2591,4.2597,4.2699,4.2902,4.2949,4.3146,4.3639,4.393,4.4275,4.4702,4.4059,4.3552,4.2943,4.2943,4.3166,4.366,4.3734,4.3978,4.4472,4.4743,4.4871,4.4905,4.5048,4.521,4.521,4.521,4.5176,4.521,4.521,4.5183,4.521,4.5251,4.5457,4.5907,4.6002,4.611,4.6533,4.7311,4.852,4.9321,4.9959,5.0754,5.1098,5.1274,5.1536,5.2284,5.2289,5.2416,5.2847,5.3093,5.3392,5.3654,5.4137,5.4693,5.4735,5.5401,5.5822,3.5421,3.537,3.54,3.5324,3.54,3.5332,3.537,3.5272,3.534,3.537,3.531,3.534,3.537,3.531,3.4697,3.4458,3.4563,3.5048,3.5272,3.528,3.5342,3.5416,3.5429,3.5438,3.5734,3.6153,3.6238,3.643,3.6614,3.7352,3.7764,3.7926,3.8669,3.9302,3.9887,4.0049,4.0083,4.014,4.0238,4.018,4.0174,4.0079,4.0005,4.0005,3.9977,3.9971,3.9971,4.0011,4.0005,4.0005,4.0595,4.1035,4.113,4.1718,4.2124,4.2259,4.2333,4.2658,4.3254,4.3355,4.3666,4.4296,4.4405,4.4506,4.4675,4.5162,4.5534,4.5662,4.6015,4.5778,4.4702,4.4472,4.4533,4.4608,4.4608,4.4635,4.4675,4.5345,4.5594,4.5737,4.615,4.6387,4.6583,4.6691,4.6522,4.6522,4.6624,4.6556,4.6455,4.6556,4.66,4.6712,4.6762,4.6799,4.6875,4.7749,4.8349,4.9323,5.0657,5.1207,5.1881,5.2491,5.2821,5.3041,5.2978,5.2978,5.3141,5.3398,5.3728,5.4174,5.4987,5.5433,5.5543,5.6235,5.6655,3.5489,3.5489,3.5489,3.5489,3.5489,3.5489,3.5489,3.5489,3.5489,3.5489,3.5489,3.5489,3.5489,3.5489,3.525,3.5138,3.5168,3.5391,3.5489,3.5546,3.5983,3.6204,3.6204,3.6204,3.6306,3.6538,3.6592,3.7394,3.8764,3.9132,3.9759,4.0597,4.0909,4.1217,4.1448,4.1521,4.1521,4.1487,4.1521,4.1521,4.1454,4.1521,4.1481,4.1487,4.1041,4.0804,4.0804,4.1257,4.1487,4.1487,4.1752,4.1914,4.1975,4.2584,4.3017,4.3058,4.3477,4.389,4.412,4.4188,4.4485,4.5203,4.5304,4.5507,4.5947,4.6252,4.6421,4.6455,4.659,4.6455,4.6191,4.6022,4.5988,4.5981,4.5988,4.5954,4.6056,4.6259,4.638,4.6447,4.6658,4.6786,4.6887,4.6786,4.6786,4.6786,4.6786,4.6853,4.6819,4.6786,4.7024,4.7389,4.7527,4.7844,4.8838,4.9008,4.9538,5.0696,5.1722,5.2214,5.2784,5.2873,5.3104,5.3272,5.3298,5.3403,5.3518,5.4058,5.4357,5.5029,5.58,5.6271,5.6376,5.6932,5.7353,3.5489,3.5489,3.5489,3.5489,3.5489,3.5489,3.5489,3.5489,3.5489,3.5489,3.5489,3.5489,3.5489,3.5489,3.5489,3.5489,3.5489,3.5489,3.5489,3.5538,3.6022,3.6259,3.6298,3.6492,3.6877,3.7445,3.8128,3.9214,4.0325,4.0696,4.1196,4.1862,4.2173,4.2286,4.2286,4.2286,4.2286,4.2286,4.2286,4.2293,4.2286,4.2286,4.2286,4.2293,4.2049,4.1806,4.1569,4.2022,4.2286,4.2327,4.253,4.2767,4.3044,4.3504,4.3903,4.4174,4.4628,4.5074,4.5285,4.5318,4.5514,4.5974,4.6075,4.6312,4.6759,4.6989,4.7124,4.7184,4.7394,4.7503,4.7503,4.7503,4.7334,4.6921,4.6786,4.6786,4.6786,4.6989,4.7259,4.7496,4.7564,4.7564,4.7496,4.753,4.7564,4.7537,4.7503,4.7496,4.7496,4.7537,4.7635,4.8161,4.8263,4.8733,4.9371,4.9639,5.0005,5.1065,5.1632,5.2395,5.3133,5.3182,5.3377,5.3503,5.3644,5.3718,5.4074,5.4656,5.528,5.5915,5.6571,5.7152,5.7336,5.7556,5.7757,3.5489,3.5489,3.5489,3.5489,3.5489,3.5489,3.5489,3.5489,3.5489,3.5489,3.5489,3.5489,3.5489,3.5489,3.5489,3.5519,3.5587,3.5707,3.563,3.5522,3.57,3.585,3.5953,3.6701,3.7638,3.8823,4.1007,4.163,4.1108,4.169,4.1874,4.1533,4.2212,4.2597,4.2388,4.2523,4.2462,4.2503,4.2564,4.2462,4.2327,4.2496,4.253,4.2523,4.3024,4.3024,4.2401,4.2435,4.253,4.2564,4.3064,4.3775,4.4398,4.4567,4.4898,4.5466,4.5703,4.6041,4.6583,4.6624,4.6597,4.6819,4.6786,4.6861,4.7124,4.7556,4.7921,4.7988,4.8436,4.8849,4.8815,4.8781,4.8308,4.7173,4.7064,4.7056,4.7097,4.7522,4.8157,4.868,4.8781,4.8951,4.8951,4.8748,4.868,4.868,4.8714,4.8714,4.8646,4.8612,4.8883,4.8932,4.8872,4.9124,4.9569,5.0042,5.0488,5.0995,5.1293,5.1813,5.2884,5.3255,5.3907,5.4144,5.4378,5.4519,5.5179,5.5724,5.6192,5.6822,5.744,5.7776,5.785,5.7886,5.7892,3.5489,3.5489,3.5489,3.5489,3.5489,3.5489,3.5489,3.5489,3.5489,3.5489,3.5489,3.5489,3.5489,3.5489,3.5481,3.5759,3.6205,3.6691,3.6495,3.5854,3.6592,3.733,3.7873,3.8628,3.9209,3.9621,4.0268,4.0799,4.1169,4.1866,4.2314,4.273,4.3467,4.3869,4.3822,4.3897,4.3897,4.389,4.3897,4.3897,4.3863,4.3863,4.3856,4.389,4.4127,4.4093,4.3897,4.3897,4.3897,4.3849,4.4093,4.4567,4.5203,4.5365,4.5703,4.6353,4.6455,4.6522,4.6725,4.6819,4.7097,4.7421,4.7549,4.7827,4.824,4.8477,4.8638,4.8638,4.8875,4.9018,4.9018,4.9018,4.8748,4.8368,4.8308,4.824,4.8206,4.8469,4.8706,4.8917,4.9018,4.9018,4.9018,4.9018,4.9018,4.9018,4.9018,4.9018,4.9026,4.9086,4.9018,4.9018,4.9075,4.9385,4.9937,5.0474,5.099,5.1511,5.1795,5.2192,5.3029,5.3756,5.4399,5.4932,5.5165,5.5592,5.6252,5.6667,5.7068,5.7373,5.7776,5.7929,5.7966,5.8002,5.8002,3.5489,3.5489,3.5489,3.5489,3.5541,3.5729,3.5878,3.5908,3.6109,3.6199,3.6207,3.6199,3.6191,3.6274,3.6523,3.6906,3.7377,3.8192,3.7864,3.7038,3.7976,3.8865,3.9364,4.0061,4.0392,4.0353,4.0557,4.1065,4.1786,4.2362,4.301,4.3768,4.4348,4.4574,4.4574,4.4574,4.4574,4.4574,4.4574,4.4574,4.4574,4.4574,4.475,4.4939,4.5,4.5176,4.5379,4.542,4.5149,4.4777,4.4838,4.5372,4.6007,4.6143,4.6447,4.7022,4.7218,4.7327,4.7571,4.7699,4.7767,4.8225,4.8326,4.8503,4.8917,4.9018,4.9018,4.9018,4.9018,4.9018,4.9018,4.9018,4.912,4.939,4.9112,4.9052,4.9018,4.9018,4.8984,4.9018,4.9018,4.9018,4.9018,4.9018,4.9018,4.9018,4.9018,4.9195,4.9297,4.9424,4.9497,4.9663,4.9994,5.0245,5.0451,5.0947,5.1471,5.2048,5.2607,5.3175,5.3909,5.4523,5.5109,5.5882,5.6274,5.6658,5.7271,5.7276,5.7519,5.7819,5.8002,5.8002,5.8002,5.8002,5.8002,3.5489,3.5511,3.5549,3.5609,3.5691,3.6276,3.6545,3.6635,3.7075,3.7276,3.7306,3.7208,3.7268,3.751,3.7979,3.8416,3.8892,3.9549,3.9612,3.9243,3.9697,4.0112,4.0119,4.0736,4.1027,4.107,4.155,4.2266,4.2779,4.3085,4.3695,4.425,4.444,4.4574,4.4574,4.4574,4.4574,4.4574,4.4574,4.4608,4.4702,4.4709,4.5041,4.5696,4.5771,4.6007,4.6496,4.6556,4.6056,4.5041,4.5466,4.6109,4.6684,4.6853,4.7192,4.7887,4.7954,4.8259,4.8774,4.8924,4.8984,4.9044,4.918,4.9112,4.9315,4.9424,4.9424,4.939,4.9323,4.9289,4.9289,4.9315,4.9586,4.9973,4.9729,4.939,4.918,4.9255,4.939,4.9323,4.9154,4.9187,4.9357,4.9323,4.9323,4.9323,4.9357,4.9695,4.9973,5.025,5.0519,5.0665,5.0748,5.0779,5.0855,5.1424,5.197,5.2649,5.3319,5.407,5.4882,5.5513,5.5989,5.6768,5.7189,5.7652,5.7881,5.7776,5.7745,5.7892,5.8002,5.8002,5.8002,5.8002,5.8217,3.5489,3.5549,3.6028,3.6246,3.6327,3.6904,3.7157,3.7186,3.7336,3.7477,3.7417,3.7387,3.7477,3.7498,3.8331,3.8956,3.9549,4.0349,4.099,4.1135,4.1326,4.1125,4.0894,4.1381,4.1686,4.171,4.1853,4.2133,4.2395,4.3024,4.345,4.3643,4.4341,4.4574,4.4574,4.4574,4.4574,4.4574,4.4601,4.4905,4.5372,4.5406,4.5771,4.6413,4.6522,4.6624,4.6793,4.6786,4.6691,4.6319,4.638,4.6853,4.7522,4.7616,4.7928,4.8503,4.8706,4.8774,4.9044,4.9526,4.9812,4.9864,5.0236,5.0626,5.0634,5.06,5.0634,5.0626,5.0626,5.0566,5.0592,5.0592,5.0728,5.0837,5.0736,5.06,5.0525,5.0634,5.0634,5.0626,5.0558,5.0533,5.0491,5.0491,5.0499,5.0499,5.0491,5.0592,5.0811,5.0955,5.111,5.1078,5.1125,5.1157,5.1338,5.1901,5.2508,5.3224,5.4027,5.4957,5.5867,5.6787,5.722,5.7731,5.7596,5.7892,5.796,5.7929,5.7966,5.8076,5.8107,5.818,5.8076,5.8076,5.8541,3.5489,3.5549,3.6216,3.6485,3.6643,3.7443,3.7823,3.7883,3.8144,3.8225,3.8225,3.8225,3.8234,3.833,3.9151,3.9754,4.0213,4.1015,4.139,4.126,4.0958,4.0803,4.0953,4.1596,4.1812,4.1543,4.1829,4.2229,4.2591,4.3078,4.3465,4.3926,4.4341,4.4567,4.4574,4.4608,4.4777,4.5007,4.5067,4.5406,4.6075,4.6143,4.6575,4.7116,4.7286,4.7361,4.7631,4.7733,4.7597,4.7353,4.7286,4.759,4.8266,4.8353,4.8578,4.9018,4.9247,4.9466,4.9593,5.0135,5.0541,5.0608,5.1006,5.1167,5.1167,5.1201,5.1201,5.1167,5.1201,5.1201,5.1277,5.148,5.1615,5.1716,5.1953,5.1886,5.1328,5.1133,5.1201,5.1201,5.1201,5.1201,5.1235,5.1235,5.1235,5.1167,5.1066,5.1311,5.1547,5.1641,5.1776,5.1852,5.1987,5.2134,5.2367,5.2825,5.3361,5.401,5.5048,5.5932,5.6415,5.7462,5.7765,5.7935,5.7966,5.8033,5.8101,5.8174,5.8253,5.8364,5.8364,5.8621,5.8731,5.8657,5.9049,3.5541,3.5653,3.6327,3.6643,3.6934,3.7982,3.8512,3.8601,3.9041,3.9293,3.9263,3.9352,3.9203,3.9454,4.0033,4.0654,4.0696,4.1302,4.1233,4.0851,4.0421,4.0411,4.1068,4.1455,4.1609,4.1446,4.1877,4.263,4.3259,4.3502,4.3868,4.4341,4.4566,4.4668,4.4804,4.4804,4.5142,4.5703,4.5805,4.621,4.6752,4.6921,4.7286,4.7887,4.8022,4.8259,4.8672,4.8849,4.8605,4.8063,4.8022,4.8326,4.8875,4.8984,4.9086,4.9221,4.9695,5.0041,5.0312,5.0905,5.1302,5.1336,5.1438,5.1438,5.1641,5.1716,5.1708,5.1742,5.1472,5.1641,5.175,5.2131,5.2367,5.2503,5.3036,5.2697,5.1844,5.1438,5.1438,5.1438,5.1472,5.1446,5.1446,5.1446,5.1472,5.2055,5.1987,5.2156,5.2367,5.2427,5.2697,5.301,5.3137,5.3332,5.3556,5.3848,5.4345,5.4976,5.617,5.6913,5.6757,5.7377,5.7753,5.8039,5.8248,5.8346,5.8365,5.8445,5.8719,5.8982,5.9275,5.9679,6.0015,5.9758,5.993,3.5818,3.6335,3.6947,3.7524,3.8071,3.8832,3.9191,3.9191,3.9331,3.9412,3.9412,3.9412,3.9412,3.9454,4.0222,4.0716,4.0648,4.0927,4.0812,4.0835,4.1314,4.1477,4.1528,4.1329,4.1642,4.2348,4.2846,4.348,4.4119,4.4315,4.441,4.4626,4.4845,4.4905,4.5399,4.5507,4.5846,4.6413,4.6583,4.6955,4.7522,4.7691,4.7996,4.8638,4.8748,4.8808,4.8951,4.9018,4.8917,4.8808,4.8774,4.8883,4.9052,4.9094,4.933,4.9804,5.0041,5.0405,5.0939,5.1615,5.2046,5.2089,5.2494,5.301,5.3002,5.29,5.2934,5.3002,5.301,5.2833,5.2866,5.3103,5.3137,5.3205,5.3306,5.3374,5.3069,5.2934,5.2866,5.29,5.29,5.2968,5.2934,5.2833,5.2866,5.2968,5.2976,5.3044,5.3078,5.3112,5.3281,5.3518,5.3509,5.3518,5.3643,5.3946,5.4458,5.5321,5.662,5.7563,5.7414,5.7623,5.8117,5.8405,5.864,5.8726,5.8869,5.9399,5.9753,5.9973,6.0187,6.045,6.0676,6.0597,6.078,3.5908,3.6553,3.7135,3.7793,3.8461,3.9092,3.9412,3.9412,3.9412,3.9412,3.9412,3.9412,3.9412,3.9418,3.9849,4.0087,4.0205,4.055,4.0451,4.0378,4.0911,4.1322,4.1338,4.1123,4.1577,4.3149,4.3732,4.4354,4.4914,4.5142,4.5309,4.5616,4.5623,4.5879,4.6143,4.6244,4.6616,4.7158,4.7319,4.7658,4.83,4.8428,4.8537,4.9044,4.9297,4.939,4.9052,4.9364,4.9492,4.9492,4.95,4.9534,4.9534,4.9534,4.9898,5.0473,5.098,5.1217,5.1784,5.2393,5.2866,5.2833,5.3281,5.3408,5.3509,5.3509,5.3509,5.3509,5.3475,5.3475,5.3509,5.3475,5.3509,5.3509,5.3509,5.3509,5.3509,5.3509,5.3509,5.3509,5.3408,5.3408,5.3475,5.3509,5.3475,5.3205,5.3205,5.3306,5.3306,5.334,5.3374,5.3509,5.3509,5.3534,5.3593,5.3864,5.432,5.5322,5.6585,5.7405,5.7738,5.8129,5.8622,5.8853,5.9092,5.9388,5.9615,6.02,6.0707,6.086,6.1043,6.119,6.141,6.1661,6.1838,3.593,3.6665,3.7186,3.7853,3.8571,3.9152,3.9412,3.9412,3.9412,3.9412,3.9412,3.9412,3.9412,3.9409,3.9418,3.9409,3.9648,4.0265,4.0404,4.0078,4.1018,4.1413,4.147,4.1831,4.2469,4.3611,4.4142,4.4911,4.5645,4.5899,4.6082,4.6624,4.6725,4.6752,4.6894,4.6996,4.7327,4.7962,4.8063,4.8266,4.8815,4.8909,4.8977,4.9357,4.9898,5.0033,4.9755,4.9965,5.0278,5.0278,5.0278,5.0346,5.0421,5.0312,5.0574,5.1311,5.186,5.2164,5.2503,5.3036,5.3441,5.3509,5.3509,5.3509,5.3509,5.3509,5.3509,5.3509,5.3509,5.3509,5.3509,5.3509,5.3509,5.3509,5.3509,5.3509,5.3509,5.3509,5.3509,5.3509,5.3509,5.3509,5.3509,5.3509,5.3509,5.3509,5.3543,5.3543,5.3577,5.3543,5.3577,5.3509,5.3509,5.3822,5.3932,5.4748,5.5073,5.5537,5.675,5.75,5.8128,5.8542,5.8993,5.9346,5.9606,5.9926,6.0408,6.1001,6.1416,6.1655,6.1814,6.1918,6.2285,6.2725,6.2719,3.6161,3.7246,3.7366,3.8114,3.9161,3.9361,3.9412,3.9412,3.9412,3.9412,3.9412,3.9412,3.9412,3.9412,3.9412,3.9412,3.9607,4.0239,4.0545,4.0557,4.1567,4.2302,4.2392,4.3205,4.4349,4.4787,4.4877,4.5332,4.6352,4.6658,4.6793,4.6819,4.6921,4.7158,4.759,4.7752,4.803,4.8571,4.8672,4.8849,4.8951,4.912,4.939,4.9906,5.0642,5.0837,5.0795,5.0871,5.104,5.0998,5.0998,5.1344,5.1623,5.1352,5.148,5.1987,5.23,5.263,5.3112,5.334,5.3509,5.3509,5.3509,5.3509,5.3509,5.3509,5.3543,5.3611,5.3611,5.3577,5.3509,5.3704,5.3577,5.3543,5.3678,5.3678,5.3644,5.367,5.3746,5.3814,5.3712,5.3611,5.3712,5.3847,5.4008,5.4076,5.4042,5.4008,5.3974,5.3856,5.3763,5.3619,5.3509,5.3923,5.4355,5.5481,5.6223,5.6251,5.7116,5.8024,5.8585,5.895,5.9358,6.0121,6.0445,6.061,6.1147,6.177,6.2071,6.2285,6.2462,6.2609,6.2719,6.2793,6.2793,3.6567,3.7426,3.7764,3.8473,3.9293,3.9412,3.9412,3.9412,3.9412,3.9412,3.9412,3.9412,3.9412,3.9412,3.9412,3.9412,3.9613,4.03,4.0438,4.0506,4.1536,4.2359,4.2553,4.3671,4.4877,4.5569,4.5757,4.6121,4.7252,4.7346,4.753,4.7909,4.7936,4.8139,4.8376,4.8462,4.8638,4.8984,4.9018,4.9052,4.912,4.9364,4.9965,5.0634,5.1277,5.1547,5.1302,5.1649,5.175,5.1784,5.1784,5.2224,5.2528,5.263,5.252,5.2833,5.29,5.3036,5.3408,5.3509,5.3509,5.3509,5.3543,5.3509,5.3509,5.3543,5.3721,5.4059,5.4524,5.4659,5.4693,5.4583,5.4617,5.4617,5.4583,5.4591,5.4625,5.4583,5.4515,5.4422,5.4363,5.4296,5.4228,5.4389,5.4617,5.4651,5.4583,5.4515,5.4448,5.4422,5.4304,5.4398,5.4415,5.471,5.5133,5.5911,5.6771,5.6929,5.7471,5.8371,5.9093,5.9509,6.052,6.1519,6.1637,6.1367,6.1843,6.2407,6.2676,6.2793,6.2756,6.2719,6.2756,6.2793,6.2829,3.6844,3.7456,3.814,3.8781,3.9331,3.9412,3.9412,3.9412,3.9412,3.9412,3.9412,3.9412,3.9412,3.9412,3.9412,3.94,3.9463,4.0275,4.0216,4.019,4.1254,4.1969,4.2412,4.3263,4.481,4.6593,4.7117,4.7436,4.7983,4.8124,4.8469,4.868,4.8917,4.8984,4.8951,4.8875,4.9018,4.9052,4.9187,4.9255,4.9593,5.0176,5.0777,5.1438,5.2131,5.2258,5.1987,5.2291,5.2536,5.257,5.2596,5.2841,5.3374,5.3509,5.3577,5.3678,5.3585,5.3509,5.3543,5.3746,5.3856,5.3856,5.3923,5.3949,5.4008,5.4219,5.4296,5.4803,5.5234,5.5564,5.5462,5.5631,5.5597,5.5597,5.5564,5.5631,5.553,5.5462,5.5395,5.5268,5.5141,5.504,5.5006,5.493,5.5158,5.5192,5.5124,5.5192,5.5158,5.5259,5.526,5.5475,5.5568,5.5741,5.5986,5.6215,5.6828,5.7035,5.7805,5.8759,5.9524,6.0161,6.1205,6.2104,6.2223,6.2056,6.2584,6.2774,6.2793,6.2793,6.2793,6.2793,6.2793,6.2866,6.2939,3.6874,3.7456,3.8131,3.8781,3.9361,3.9412,3.9412,3.9412,3.9412,3.9412,3.9412,3.9391,3.94,3.9463,3.94,3.9391,3.9688,4.0073,4.0416,4.0491,4.1721,4.2821,4.3683,4.5149,4.6134,4.7481,4.8239,4.8702,4.8774,4.874,4.8841,4.8984,4.9018,4.9018,4.9018,4.9018,4.9018,4.9112,4.9661,5.027,5.0905,5.1555,5.1928,5.2334,5.2841,5.3171,5.2968,5.3137,5.3239,5.3272,5.3306,5.3374,5.3518,5.3509,5.3881,5.4059,5.3957,5.3509,5.3746,5.416,5.4465,5.4566,5.493,5.5327,5.5225,5.5293,5.5369,5.5505,5.5767,5.5902,5.5969,5.5843,5.5767,5.5868,5.6037,5.5936,5.5868,5.6316,5.6249,5.6249,5.6156,5.5944,5.5843,5.5733,5.5665,5.5699,5.5733,5.58,5.5902,5.6114,5.6147,5.6312,5.6474,5.6621,5.6704,5.6959,5.7036,5.7282,5.7945,5.895,5.9575,6.0271,6.1336,6.2041,6.2201,6.2206,6.2188,6.2337,6.2673,6.2686,6.2503,6.2598,6.2786,6.2865,6.2855,3.7742,3.8042,3.8682,3.9131,3.9382,3.9412,3.9412,3.9412,3.9412,3.9412,3.9412,3.9391,3.9639,3.9884,3.9666,3.9925,4.0488,4.0546,4.0645,4.1289,4.2449,4.3657,4.4747,4.6179,4.7473,4.8233,4.8759,4.8873,4.9018,4.9018,4.9018,4.9018,4.9018,4.9018,4.9018,4.9018,4.9297,4.9695,5.0371,5.1082,5.1725,5.2164,5.2536,5.2942,5.3315,5.3475,5.3509,5.3509,5.3509,5.3509,5.3509,5.3754,5.4,5.4194,5.4431,5.5099,5.4964,5.4786,5.482,5.5065,5.5166,5.5234,5.553,5.5597,5.5767,5.6071,5.6316,5.6316,5.6731,5.6867,5.6867,5.6934,5.6943,5.6943,5.6731,5.6765,5.679,5.6925,5.7103,5.7137,5.7103,5.6867,5.6722,5.6731,5.6697,5.6731,5.6799,5.69,5.7002,5.7171,5.7171,5.7121,5.7257,5.7405,5.7457,5.7552,5.7485,5.7629,5.7692,5.8608,5.9398,6.0221,6.1155,6.159,6.16,6.1603,6.1665,6.1996,6.2406,6.2284,6.2103,6.2132,6.2125,6.2233,6.2551,3.8661,3.87,3.9182,3.9412,3.9412,3.9412,3.9412,3.9412,3.9412,3.9412,3.9412,3.9409,3.9791,4.02,3.9931,4.0257,4.1214,4.1011,4.1229,4.2053,4.322,4.4485,4.5554,4.6917,4.8006,4.8969,4.893,4.9018,4.9018,4.9018,4.9018,4.9018,4.9018,4.9018,4.9044,4.9323,4.9763,5.0752,5.1217,5.1852,5.2461,5.2638,5.2976,5.3306,5.3509,5.3509,5.3509,5.3509,5.3509,5.3822,5.3847,5.4194,5.4744,5.4905,5.5243,5.5775,5.5877,5.6012,5.6037,5.6147,5.6012,5.6012,5.6215,5.6452,5.6461,5.6799,5.707,5.707,5.7408,5.7721,5.7866,5.7789,5.7697,5.7663,5.7688,5.7832,5.7866,5.7654,5.7543,5.7552,5.7552,5.7654,5.7586,5.7721,5.7798,5.7832,5.79,5.79,5.7857,5.7823,5.7721,5.7561,5.7611,5.7728,5.778,5.7866,5.79,5.7954,5.8009,5.8335,5.9154,5.9835,6.0575,6.0838,6.0898,6.098,6.1011,6.1566,6.2072,6.169,6.1408,6.1362,6.1345,6.1639,6.2713,3.9331,3.934,3.9391,3.9412,3.9412,3.9412,3.9412,3.9412,3.9412,3.9412,3.9412,3.9439,3.9499,3.9766,4.0242,4.0454,4.0754,4.176,4.2197,4.2854,4.3917,4.52,4.6281,4.7258,4.8153,4.8868,4.9018,4.9018,4.9018,4.9018,4.9018,4.9018,4.9018,4.9018,4.9255,4.9695,5.0642,5.1589,5.2122,5.257,5.3103,5.3306,5.3374,5.3441,5.3509,5.3509,5.3509,5.3577,5.3814,5.4372,5.4499,5.4871,5.548,5.5606,5.6012,5.6519,5.6722,5.6934,5.7171,5.6968,5.6765,5.69,5.7171,5.7417,5.7383,5.762,5.7789,5.7688,5.7823,5.7857,5.79,5.79,5.79,5.79,5.79,5.79,5.79,5.7866,5.7789,5.7866,5.79,5.79,5.79,5.79,5.79,5.79,5.79,5.79,5.79,5.7857,5.7866,5.7798,5.7832,5.7857,5.7857,5.79,5.79,5.8011,5.8137,5.8449,5.8943,5.9575,6.0088,6.006,6.0096,6.0223,6.0367,6.0652,6.0809,6.078,6.0806,6.118,6.1805,6.2449,6.387,3.9412,3.9412,3.9412,3.9412,3.9412,3.9412,3.9412,3.9412,3.9412,3.9412,3.9412,3.9457,4.0238,4.1067,4.071,4.1593,4.2935,4.2461,4.3071,4.3983,4.5098,4.6147,4.7096,4.7868,4.8671,4.8972,4.9018,4.9018,4.9018,4.9018,4.9018,4.9018,4.9086,4.9018,4.933,5.0202,5.1319,5.2131,5.2765,5.3239,5.334,5.3509,5.3509,5.3509,5.3509,5.3509,5.3577,5.3991,5.4304,5.4634,5.5065,5.5683,5.6224,5.635,5.6722,5.7273,5.7374,5.7586,5.7789,5.762,5.7485,5.7518,5.7721,5.79,5.79,5.79,5.79,5.79,5.79,5.79,5.79,5.79,5.79,5.79,5.79,5.79,5.7967,5.7992,5.8026,5.8094,5.8001,5.79,5.79,5.79,5.79,5.79,5.79,5.79,5.79,5.79,5.79,5.79,5.79,5.79,5.79,5.79,5.79,5.8038,5.8235,5.8396,5.8633,5.9052,5.9453,5.9376,5.9423,5.9692,5.9785,5.9603,5.9806,6.0307,6.0936,6.1539,6.23,6.3224,6.4692,3.9412,3.9412,3.9412,3.9412,3.9412,3.9412,3.9412,3.9412,3.9412,3.9412,3.9412,3.9484,4.0399,4.155,4.1439,4.1765,4.3217,4.3233,4.3731,4.4607,4.5656,4.6687,4.7638,4.8369,4.8907,4.9018,4.9018,4.9018,4.9018,4.9018,4.9195,4.9323,4.9315,4.939,4.9729,5.0736,5.1886,5.2638,5.3112,5.3509,5.3509,5.3509,5.3509,5.3577,5.3746,5.3923,5.4126,5.4532,5.5065,5.5403,5.5809,5.6393,5.6833,5.7205,5.7408,5.7688,5.79,5.79,5.79,5.79,5.79,5.7832,5.7832,5.79,5.79,5.79,5.79,5.79,5.79,5.79,5.79,5.79,5.79,5.79,5.79,5.7934,5.8127,5.8229,5.8263,5.833,5.8127,5.7924,5.8094,5.8127,5.8195,5.8094,5.7891,5.79,5.79,5.79,5.79,5.79,5.79,5.79,5.79,5.7967,5.7992,5.7927,5.8029,5.8018,5.8219,5.8736,5.9073,5.909,5.9193,5.9294,5.962,6.0011,6.0107,6.0162,6.1048,6.211,6.3427,6.4397,6.5252,3.9412,3.9412,3.9412,3.9412,3.9412,3.9412,3.9412,3.9412,3.9412,3.9412,3.9412,3.9421,3.9937,4.0794,4.1229,4.2091,4.2978,4.3283,4.3876,4.4983,4.5841,4.6713,4.7713,4.8545,4.8892,4.8954,4.8995,4.8995,4.8876,4.913,4.945,4.9906,5.0109,5.0236,5.0278,5.1522,5.2638,5.334,5.3441,5.3475,5.3509,5.3509,5.3509,5.3611,5.4093,5.4338,5.4507,5.5268,5.5843,5.6283,5.6587,5.707,5.7586,5.7688,5.7789,5.7866,5.79,5.79,5.79,5.79,5.79,5.79,5.79,5.79,5.79,5.79,5.79,5.79,5.79,5.79,5.79,5.7967,5.7992,5.8094,5.8127,5.8364,5.8635,5.8727,5.8829,5.8906,5.8398,5.7992,5.8263,5.8432,5.85,5.8364,5.8026,5.7992,5.8161,5.832,5.8459,5.85,5.8533,5.8533,5.8567,5.8229,5.8094,5.7992,5.8137,5.8398,5.8533,5.8969,5.9125,5.9016,5.9299,5.971,6.021,6.0741,6.0847,6.104,6.1892,6.2971,6.4336,6.5311,6.5809,3.9412,3.9412,3.9412,3.9412,3.9412,3.9412,3.9412,3.9412,3.9412,3.9412,3.9412,3.9412,4.0492,4.1459,4.1661,4.2277,4.3644,4.3296,4.3984,4.5652,4.6076,4.7222,4.816,4.8679,4.8736,4.8393,4.8521,4.8632,4.8064,4.9025,4.9713,5.0176,5.109,5.1522,5.1623,5.2224,5.2706,5.334,5.3509,5.3509,5.3509,5.3509,5.3509,5.3585,5.4262,5.4676,5.4846,5.5843,5.6553,5.6925,5.7128,5.7586,5.7866,5.79,5.79,5.79,5.79,5.79,5.79,5.79,5.79,5.79,5.79,5.79,5.79,5.79,5.79,5.79,5.79,5.79,5.79,5.8423,5.8626,5.8829,5.8998,5.937,5.9641,5.9573,5.9607,5.9674,5.937,5.9268,5.937,5.9438,5.9438,5.9573,5.9447,5.921,5.9278,5.9399,5.9543,5.954,5.9539,5.9471,5.9302,5.8998,5.8964,5.9041,5.9244,5.9505,5.9607,5.9496,5.962,5.9756,5.9984,6.0261,6.0829,6.1347,6.169,6.2124,6.2754,6.359,6.4839,6.5371,6.5509,3.9412,3.9412,3.9412,3.9412,3.9412,3.9412,3.9412,3.9412,3.9412,3.9412,3.9442,3.9649,4.0601,4.1787,4.2126,4.2423,4.4155,4.3703,4.4346,4.5987,4.62,4.734,4.8401,4.8995,4.8775,4.8329,4.8497,4.8681,4.833,4.9466,5.034,5.1158,5.2063,5.2503,5.2697,5.2841,5.2976,5.3441,5.3509,5.3509,5.3509,5.3543,5.3661,5.4059,5.46,5.5141,5.5624,5.6368,5.718,5.7306,5.7552,5.79,5.79,5.79,5.79,5.79,5.79,5.79,5.79,5.79,5.79,5.79,5.79,5.79,5.79,5.79,5.79,5.79,5.79,5.8094,5.8297,5.8887,5.9158,5.9327,5.9733,6.0114,6.0419,6.0385,6.0283,6.0351,6.025,6.0317,6.0486,6.0554,6.0554,6.0757,6.0892,6.0622,6.0317,6.0303,6.03,6.0299,6.0193,6.0,5.9903,5.981,5.9844,6.0047,6.0182,6.0317,6.025,6.008,6.0321,6.0587,6.0935,6.1288,6.1598,6.1974,6.2208,6.2637,6.3241,6.4192,6.534,6.5383,6.524,3.9412,3.9412,3.9412,3.9412,3.9412,3.9412,3.9412,3.9412,3.9412,3.9412,3.9481,4.0127,4.0907,4.155,4.2101,4.2749,4.3338,4.3339,4.4553,4.571,4.6182,4.7498,4.8458,4.9003,4.8584,4.8712,4.8769,4.859,4.8917,5.0129,5.1141,5.2097,5.29,5.3205,5.3306,5.3306,5.3374,5.3475,5.3509,5.3509,5.3509,5.3509,5.3856,5.4389,5.5099,5.5809,5.6461,5.7239,5.7654,5.7798,5.7866,5.79,5.79,5.79,5.79,5.79,5.79,5.79,5.79,5.79,5.79,5.79,5.8026,5.7958,5.79,5.79,5.79,5.79,5.7934,5.8389,5.8819,5.9158,5.9496,5.9834,6.025,6.0655,6.1071,6.1105,6.096,6.0858,6.0699,6.0791,6.1197,6.1366,6.1366,6.1569,6.1646,6.1376,6.1071,6.08,6.0779,6.0732,6.0618,6.0415,6.0406,6.0627,6.0723,6.097,6.0757,6.0791,6.0723,6.0834,6.11,6.1458,6.1956,6.2221,6.2172,6.23,6.2591,6.3055,6.3227,6.3936,6.4818,6.4843,6.4762,3.9412,3.9412,3.9412,3.9412,3.9412,3.9412,3.9412,3.9412,3.9412,3.964,4.0127,4.0307,4.1064,4.2071,4.2321,4.281,4.311,4.3556,4.4619,4.5548,4.6331,4.749,4.8361,4.8861,4.8233,4.7713,4.7663,4.8134,4.8544,5.0026,5.1995,5.3069,5.334,5.3475,5.3509,5.3509,5.3509,5.3509,5.3509,5.3509,5.3543,5.3577,5.4025,5.4668,5.5437,5.6147,5.6891,5.7518,5.7832,5.79,5.79,5.79,5.79,5.79,5.79,5.79,5.79,5.79,5.79,5.79,5.7924,5.8127,5.8389,5.8287,5.8094,5.8035,5.8069,5.817,5.8263,5.8693,5.9302,5.9699,6.0139,6.0689,6.1095,6.1477,6.1815,6.1748,6.1612,6.1579,6.1409,6.1477,6.1873,6.1941,6.1985,6.2255,6.2289,6.2018,6.1782,6.1477,6.1342,6.1303,6.1342,6.1244,6.151,6.1782,6.1782,6.1782,6.1545,6.1443,6.1612,6.1791,6.199,6.2159,6.2275,6.2333,6.2347,6.2595,6.2838,6.2634,6.2789,6.3544,6.4148,6.4165,6.4201,3.9412,3.9412,3.9412,3.9412,3.9412,3.9412,3.9412,3.9412,3.9412,3.9759,4.0397,4.0696,4.1373,4.2311,4.2661,4.297,4.3309,4.3898,4.4865,4.588,4.6506,4.7721,4.8545,4.8553,4.7868,4.7237,4.7173,4.7738,4.8513,5.0557,5.2672,5.3374,5.3509,5.3509,5.3509,5.3509,5.3509,5.3509,5.3509,5.3509,5.3577,5.378,5.4363,5.5006,5.5741,5.6452,5.7103,5.7721,5.7832,5.79,5.79,5.79,5.79,5.79,5.79,5.79,5.79,5.79,5.7934,5.8254,5.8287,5.8524,5.8998,5.9133,5.9066,5.8998,5.8973,5.8973,5.8973,5.9142,5.9742,6.0351,6.0994,6.1637,6.1975,6.2323,6.2391,6.2391,6.2357,6.2357,6.2323,6.2289,6.2391,6.2424,6.2424,6.2424,6.2424,6.2323,6.2188,6.2086,6.2018,6.1975,6.211,6.2148,6.2424,6.2424,6.2255,6.2154,6.212,6.212,6.2424,6.24,6.2275,6.2309,6.2391,6.2492,6.2618,6.2821,6.2971,6.2854,6.3,6.3815,6.4058,6.353,6.3597,3.9412,3.9412,3.9412,3.9412,3.9412,3.9412,3.9412,3.9412,3.9502,3.9879,4.0556,4.1184,4.1852,4.2591,4.299,4.319,4.3596,4.4157,4.5079,4.6191,4.6722,4.7704,4.812,4.7933,4.7244,4.7235,4.7358,4.7455,4.9141,5.1187,5.2942,5.3475,5.3509,5.3509,5.3509,5.3509,5.3509,5.3509,5.3644,5.3788,5.3847,5.4262,5.4972,5.5733,5.6409,5.7061,5.762,5.79,5.79,5.79,5.79,5.79,5.79,5.79,5.79,5.79,5.79,5.806,5.822,5.8583,5.8912,5.9259,5.9766,6.0047,6.0047,5.9708,5.9607,5.9573,5.9573,5.9911,6.0486,6.0781,6.1322,6.1839,6.2255,6.2424,6.2424,6.2424,6.2424,6.2424,6.2424,6.2424,6.2424,6.2424,6.2424,6.2424,6.2424,6.2424,6.2424,6.2424,6.2424,6.2424,6.2424,6.2424,6.2424,6.2424,6.2424,6.2391,6.2424,6.2424,6.2424,6.2424,6.2434,6.2608,6.2815,6.2811,6.2912,6.325,6.3589,6.3632,6.3869,6.4343,6.4183,6.3663,6.3567,3.9412,3.9412,3.9412,3.9412,3.9412,3.9412,3.9412,3.9451,3.9939,4.0516,4.1194,4.1852,4.2471,4.298,4.318,4.329,4.3547,4.4339,4.531,4.5921,4.6514,4.7138,4.7597,4.6994,4.6532,4.6196,4.6363,4.7532,4.9588,5.1707,5.3239,5.3475,5.3509,5.3509,5.3509,5.3509,5.3509,5.3509,5.3991,5.4228,5.4397,5.46,5.5108,5.608,5.69,5.7239,5.7688,5.79,5.79,5.79,5.79,5.79,5.79,5.79,5.79,5.79,5.7967,5.822,5.8616,5.9013,5.9419,5.9969,6.0452,6.0825,6.0825,6.0375,6.0172,6.0182,6.0351,6.0791,6.1119,6.1322,6.1559,6.2009,6.2424,6.2424,6.2424,6.2424,6.2424,6.2424,6.2424,6.2424,6.2424,6.2424,6.2424,6.2424,6.2424,6.2424,6.2424,6.2424,6.2424,6.2424,6.2424,6.2424,6.2424,6.2424,6.2424,6.2424,6.2424,6.2424,6.2424,6.2565,6.272,6.3085,6.3306,6.3373,6.3606,6.4106,6.4343,6.441,6.4647,6.5053,6.5033,6.4609,6.4403,3.9412,3.9412,3.9412,3.9412,3.9412,3.9412,3.958,3.993,4.0556,4.1214,4.1832,4.2251,4.2741,4.324,4.33,4.329,4.3497,4.4348,4.493,4.547,4.6032,4.648,4.6468,4.6078,4.5939,4.5706,4.712,4.8666,5.0413,5.2145,5.3475,5.3509,5.3509,5.3509,5.3509,5.3509,5.3509,5.3543,5.427,5.4744,5.504,5.5446,5.5818,5.6731,5.7137,5.7485,5.7654,5.79,5.79,5.79,5.79,5.79,5.79,5.79,5.79,5.8026,5.8229,5.8558,5.9056,5.9588,6.0071,6.0689,6.1308,6.1714,6.1782,6.14,6.1366,6.1376,6.1376,6.1738,6.1782,6.1941,6.2009,6.2289,6.2391,6.2424,6.2424,6.2424,6.2424,6.2424,6.2424,6.2424,6.2424,6.2424,6.2424,6.2424,6.2424,6.2424,6.2424,6.2424,6.2424,6.2424,6.2424,6.2424,6.2424,6.2424,6.2424,6.2424,6.2424,6.2424,6.2502,6.2784,6.3074,6.3521,6.3873,6.4106,6.4416,6.4867,6.5053,6.5131,6.5392,6.5719,6.562,6.5563,6.5613,3.9412,3.9412,3.9412,3.9412,3.9412,3.9412,3.975,4.0427,4.1094,4.1742,4.2321,4.2461,4.286,4.316,4.329,4.329,4.3625,4.4387,4.4762,4.507,4.5615,4.585,4.5651,4.5244,4.5364,4.6528,4.8148,4.9633,5.1247,5.2731,5.3509,5.3509,5.3509,5.3509,5.3509,5.3509,5.3509,5.3754,5.4329,5.5065,5.5708,5.6418,5.6731,5.7103,5.7485,5.7866,5.79,5.79,5.79,5.79,5.79,5.79,5.79,5.79,5.8094,5.822,5.8583,5.9022,5.9588,6.0477,6.0984,6.1535,6.211,6.2357,6.2323,6.2323,6.2289,6.2289,6.2289,6.2289,6.2323,6.2323,6.2357,6.2391,6.2391,6.2424,6.2424,6.2424,6.2424,6.2424,6.2424,6.2424,6.2424,6.2424,6.2424,6.2424,6.2424,6.2424,6.2424,6.2424,6.2424,6.2424,6.2424,6.2424,6.2424,6.2424,6.2424,6.2424,6.2424,6.2458,6.2589,6.2992,6.3457,6.4028,6.439,6.478,6.5169,6.5564,6.573,6.5774,6.6,6.6237,6.6354,6.6421,6.6831,3.9412,3.9412,3.9412,3.9412,3.9412,3.9412,3.9789,4.0427,4.1134,4.1762,4.2421,4.293,4.324,4.329,4.329,4.3309,4.3458,4.4234,4.4662,4.4943,4.493,4.5005,4.5107,4.5068,4.5304,4.6821,4.8767,5.0189,5.1667,5.287,5.3509,5.3509,5.3509,5.3509,5.3509,5.3509,5.3577,5.3923,5.4735,5.5564,5.5843,5.6452,5.7103,5.7485,5.7832,5.79,5.79,5.79,5.79,5.79,5.79,5.79,5.79,5.7934,5.8152,5.8592,5.8989,5.9689,6.0375,6.1052,6.1569,6.2009,6.2391,6.2391,6.2391,6.2391,6.2357,6.2357,6.2357,6.2357,6.2391,6.2391,6.2391,6.2391,6.2424,6.2424,6.2424,6.2424,6.2424,6.2424,6.2424,6.2458,6.2516,6.2526,6.2526,6.2526,6.2458,6.2492,6.2594,6.2526,6.2458,6.2458,6.2468,6.2424,6.2424,6.2424,6.2424,6.2424,6.2526,6.2729,6.2981,6.3269,6.3772,6.4556,6.5187,6.5633,6.6031,6.6159,6.6328,6.6396,6.6531,6.6721,6.6896,6.6925,6.7061]},{"header":{"parameterUnit":"m.s-1","parameterCategory":1,"la1":31.0,"la2":29.5877,"lo1":-88.7671,"lo2":-86.6584,"dy":0.0162,"dx":0.0185,"nx":115,"ny":88,"refTime":"2025-11-07T00:00:00:Z","depth":0,"parameterNumber":3,"parameterNumberName":"V-component_of_WINDS"},"data":[0.0,0.0,0.0,0.0,0.0,0.0,0.0,0.0,0.0,0.0,0.0,0.0,0.0,0.0,0.0,0.0,0.0,0.0,0.0,0.0,0.0,0.0,0.0,0.0,0.0,0.0,0.0,0.0,0.0,0.0,0.0,0.0,0.0,0.0,0.0,0.0,0.0,0.0,0.0,0.0,0.0,0.0,0.0,0.0,0.0,0.0,0.0,0.0,0.0,0.0,0.0,0.0,0.0,0.0,0.0,0.0,0.0,0.0,0.0,0.0,0.0,0.0,0.0,0.0,0.0,0.0,0.0,0.0,0.0,0.0,0.0,0.0,0.0,0.0,0.0,0.0,0.0,0.0,0.0,0.0,0.0,0.0,0.0,0.0,0.0,0.0,0.0,0.0,0.0,0.0,0.0,0.0,0.0,0.0,0.0,0.0,0.0,0.0,0.0,0.0,0.0,0.0,0.0,0.0,0.0,0.0,0.0,0.0,0.0,0.0,0.0,0.0,0.0,0.0,0.0,0.0,0.0,0.0,0.0,0.0,0.0,0.0,0.0,0.0,0.0,0.0,0.0,0.0,0.0,0.0,0.0,0.0,0.0,0.0,0.0,0.0,0.0,0.0,0.0,0.0,0.0,0.0,0.0,0.0,0.0,0.0,0.0,0.0,0.0,0.0,0.0,0.0,0.0,0.0,0.0,0.0,0.0,0.0,0.0,0.0,0.0,0.0,0.0,0.0,0.0,0.0,0.0,0.0,0.0,0.0,0.0,0.0,0.0,0.0,0.0,0.0,0.0,0.0,0.0,0.0,0.0,0.0,0.0,0.0,0.0,0.0,0.0,0.0,0.0,0.0,0.0,0.0,0.0,0.0,0.0,0.0,0.0,0.0,0.0,0.0,0.0,0.0,0.0,0.0,0.0,0.0,0.0,0.0,0.0,0.0,0.0,0.0,0.0,0.0,0.0,0.0,0.0,0.0,0.0,0.0,0.0,0.0,0.0,0.0,0.0,0.0,0.0,0.0,0.0,0.0,0.0,0.0,0.0,0.0,0.0,0.0,0.0,0.0,0.0,0.0,0.0,0.0,0.0,0.0,0.0,0.0,0.0,0.0,0.0,0.0,0.0,0.0,0.0,0.0,0.0,0.0,0.0,0.0,0.0,0.0,0.0,0.0,0.0,0.0,0.0,0.0,0.0,0.0,0.0,0.0,0.0,0.0,0.0,0.0,0.0,0.0,0.0,0.0,0.0,0.0,0.0,0.0,0.0,0.0,0.0,0.0,0.0,0.0,0.0,0.0,0.0,0.0,0.0,0.0,0.0,0.0,0.0,0.0,0.0,0.0,0.0,0.0,0.0,0.0,0.0,0.0,0.0,0.0,0.0,0.0,0.0,0.0,0.0,0.0,0.0,0.0,0.0,0.0,0.0,0.0,0.0,0.0,0.0,0.0,0.0,0.0,0.0,0.0,0.0,0.0,0.0,0.0,0.0,0.0,0.0,0.0,0.0,0.0,0.0,0.0,0.0,0.0,0.0,0.0,0.0,0.0,0.0,0.0,0.0,0.0,0.0,0.0,0.0,0.0,0.0,0.0,0.0,0.0,0.0,0.0,0.0,0.0,0.0,0.0,0.0,0.0,0.0,0.0,0.0,0.0,0.0,0.0,0.0,0.0,0.0,0.0,0.0,0.0,0.0,0.0,0.0,0.0,0.0,0.0,0.0,0.0,0.0,0.0,0.0,0.0,0.0,0.0,0.0,0.0,0.0,0.0,0.0,0.0,0.0,0.0,0.0,0.0,0.0,0.0,0.0,0.0,0.0,0.0,0.0,0.0,0.0,0.0,0.0,0.0,0.0,0.0,0.0,0.0,0.0,0.0,0.0,0.0,0.0,0.0,0.0,0.0,0.0,0.0,0.0,0.0,0.0,0.0,0.0,0.0,0.0,0.0,0.0,0.0,0.0,0.0,0.0,0.0,0.0,0.0,0.0,0.0,0.0,0.0,0.0,0.0,0.0,0.0,0.0,0.0,0.0,0.0,0.0,0.0,0.0,0.0,0.0,0.0,0.0,0.0,0.0,0.0,0.0,0.0,0.0,0.0,0.0,0.0,0.0,0.0,0.0,0.0,0.0,0.0,0.0,0.0,0.0,0.0,0.0,0.0,0.0,0.0,0.0,0.0,0.0,0.0,0.0,0.0,0.0,0.0,0.0,0.0,0.0,0.0,0.0,0.0,0.0,0.0,0.0,0.0,0.0,0.0,0.0,0.0,0.0,0.0,0.0,0.0,0.0,0.0,0.0,0.0,0.0,0.0,0.0,0.0,0.0,0.0,0.0,0.0,0.0,0.0,0.0,0.0,0.0,0.0,0.0,0.0,0.0,0.0,0.0,0.0,0.0,0.0,0.0,0.0,0.0,0.0,0.0,0.0,0.0,0.0,0.0,0.0,0.0,0.0,0.0,0.0,0.0,0.0,0.0,0.0,0.0,0.0,0.0,0.0,0.0,0.0,0.0,0.0,0.0,0.0,0.0,0.0,0.0,0.0,0.0,0.0,0.0,0.0,0.0,0.0,0.0,0.0,0.0,0.0,0.0,0.0,0.0,0.0,0.0,0.0,0.0,0.0,0.0,0.0,0.0,0.0,0.0,0.0,0.0,0.0,0.0,0.0,0.0,0.0,0.0,0.0,0.0,0.0,0.0,0.0,0.0,0.0,0.0,0.0,0.0,0.0,0.0,0.0,0.0,0.0,0.0,0.0,0.0,0.0,0.0,0.0,0.0,0.0,0.0,0.0,0.0,0.0,0.0,0.0,0.0,0.0,0.0,0.0,0.0,0.0,0.0,0.0,0.0,0.0,0.0,0.0,0.0,0.0,0.0,0.0,0.0,0.0,0.0,0.0,0.0,0.0,0.0,0.0,0.0,0.0,0.0,0.0,0.0,0.0,0.0,0.0,0.0,0.0,0.0,0.0,0.0,0.0,0.0,0.0,0.0,0.0,0.0,0.0,0.0,0.0,0.0,0.0,0.0,0.0,0.0,0.0,0.0,0.0,0.0,0.0,0.0,0.0,0.0,0.0,0.0,0.0,0.0,0.0,0.0,0.0,0.0,0.0,0.0,0.0,0.0,0.0,0.0,0.0,0.0,0.0,0.0,0.0,0.0,0.0,0.0,0.0,0.0,0.0,0.0,0.0,0.0,0.0,0.0,0.0,0.0,0.0,0.0,0.0,0.0,0.0,0.0,0.0,0.0,0.0,0.0,0.0,0.0,0.0,0.0,0.0,0.0,0.0,0.0,0.0,0.0,0.0,0.0,0.0,0.0,0.0,0.0,0.0,0.0,0.0,0.0,0.0,0.0,0.0,0.0,0.0,0.0,0.0,0.0,0.0,0.0,0.0,0.0,0.0,0.0,0.0,0.0,0.0,0.0,0.0,0.0,0.0,0.0,0.0,0.0,0.0,0.0,0.0,0.0,0.0,0.0,0.0,0.0,0.0,0.0,0.0,0.0,0.0,0.0,0.0,0.0,0.0,0.0,0.0,0.0,0.0,0.0,0.0,0.0,0.0,0.0,0.0,0.0,0.0,0.0,0.0,0.0,0.0,0.0,0.0,0.0,0.0,0.0,0.0,0.0,0.0,0.0,0.0,0.0,0.0,0.0,0.0,0.0,0.0,0.0,0.0,0.0,0.0,0.0,0.0,0.0,0.0,0.0,0.0,0.0,0.0,0.0,0.0,0.0,0.0,0.0,0.0,0.0,0.0,0.0,0.0,0.0,0.0,0.0,0.0,0.0,0.0,0.0,0.0,0.0,0.0,0.0,0.0,0.0,0.0,0.0,0.0,0.0,0.0,0.0,0.0,0.0,0.0,0.0,0.0,0.0,0.0,0.0,0.0,0.0,0.0,0.0,0.0,0.0,0.0,0.0,0.0,0.0,0.0,0.0,0.0,0.0,0.0,0.0,0.0,0.0,0.0,0.0,0.0,0.0,0.0,0.0,0.0,0.0,0.0,0.0,0.0,0.0,0.0,0.0,0.0,0.0,0.0,0.0,0.0,0.0,0.0,0.0,0.0,0.0,0.0,0.0,0.0,0.0,0.0,0.0,0.0,0.0,0.0,0.0,0.0,0.0,0.0,0.0,0.0,0.0,0.0,0.0,0.0,0.0,0.0,0.0,0.0,0.0,0.0,0.0,0.0,0.0,0.0,0.0,0.0,0.0,0.0,0.0,0.0,0.0,0.0,0.0,0.0,0.0,0.0,0.0,0.0,0.0,0.0,0.0,0.0,0.0,0.0,0.0,0.0,1.0181,0.0,0.0,0.0,0.0,0.0,0.0,0.0,0.0,0.0,0.0,0.0,0.0,0.0,0.0,0.0,0.0,0.0,0.0,0.0,0.0,0.0,0.0,0.0,0.0,0.0,0.0,0.0,0.0,0.0,0.0,0.0,0.0,0.0,0.0,0.0,0.0,0.0,0.0,0.0,0.0,0.0,0.0,0.0,0.0,0.0,0.0,0.0,0.0,0.0,0.0,0.0,0.0,0.0,0.0,0.0,0.0,0.0,0.0,0.0,0.0,0.0,0.0,0.0,0.0,0.0,0.0,0.0,0.0,0.0,0.0,0.0,0.0,0.0,0.0,0.0,0.0,0.0,0.0,0.0,0.0,0.0,0.0,0.0,0.0,0.0,0.0,0.0,0.0,0.0,0.0,0.0,0.0,0.0,0.0,0.0,0.0,0.0,0.0,0.0,0.0,0.0,0.0,0.0,0.0,0.0,0.0,0.0,0.0,0.0,0.0,1.0307,1.0307,1.0307,1.0307,1.0307,0.0,0.0,0.0,0.0,0.0,0.0,0.0,0.0,0.0,0.0,0.0,0.0,0.0,0.0,0.0,0.0,0.0,0.0,0.0,0.0,0.0,0.0,0.0,0.0,0.0,0.0,0.0,0.0,0.0,0.0,0.0,0.0,0.0,0.0,0.0,0.0,0.0,0.0,0.0,0.0,0.0,0.0,0.0,0.0,0.0,0.0,0.0,0.0,0.0,0.0,0.0,0.0,0.0,0.0,0.0,0.0,0.0,0.0,0.0,0.0,0.0,0.0,0.0,0.0,0.0,0.0,0.0,0.0,0.0,0.0,0.0,0.0,0.0,0.0,0.0,0.0,0.0,0.0,0.0,0.0,0.0,0.0,0.0,0.0,0.0,0.0,0.0,0.0,0.0,0.0,0.0,0.0,0.0,0.0,0.0,0.0,0.0,0.0,0.0,0.0,0.0,0.0,0.0,0.0,0.0,0.0,0.0,0.0,0.0,0.0,0.0,0.0,1.0307,1.0307,1.0307,0.0,0.0,0.0,0.0,0.0,0.0,0.0,0.0,0.0,0.0,0.0,0.0,0.0,0.0,0.0,0.0,0.0,0.0,0.0,0.0,0.0,0.0,0.0,0.0,0.0,0.0,0.0,0.0,0.0,0.0,0.0,0.0,0.0,0.0,0.0,0.0,0.0,0.0,0.0,0.0,0.0,0.0,0.0,0.0,0.0,0.0,0.0,0.0,0.0,0.0,0.0,0.0,0.0,0.0,0.0,0.0,0.0,0.0,0.0,0.0,0.0,0.0,0.0,0.0,0.0,0.0,0.0,0.0,0.0,0.0,0.0,0.0,0.0,0.0,0.0,0.0,0.0,0.0,0.0,0.0,0.0,0.0,0.0,0.0,0.0,0.0,0.0,0.0,0.0,0.0,0.0,0.0,0.0,0.0,0.0,0.0,0.0,0.0,0.0,0.0,0.0,0.0,0.0,0.0,0.0,0.0,0.0,0.0,0.0,0.0,1.0307,1.0307,1.0307,0.0,1.0307,0.0,0.0,0.0,0.0,0.0,0.0,0.0,0.0,0.0,0.0,0.0,0.0,0.0,0.0,0.0,0.0,0.0,0.0,0.0,0.0,0.0,0.0,0.0,0.0,0.0,0.0,0.0,0.0,0.0,0.0,0.0,0.0,0.0,0.0,0.0,0.0,0.0,0.0,0.0,0.0,0.0,0.0,0.0,0.0,0.0,0.0,0.0,0.0,0.0,0.0,0.0,0.0,0.0,0.0,0.0,0.0,0.0,0.0,0.0,0.0,0.0,0.0,0.0,0.0,0.0,0.0,0.0,0.0,0.0,0.0,0.0,0.0,0.0,0.0,0.0,0.0,0.0,0.0,0.0,0.0,0.0,0.0,0.0,0.0,0.0,0.0,0.0,0.0,0.0,0.0,0.0,0.0,0.0,0.0,0.0,0.0,0.0,0.0,0.0,0.0,0.0,0.0,0.0,0.0,0.0,0.0,0.0,0.0,0.0,0.0,0.0,1.0307,1.0307,1.0307,0.0,0.0,0.0,0.0,0.0,0.0,0.0,0.0,0.0,0.0,0.0,0.0,0.0,0.0,0.0,0.0,0.0,0.0,0.0,0.0,0.0,0.0,0.0,0.0,0.0,0.0,0.0,0.0,0.0,0.0,0.0,0.0,0.0,0.0,0.0,0.0,0.0,0.0,0.0,0.0,0.0,0.0,0.0,0.0,0.0,0.0,0.0,0.0,0.0,0.0,0.0,0.0,0.0,0.0,0.0,0.0,0.0,0.0,0.0,0.0,0.0,0.0,0.0,0.0,0.0,0.0,0.0,0.0,0.0,0.0,0.0,0.0,0.0,0.0,0.0,0.0,0.0,0.0,0.0,0.0,0.0,0.0,0.0,0.0,0.0,0.0,0.0,0.0,0.0,0.0,0.0,0.0,0.0,0.0,0.0,0.0,0.0,0.0,0.0,0.0,0.0,0.0,0.0,0.0,0.0,0.0,0.0,0.0,0.0,0.0,1.0405,0.0,1.0464,1.0459,1.042,1.0322,0.0,0.0,0.0,0.0,0.0,0.0,0.0,0.0,0.0,0.0,0.0,0.0,0.0,0.0,0.0,0.0,0.0,0.0,0.0,0.0,0.0,0.0,0.0,0.0,0.0,0.0,0.0,0.0,0.0,0.0,0.0,0.0,0.0,0.0,0.0,0.0,0.0,0.0,0.0,0.0,0.0,0.0,0.0,0.0,0.0,0.0,0.0,0.0,0.0,0.0,0.0,0.0,0.0,0.0,0.0,0.0,0.0,0.0,0.0,0.0,0.0,0.0,0.0,0.0,0.0,0.0,0.0,0.0,0.0,0.0,0.0,0.0,0.0,0.0,0.0,0.0,0.0,0.0,0.0,0.0,0.0,0.0,0.0,0.0,0.0,0.0,0.0,0.0,0.0,0.0,0.0,0.0,0.0,0.0,0.0,0.0,0.0,0.0,0.0,0.0,0.0,0.0,0.0,0.0,0.0,0.0,0.0,0.0,0.0,1.0673,1.0863,1.0869,1.0874,1.0694,0.0,0.0,0.0,0.0,0.0,0.0,0.0,0.0,0.0,0.0,0.0,0.0,0.0,0.0,0.0,0.0,0.0,0.0,0.0,0.0,0.0,0.0,0.0,0.0,0.0,0.0,0.0,0.0,0.0,0.0,0.0,0.0,0.0,0.0,0.0,0.0,0.0,0.0,0.0,0.0,0.0,0.0,0.0,0.0,0.0,0.0,0.0,0.0,0.0,0.0,0.0,0.0,0.0,0.0,0.0,0.0,0.0,0.0,0.0,0.0,0.0,0.0,0.0,0.0,0.0,0.0,0.0,0.0,0.0,0.0,0.0,0.0,0.0,0.0,0.0,0.0,0.0,0.0,0.0,0.0,0.0,0.0,0.0,0.0,0.0,0.0,0.0,0.0,0.0,0.0,0.0,0.0,0.0,0.0,0.0,0.0,0.0,0.0,0.0,0.0,0.0,0.0,0.0,0.0,0.0,0.0,0.0,0.0,0.0,1.0679,1.1124,1.1202,1.0913,1.0888,1.0693,0.0,0.0,0.0,0.0,0.0,0.0,0.0,0.0,0.0,0.0,0.0,0.0,0.0,0.0,0.0,0.0,0.0,0.0,0.0,0.0,0.0,0.0,0.0,0.0,0.0,0.0,0.0,0.0,0.0,0.0,0.0,0.0,0.0,0.0,0.0,0.0,0.0,0.0,0.0,0.0,0.0,0.0,0.0,0.0,0.0,0.0,0.0,0.0,0.0,0.0,0.0,0.0,0.0,0.0,0.0,0.0,0.0,0.0,0.0,0.0,0.0,0.0,0.0,0.0,0.0,0.0,0.0,0.0,0.0,0.0,0.0,0.0,0.0,0.0,0.0,0.0,0.0,0.0,0.0,0.0,0.0,0.0,0.0,0.0,0.0,0.0,0.0,0.0,0.0,0.0,0.0,0.0,0.0,0.0,0.0,0.0,0.0,0.0,0.0,0.0,0.0,0.0,0.0,0.0,0.0,0.0,0.0,0.0,0.0,1.1124,0.0,1.1657,0.0,1.1181,1.0928,0.0,0.0,0.0,0.0,0.0,0.0,0.0,0.0,0.0,0.0,0.0,0.0,0.0,0.0,0.0,0.0,0.0,0.0,0.0,0.0,0.0,0.0,0.0,0.0,0.0,0.0,0.0,0.0,0.0,0.0,0.0,0.0,0.0,0.0,0.0,0.0,0.0,0.0,0.0,0.0,0.0,0.0,0.0,0.0,0.0,0.0,0.0,0.0,0.0,0.0,0.0,0.0,0.0,0.0,0.0,0.0,0.0,0.0,0.0,0.0,0.0,0.0,0.0,0.0,0.0,0.0,0.0,0.0,0.0,0.0,0.0,0.0,0.0,0.0,0.0,0.0,0.0,0.0,0.0,0.0,0.0,0.0,0.0,0.0,0.0,0.0,0.0,0.0,0.0,0.0,0.0,0.0,0.0,0.0,0.0,0.0,0.0,0.0,0.0,0.0,0.0,0.0,0.0,0.0,0.0,0.0,0.0,0.0,1.0743,1.1576,1.1986,1.2184,1.2178,1.178,1.1369,0.0,0.0,0.0,0.0,0.0,0.0,0.0,0.0,0.0,0.0,0.0,0.0,0.0,0.0,0.0,0.0,0.0,0.0,0.0,0.0,0.0,0.0,0.0,0.0,0.0,0.0,0.0,0.0,0.0,0.0,0.0,0.0,0.0,0.0,0.0,0.0,0.0,0.0,0.0,0.0,0.0,0.0,0.0,0.0,0.0,0.0,0.0,0.0,0.0,0.0,0.0,0.0,0.0,0.0,0.0,0.0,0.0,0.0,0.0,0.0,0.0,0.0,0.0,0.0,0.0,0.0,0.0,0.0,0.0,0.0,0.0,0.0,0.0,0.0,0.0,0.0,0.0,0.0,0.0,0.0,0.0,0.0,0.0,0.0,0.0,0.0,0.0,0.0,0.0,0.0,0.0,0.0,0.0,0.0,0.0,0.0,0.0,0.0,0.0,0.0,0.0,0.0,0.0,0.0,0.0,0.0,0.0,0.0,0.0,1.2012,1.2461,1.2514,1.2203,1.1808,1.1389,0.0,0.0,0.0,0.0,0.0,0.0,0.0,0.0,0.0,0.0,0.0,0.0,0.0,0.0,0.0,0.0,0.0,0.0,0.0,0.0,0.0,0.0,0.0,0.0,0.0,0.0,0.0,0.0,0.0,0.0,0.0,0.0,0.0,0.0,0.0,0.0,0.0,0.0,0.0,0.0,0.0,0.0,0.0,0.0,0.0,0.0,0.0,0.0,0.0,0.0,0.0,0.0,0.0,0.0,0.0,0.0,0.0,0.0,0.0,0.0,0.0,0.0,0.0,0.0,0.0,0.0,0.0,0.0,0.0,0.0,0.0,0.0,0.0,0.0,0.0,0.0,0.0,0.0,0.0,0.0,0.0,0.0,0.0,0.0,0.0,0.0,0.0,0.0,0.0,0.0,0.0,0.0,0.0,0.0,0.0,0.0,0.0,0.0,0.0,0.0,0.0,0.0,0.0,0.0,0.0,0.0,0.0,0.0,0.0,1.2455,1.274,1.2754,1.2463,1.2051,1.1618,1.1163,0.0,0.0,0.0,0.0,0.0,0.0,0.0,0.0,0.0,0.0,0.0,0.0,0.0,0.0,0.0,0.0,0.0,0.0,0.0,0.0,0.0,0.0,0.0,0.0,0.0,0.0,0.0,0.0,0.0,0.0,0.0,0.0,0.0,0.0,0.0,0.0,0.0,0.0,0.0,0.0,0.0,0.0,0.0,0.0,0.0,0.0,0.0,0.0,0.0,0.0,0.0,0.0,0.0,0.0,0.0,0.0,0.0,0.0,0.0,0.0,0.0,0.0,0.0,0.0,0.0,0.0,0.0,0.0,0.0,0.0,0.0,0.0,0.0,0.0,0.0,0.0,0.0,0.0,0.0,0.0,0.0,0.0,0.0,0.0,0.0,0.0,0.0,0.0,0.0,0.0,0.0,0.0,0.0,0.0,0.0,0.0,0.0,0.0,0.0,0.0,0.0,0.0,0.0,0.0,0.0,0.0,0.0,0.0,1.2895,1.2915,1.2915,1.2864,1.2436,1.202,0.0,0.0,0.0,0.0,0.0,0.0,0.0,0.0,0.0,0.0,0.0,0.0,0.0,0.0,0.0,0.0,0.0,0.0,0.0,0.0,0.0,0.0,0.0,0.0,0.0,0.0,0.0,0.0,0.0,0.0,0.0,0.0,0.0,0.0,0.0,0.0,0.0,0.0,0.0,0.0,0.0,0.0,0.0,0.0,0.0,0.0,0.0,0.0,0.0,0.0,0.0,0.0,0.0,0.0,0.0,0.0,0.0,0.0,0.0,0.0,0.0,0.0,0.0,0.0,0.0,0.0,0.0,0.0,0.0,0.0,0.0,0.0,0.0,0.0,0.0,0.0,0.0,0.0,0.0,0.0,0.0,0.0,0.0,0.0,0.0,0.0,0.0,0.0,0.0,0.0,0.0,0.0,0.0,0.0,0.0,0.0,0.0,0.0,0.0,0.0,0.0,0.0,0.0,0.0,0.0,0.0,0.0,0.0,0.0,1.2889,1.2915,1.2915,1.2883,1.2443,1.2139,0.0,0.0,0.0,0.0,0.0,0.0,0.0,0.0,0.0,0.0,0.0,0.0,0.0,0.0,0.0,0.0,0.0,0.0,0.0,0.0,0.0,0.0,0.0,0.0,0.0,0.0,0.0,0.0,0.0,0.0,0.0,0.0,0.0,0.0,0.0,0.0,0.0,0.0,0.0,0.0,0.0,0.0,0.0,0.0,0.0,0.0,0.0,0.0,0.0,0.0,0.0,0.0,0.0,0.0,0.0,0.0,0.0,0.0,0.0,0.0,0.0,0.0,0.0,0.0,0.0,0.0,0.0,0.0,0.0,0.0,0.0,0.0,0.0,0.0,0.0,0.0,0.0,0.0,0.0,0.0,0.0,0.0,0.0,0.0,0.0,0.0,0.0,0.0,0.0,0.0,0.0,0.0,0.0,0.0,0.0,0.0,0.0,0.0,0.0,0.0,0.0,0.0,0.0,0.0,0.0,0.0,0.0,0.0,1.2878,1.3131,1.3157,1.3151,1.3163,1.2728,1.2398,0.0,0.0,0.0,0.0,0.0,0.0,0.0,0.0,0.0,0.0,0.0,0.0,0.0,0.0,0.0,0.0,0.0,0.0,0.0,0.0,0.0,0.0,0.0,0.0,0.0,0.0,0.0,0.0,0.0,0.0,0.0,0.0,0.0,0.0,0.0,0.0,0.0,0.0,0.0,0.0,0.0,0.0,0.0,0.0,0.0,0.0,0.0,0.0,0.0,0.0,0.0,0.0,0.0,0.0,0.0,0.0,0.0,0.0,0.0,0.0,0.0,0.0,0.0,0.0,0.0,0.0,0.0,0.0,0.0,0.0,0.0,0.0,0.0,0.0,0.0,0.0,0.0,0.0,0.0,0.0,0.0,0.0,0.0,0.0,0.0,0.0,0.0,0.0,0.0,0.0,0.0,0.0,0.0,0.0,0.0,0.0,0.0,0.0,0.0,0.0,0.0,0.0,0.0,0.0,0.0,0.0,0.0,0.0,1.3503,1.3568,1.3568,1.3568,1.3542,1.3137,1.2695,0.0,0.0,0.0,0.0,0.0,0.0,0.0,0.0,0.0,0.0,0.0,0.0,0.0,0.0,0.0,0.0,0.0,0.0,0.0,0.0,0.0,0.0,0.0,0.0,0.0,0.0,0.0,0.0,0.0,0.0,0.0,0.0,0.0,0.0,0.0,0.0,0.0,0.0,0.0,0.0,0.0,0.0,0.0,0.0,0.0,0.0,0.0,0.0,0.0,0.0,0.0,0.0,0.0,0.0,0.0,0.0,0.0,0.0,0.0,0.0,0.0,0.0,0.0,0.0,0.0,0.0,0.0,0.0,0.0,0.0,0.0,0.0,0.0,0.0,0.0,0.0,0.0,0.0,0.0,0.0,0.0,0.0,0.0,0.0,0.0,0.0,0.0,0.0,0.0,0.0,0.0,0.0,0.0,0.0,0.0,0.0,0.0,0.0,0.0,0.0,0.0,0.0,0.0,0.0,0.0,0.0,0.0,0.0,1.3659,1.3951,1.3977,1.3977,1.3971,1.3281,1.285,0.0,0.0,0.0,0.0,0.0,0.0,0.0,0.0,0.0,0.0,0.0,0.0,0.0,0.0,0.0,0.0,0.0,0.0,0.0,0.0,0.0,0.0,0.0,0.0,0.0,0.0,0.0,0.0,0.0,0.0,0.0,0.0,0.0,0.0,0.0,0.0,0.0,0.0,0.0,0.0,0.0,0.0,0.0,0.0,0.0,0.0,0.0,0.0,0.8143,0.0,0.0,0.0,0.0,0.0,0.0,0.0,0.0,0.0,0.0,0.0,0.0,0.0,0.0,0.0,0.0,0.0,0.0,0.0,0.0,0.0,0.0,0.0,0.0,0.0,0.0,0.0,0.0,0.0,0.0,0.0,0.0,0.0,0.0,0.0,0.0,0.0,0.0,0.0,0.0,0.0,0.0,0.0,0.0,0.0,0.0,0.0,0.0,0.0,0.0,0.0,0.0,0.0,0.0,0.0,0.0,0.0,0.0,0.0,1.3977,1.44,1.4446,1.442,1.4407,1.3613,1.3184,0.0,0.0,0.0,0.0,0.0,0.0,0.0,0.0,0.0,0.0,0.0,0.0,0.0,0.0,0.0,0.0,0.0,0.0,0.0,0.0,0.0,0.0,0.0,0.0,0.0,0.0,0.0,0.0,0.0,0.0,0.0,0.0,0.0,0.0,0.0,0.0,0.0,0.0,0.0,0.0,0.0,0.0,0.0,0.0,0.0,0.0,0.0,0.0,0.0,0.0,0.0,0.0,0.0,0.0,0.0,0.0,0.0,0.0,0.0,0.0,0.0,0.0,0.0,0.0,0.0,0.0,0.0,0.0,0.0,0.0,0.0,0.0,0.0,0.0,0.0,0.0,0.0,0.0,0.0,0.0,0.0,0.0,0.0,0.0,0.0,0.0,0.0,0.0,0.0,0.0,0.0,0.0,0.0,0.0,0.0,0.0,0.0,0.0,0.0,0.0,0.0,0.0,0.0,0.0,0.0,0.0,0.0,1.3912,1.4361,1.487,1.4897,1.489,1.4877,1.4056,1.3613,1.3561,0.0,0.0,0.0,0.0,0.0,0.0,0.0,0.0,0.0,0.0,0.0,0.0,0.0,0.0,0.0,0.0,0.0,0.0,0.0,0.0,0.0,0.0,0.0,0.0,0.0,0.0,0.0,0.0,0.0,0.0,0.0,0.0,0.0,0.0,0.0,0.0,0.0,0.0,0.7596,0.8107,0.0,0.0,0.0,0.0,0.0,0.0,0.0,0.0,0.8844,0.0,0.0,0.0,0.0,0.0,0.0,0.0,0.0,0.0,0.0,0.0,0.0,0.0,0.0,0.0,0.0,0.0,0.0,0.0,0.0,0.0,0.0,0.0,0.0,0.0,0.0,0.0,0.0,0.0,0.0,0.0,0.0,0.0,0.0,0.0,0.0,0.0,0.0,0.0,0.0,0.0,0.0,0.0,0.0,0.0,0.0,0.0,0.0,0.0,0.0,0.0,0.0,0.0,0.0,0.0,0.0,1.3964,1.4075,1.4491,1.5286,1.5305,1.5305,1.5286,1.4459,1.399,1.3945,0.0,0.0,0.0,0.0,0.0,0.0,0.0,0.0,0.0,0.0,0.0,0.0,0.0,0.0,0.0,0.0,0.0,0.0,0.0,0.0,0.0,0.0,0.0,0.0,0.0,0.0,0.0,0.0,0.0,0.0,0.0,0.0,0.0,0.0,0.0,0.0,0.0,0.0,0.0,0.8537,0.8744,0.0,0.0,0.0,0.0,0.0,0.0,0.0,0.0,0.8865,0.0,0.0,0.0,0.0,0.0,0.0,0.0,0.0,0.0,0.0,0.0,0.0,0.0,0.0,0.0,0.0,0.0,0.0,0.0,0.0,0.0,0.0,0.0,0.0,0.0,0.0,0.0,0.0,0.0,0.0,0.0,0.0,0.0,0.0,0.0,0.0,0.0,0.0,0.0,0.0,0.0,0.0,0.0,0.0,0.0,0.0,0.0,0.0,0.0,0.0,0.0,0.0,0.0,0.0,0.0,1.4062,1.4342,1.4759,1.5383,1.5403,1.5403,1.5383,1.4543,1.4107,0.0,0.0,0.0,0.0,0.0,0.0,0.0,0.0,0.0,0.0,0.0,0.0,0.0,0.0,0.0,0.0,0.0,0.0,0.0,0.0,0.0,0.0,0.0,0.0,0.0,0.0,0.0,0.0,0.0,0.0,0.0,0.0,0.0,0.0,0.0,0.0,0.0,0.0,0.0,0.0,0.8644,0.8785,0.8785,0.0,0.0,0.0,0.0,0.0,0.0,0.9309,0.9044,0.0,0.0,0.0,0.0,0.0,0.0,0.0,0.0,0.0,0.0,0.0,0.0,0.0,0.0,0.0,0.0,0.0,0.0,0.0,0.0,0.0,0.0,0.0,0.0,0.0,0.0,0.0,0.0,0.0,0.0,0.0,0.0,0.0,0.0,0.0,0.0,0.0,0.0,0.0,0.0,0.0,0.0,0.0,0.0,0.0,0.0,0.0,0.0,0.0,0.0,0.0,0.0,0.0,0.0,0.0,1.4114,1.4563,1.498,1.5376,1.5403,1.5403,1.5403,1.4555,1.4107,0.0,0.0,0.0,0.0,0.0,0.0,0.0,0.0,0.0,0.0,0.0,0.0,0.0,0.0,0.0,0.0,0.0,0.0,0.0,0.0,0.0,0.0,0.0,0.0,0.0,0.0,0.0,0.0,0.0,0.0,0.0,0.0,0.0,0.0,0.0,0.0,0.0,0.0,0.0,0.0,0.0,0.8864,0.8811,0.8858,0.0,0.0,0.0,0.0,0.9624,0.9463,0.0,0.0,0.0,0.0,0.0,0.0,0.0,0.0,0.0,0.0,0.0,0.0,0.0,0.0,0.0,0.0,0.0,0.0,0.0,0.0,0.0,0.0,0.0,0.0,0.0,0.0,0.0,0.0,0.0,0.0,0.0,0.0,0.0,0.0,0.0,0.0,0.0,0.0,0.0,0.0,0.0,0.0,0.0,0.0,0.0,0.0,0.0,0.0,0.0,0.0,0.0,0.0,0.0,0.0,0.0,0.0,1.4088,1.4563,1.5014,1.5391,1.5403,1.5403,1.5403,1.4569,1.4107,0.0,0.0,0.0,0.0,0.0,0.0,0.0,0.0,0.0,0.0,0.0,0.0,0.0,0.0,0.0,0.0,0.0,0.0,0.0,0.0,0.0,0.0,0.0,0.0,0.0,0.0,0.0,0.0,0.0,0.0,0.0,0.0,0.0,0.0,0.0,0.0,0.0,0.0,0.0,0.0,0.0,0.9078,0.8831,0.8998,0.9075,0.0,0.0,0.0,0.9647,0.967,0.0,0.0,0.0,0.0,0.0,0.0,0.0,0.0,0.0,0.0,0.0,0.0,0.0,0.0,0.0,0.0,0.0,0.0,0.0,0.0,0.0,0.0,0.0,0.0,0.0,0.0,0.0,0.0,0.0,0.0,0.0,0.0,0.0,0.0,0.0,0.0,0.0,0.0,0.0,0.0,0.0,0.0,0.0,0.0,0.0,0.0,0.0,0.0,0.0,0.0,0.0,0.0,0.0,0.0,0.0,1.4069,1.4505,1.519,1.5628,1.5769,1.5804,1.5671,1.5403,1.4624,1.4214,0.0,0.0,0.0,0.0,0.0,0.0,0.0,0.0,0.0,0.0,0.0,0.0,0.0,0.0,0.0,0.0,0.0,0.0,0.0,0.0,0.0,0.0,0.0,0.0,0.0,0.0,0.0,0.0,0.0,0.0,0.0,0.0,0.0,0.0,0.0,0.0,0.0,0.0,0.0,0.0,0.0,0.0,0.941,0.9525,0.0,0.0,0.0,0.9945,1.0162,0.0,0.0,0.0,0.0,0.0,0.0,0.0,0.0,0.0,0.0,0.0,0.0,0.0,0.0,0.0,0.0,0.0,0.0,0.0,0.0,0.0,0.0,0.0,0.0,0.0,0.0,0.0,0.0,0.0,0.0,0.0,0.0,0.0,0.0,0.0,0.0,0.0,0.0,0.0,0.0,0.0,0.0,0.0,0.0,0.0,0.0,0.0,0.0,0.0,0.0,0.0,0.0,0.0,0.0,0.0,0.0,0.0,1.4813,1.5764,1.6202,1.612,1.612,1.5948,1.5566,1.489,0.0,0.0,0.0,0.0,0.0,0.0,0.0,0.0,0.0,0.0,0.0,0.0,0.0,0.0,0.0,0.0,0.0,0.0,0.0,0.0,0.0,0.0,0.0,0.0,0.0,0.0,0.0,0.0,0.0,0.0,0.0,0.0,0.0,0.0,0.0,0.0,0.0,0.0,0.0,0.0,0.0,0.0,1.0165,1.0357,1.042,1.0161,0.0,0.0,1.056,1.0784,1.0746,1.06,0.0,0.0,0.0,0.0,0.0,0.0,0.0,0.0,0.0,0.0,0.0,0.0,0.0,0.0,0.0,0.0,0.0,0.0,0.0,0.0,0.0,0.0,0.0,0.0,0.0,0.0,0.0,0.0,0.0,0.0,0.0,0.0,0.0,0.0,0.0,0.0,0.0,0.0,0.0,0.0,0.0,0.0,0.0,0.0,0.0,0.0,0.0,0.0,0.0,0.0,0.0,0.0,0.0,0.0,0.0,1.4845,1.6028,1.65,1.6139,1.612,1.6073,1.6041,1.5409,1.4829,0.0,0.0,0.0,0.0,0.0,0.0,0.0,0.0,0.0,0.0,0.0,0.0,0.0,0.0,0.0,0.0,0.0,0.0,0.0,0.0,0.0,0.0,0.0,0.0,0.0,0.0,0.0,0.0,0.0,0.0,0.0,0.0,0.0,0.0,0.0,0.0,0.0,0.0,0.0,0.0,0.0,1.1919,1.1708,1.188,1.158,0.0,0.0,1.0921,1.1272,1.1149,1.0878,1.0613,0.0,0.0,0.0,0.0,0.0,0.0,0.0,0.0,0.0,0.0,0.0,0.0,0.0,0.0,0.0,0.0,0.0,0.0,0.0,0.0,0.0,0.0,0.0,0.0,0.0,0.0,0.0,0.0,0.0,0.0,0.0,0.0,0.0,0.0,0.0,0.0,0.0,0.0,0.0,0.0,0.0,0.0,0.0,0.0,0.0,0.0,0.0,0.0,0.0,0.0,0.0,0.0,0.0,1.5491,1.6513,1.7408,1.8056,1.8425,1.8448,1.8177,1.7584,1.7124,1.6323,0.0,0.0,0.0,0.0,0.0,0.0,0.0,0.0,0.0,0.0,0.0,0.0,0.0,0.0,0.0,0.0,0.0,0.0,0.0,0.0,0.0,0.0,0.0,0.0,0.0,0.0,0.0,0.0,0.9441,0.929,0.8807,0.0,0.0,0.0,0.0,0.0,0.0,0.0,0.0,0.0,0.0,1.1673,1.1734,1.2334,0.0,0.0,1.1745,1.2388,1.2003,1.1573,1.1147,1.0891,1.0744,0.0,0.0,0.0,0.0,0.0,0.0,0.0,0.0,0.0,0.0,0.0,0.0,0.0,0.0,0.0,0.0,0.0,0.0,0.0,0.0,0.0,0.0,0.0,0.0,0.0,0.0,0.0,0.0,0.0,0.0,0.0,0.0,0.0,0.0,0.0,0.0,0.0,0.0,0.0,0.0,0.0,0.0,0.0,0.0,0.0,0.0,0.0,0.0,0.0,0.0,0.0,0.0,1.6209,1.7642,1.8408,1.9166,1.9897,1.989,1.9395,1.8394,1.8046,1.7035,0.0,0.0,0.0,0.0,0.0,0.0,0.0,0.0,0.0,0.0,0.0,0.0,0.0,0.0,0.0,0.0,0.0,0.0,0.0,0.0,0.0,0.0,0.0,0.0,0.0,0.0,0.0,0.0,0.9533,0.9415,0.9241,0.0,0.0,0.0,0.0,0.0,0.0,0.0,0.0,0.0,0.0,1.2515,1.2822,1.3128,1.3274,1.3181,1.3195,1.3008,1.2394,1.1866,1.1454,1.1161,0.0,0.0,0.0,0.0,0.0,0.0,0.0,0.0,0.0,0.0,0.0,0.0,0.0,0.0,0.0,0.0,0.0,0.0,0.0,0.0,0.0,0.0,0.0,0.0,0.0,0.0,0.0,0.0,0.0,0.0,0.0,0.0,0.0,0.0,0.0,0.0,0.0,0.0,0.0,0.0,0.0,0.0,0.0,0.0,0.0,0.0,0.0,0.0,0.0,0.0,0.0,0.0,0.0,0.0,1.7832,1.8781,1.9474,1.989,1.989,1.9298,1.8094,1.7758,1.6598,1.446,0.0,0.0,0.0,0.0,0.0,0.0,0.0,0.0,0.0,0.0,0.0,0.0,0.0,0.0,0.0,0.0,0.0,0.0,0.0,0.0,0.0,0.0,0.0,0.0,0.0,0.0,0.9817,0.9344,0.9336,0.0,0.0,0.0,0.0,0.0,0.0,0.0,0.0,0.0,0.0,1.4055,1.5044,1.5367,1.4506,1.4656,1.7233,1.4724,1.2427,1.2349,1.2082,1.1783,0.0,0.0,0.0,0.0,0.0,0.0,0.0,0.0,0.0,0.0,0.0,0.0,0.0,0.0,0.0,0.0,0.0,0.0,0.0,0.0,0.0,0.0,0.0,0.0,0.0,0.0,0.0,1.5442,1.5432,0.0,0.0,0.0,0.0,0.0,0.0,0.0,0.0,0.0,0.0,0.0,1.8899,1.8759,0.0,0.0,0.0,0.0,0.0,0.0,0.0,0.0,0.0,0.0,0.0,0.0,1.763,1.9167,1.9269,1.9778,2.0708,2.0205,1.9521,1.876,1.8398,1.754,1.6142,0.0,0.0,0.0,0.0,0.0,0.0,0.0,0.0,0.0,0.0,0.0,0.0,0.0,0.0,0.0,0.0,0.0,0.0,0.0,0.0,0.0,0.0,0.0,0.0,0.0,1.0445,0.0,0.0,0.0,0.0,0.0,0.0,0.0,0.0,0.0,0.0,0.0,1.2792,1.3345,1.3995,1.4414,1.4402,1.4469,1.4565,0.0,0.0,0.0,0.0,0.0,0.0,0.0,0.0,0.0,0.0,0.0,0.0,0.0,0.0,1.2808,1.264,1.2453,1.2359,1.2471,0.0,0.0,0.0,0.0,0.0,0.0,0.0,0.0,0.0,0.0,0.0,0.0,0.0,0.0,0.0,0.0,1.6572,0.0,0.0,0.0,0.0,0.0,0.0,0.0,0.0,1.9837,2.0079,2.02,2.006,1.9986,0.0,1.9522,1.8914,0.0,0.0,0.0,0.0,0.0,0.0,0.0,0.0,1.8325,1.9846,1.9537,1.9762,2.0663,2.0061,1.9387,1.8752,1.7868,1.7119,1.6468,1.4564,1.3549,0.0,0.0,0.0,0.0,0.0,0.0,0.0,0.0,0.0,0.0,0.0,0.0,0.0,0.0,0.0,0.0,0.0,0.0,0.0,0.0,0.0,0.0,0.0,1.0897,0.0,0.0,0.0,0.0,0.0,0.0,0.0,0.0,0.0,1.2522,1.3327,1.4105,1.4357,1.4791,1.5016,1.4887,0.0,0.0,0.0,0.0,0.0,0.0,0.0,1.3089,1.2954,1.3015,1.3179,1.3467,1.3737,1.3904,1.3832,0.0,0.0,1.3572,1.3365,1.328,1.3367,1.3942,1.4437,1.4533,1.4785,1.5008,0.0,0.0,0.0,0.0,0.0,0.0,0.0,0.0,1.8298,1.8248,0.0,1.8248,0.0,0.0,0.0,0.0,0.0,0.0,0.0,0.0,2.1713,2.2013,2.1536,2.1403,2.1365,0.0,2.123,2.1152,2.1039,1.8718,0.0,0.0,0.0,0.0,0.0,0.0,1.9161,1.9973,1.9598,1.9536,1.9921,1.9516,1.888,1.7989,1.6406,1.5583,1.5481,1.4787,1.3959,1.3081,1.3128,0.0,0.0,0.0,0.0,0.0,0.0,0.0,0.0,0.0,0.0,0.0,0.0,0.0,0.0,0.0,0.0,0.0,0.0,0.0,0.0,1.1081,0.0,0.0,0.0,0.0,0.0,0.0,0.0,0.0,0.0,0.0,1.3417,1.5176,1.6436,1.5791,0.0,0.0,0.0,0.0,1.5159,1.4263,1.3955,1.402,1.4559,1.3879,1.324,1.323,0.0,0.0,1.4055,1.3884,1.3976,1.4824,1.4709,1.444,1.421,1.416,1.4212,1.4458,1.479,1.512,1.5336,1.5292,1.5156,2.0698,0.0,0.0,0.0,0.0,2.0157,2.0201,2.0521,2.0157,1.9742,1.9359,1.9811,0.0,0.0,0.0,0.0,0.0,0.0,2.1461,2.1781,2.2142,2.2433,2.2644,2.2607,2.28,2.3198,2.2755,2.2748,2.3097,2.1989,2.0836,1.9665,0.0,0.0,0.0,0.0,2.0519,2.1625,2.0769,2.025,2.026,1.9528,1.8599,1.7449,1.7613,1.7508,1.7139,1.6128,1.5563,1.5471,1.472,0.0,0.0,0.0,0.0,0.0,0.0,0.0,0.0,0.0,0.0,0.0,0.0,0.0,0.0,0.0,0.0,0.0,0.0,0.0,1.2124,1.2473,1.2903,0.0,0.0,0.0,0.0,0.0,0.0,0.0,0.0,0.0,1.6264,1.6321,1.6444,0.0,0.0,1.6835,1.6693,1.5921,1.5219,1.4815,0.0,0.0,0.0,1.4152,1.4011,1.3869,1.4071,1.4351,1.468,1.4827,1.4902,1.5004,1.5086,1.5176,1.5282,1.5145,1.5055,1.5164,1.5549,1.5948,1.6029,1.6136,1.6205,2.2909,2.2336,2.2189,2.2013,2.1802,2.1482,2.1407,2.1475,2.1169,2.081,2.0495,2.0847,2.0646,2.003,2.0557,0.0,0.0,0.0,2.2766,2.3293,2.3311,2.3446,2.3747,2.378,2.3956,2.429,2.3956,2.3948,2.4307,2.3963,2.3255,2.2218,0.0,0.0,2.1873,2.1401,2.1557,2.2289,2.1215,2.0476,2.0213,1.9358,1.8542,1.7804,1.7984,1.7965,1.7629,1.6812,1.6333,1.6318,1.5498,1.4545,0.0,0.0,0.0,0.0,0.0,0.0,0.0,0.0,0.0,0.0,0.0,1.1853,0.0,0.0,0.0,0.0,1.1839,1.2441,1.3194,1.3587,0.0,0.0,0.0,0.0,0.0,0.0,0.0,1.7684,1.8396,1.8629,1.8103,1.7807,1.7393,1.6691,1.7386,1.7714,1.7016,0.0,1.6485,1.5343,1.5059,1.478,1.4181,1.4196,1.4277,1.4274,1.4402,1.4605,1.4932,1.5144,1.5184,1.5067,1.5229,1.5502,1.5765,1.5777,1.571,1.5605,1.5939,1.631,1.6432,1.6524,1.6579,2.4859,2.4791,2.3772,2.3027,2.2508,2.249,2.2214,2.1784,2.1776,2.1733,2.1701,2.1744,2.1751,2.1802,2.2272,0.0,0.0,2.4054,2.433,2.4816,2.4816,2.4816,2.4816,2.4816,2.4833,2.4859,2.4867,2.4892,2.4942,2.4942,2.4869,2.4714,2.3702,2.3282,2.3408,2.279,2.2384,2.2286,2.1325,2.0563,1.9982,1.9163,1.8693,1.858,1.7926,1.756,1.7438,1.7051,1.6625,1.6222,1.5762,1.5122,1.4289,0.0,0.0,0.0,0.0,0.0,0.0,0.0,0.0,0.0,0.0,0.0,0.0,0.0,0.0,0.0,1.2812,0.0,1.4224,1.4615,0.0,0.0,0.0,1.7085,1.8668,1.8497,1.8546,1.9335,0.0,0.0,0.0,0.0,1.8973,1.7137,1.8361,1.8987,1.7715,1.8251,1.8164,1.6088,1.5863,1.5579,1.4724,1.4465,1.4434,1.4531,1.4538,1.4683,1.4972,1.5051,1.5054,1.5101,1.5281,1.5574,1.5818,1.6135,1.6219,1.594,1.6126,1.6393,1.6607,1.6525,1.6445,2.541,2.5435,2.5594,2.5109,2.4206,2.4214,2.4139,2.4006,2.4021,2.3795,2.3434,2.3838,2.4014,2.4006,2.4164,2.4365,2.4608,2.4608,2.4658,2.4816,2.4816,2.4816,2.4816,2.4816,2.5017,2.5377,2.541,2.5644,2.6088,2.6088,2.6071,2.6046,2.5762,2.5328,2.4672,2.3951,2.3388,2.2951,2.2806,2.209,2.08,2.0241,1.9501,1.8558,1.9023,1.8863,1.7905,1.7765,1.7492,1.7106,1.6652,1.6164,1.564,1.4819,0.0,0.0,0.0,0.0,0.0,0.0,0.0,0.0,0.0,1.3321,1.3614,0.0,1.4036,0.0,1.4342,1.5142,1.5997,1.6473,0.0,0.0,1.808,1.8354,1.909,1.9354,1.9511,1.9553,1.986,2.0023,1.9994,2.007,1.9735,1.8618,1.8276,1.8306,1.8696,1.7194,1.6694,1.7836,1.6815,1.5995,1.6288,1.6016,1.5422,1.4947,1.4879,1.4997,1.5255,1.5309,1.5368,1.5577,1.5864,1.617,1.6421,1.6567,1.6567,1.6501,1.6541,1.6608,1.6674,1.6659,1.6621,2.5979,2.6038,2.6382,2.613,2.5544,2.5276,2.5025,2.4816,2.4816,2.4641,2.4365,2.465,2.4942,2.5151,2.5159,2.531,2.5527,2.5552,2.5569,2.5544,2.5285,2.531,2.5536,2.5276,2.5301,2.5603,2.5603,2.5636,2.5753,2.5996,2.6097,2.6105,2.6373,2.6203,2.5588,2.4868,2.4299,2.3922,2.3587,2.2925,2.1982,2.1604,2.0833,1.9583,1.9821,1.9389,1.8189,1.805,1.791,1.7684,1.7246,1.6816,1.6387,1.5737,1.5092,0.0,0.0,0.0,0.0,0.0,0.0,0.0,0.0,0.0,0.0,0.0,1.561,0.0,0.0,0.0,1.7475,1.7768,1.8273,1.9103,1.9172,1.9444,2.0069,2.0176,2.0313,2.0595,2.0672,2.0769,2.0993,2.1002,2.0842,2.0329,1.8975,1.8292,1.8869,1.7765,1.7241,1.8165,1.6966,1.5927,1.6263,1.5911,1.5508,1.5264,1.5175,1.5307,1.571,1.5815,1.5812,1.5835,1.6167,1.6635,1.6998,1.7003,1.6926,1.6927,1.702,1.7047,1.694,1.6913,1.694,2.6499,2.6499,2.6499,2.6499,2.6474,2.5929,2.546,2.5017,2.5017,2.5025,2.5017,2.5009,2.5268,2.572,2.5695,2.5979,2.6483,2.6499,2.6499,2.6457,2.5963,2.5979,2.6474,2.5954,2.572,2.572,2.572,2.546,2.5034,2.5485,2.572,2.5745,2.6256,2.6327,2.5981,2.5333,2.4851,2.453,2.3594,2.3045,2.287,2.2639,2.1912,2.0701,2.0282,1.9502,1.8367,1.811,1.8008,1.7988,1.7609,1.7243,1.6871,1.6441,1.5889,0.0,1.5488,0.0,0.0,0.0,0.0,0.0,0.0,0.0,0.0,1.6551,1.7171,1.7528,1.7653,1.8008,1.8704,1.8803,1.9181,1.9971,2.0059,2.0381,2.1171,2.0986,2.1065,2.1807,2.1533,2.1445,2.1797,2.1915,2.1915,2.1671,2.0219,1.9204,1.9292,1.8894,1.8162,1.7409,1.6891,1.6675,1.6276,1.5837,1.5709,1.5746,1.5627,1.5708,1.6165,1.6323,1.6244,1.6057,1.6374,1.6919,1.7489,1.7392,1.7259,1.7247,1.7408,1.7475,1.7313,1.7259,1.7327,2.6499,2.6499,2.6499,2.6499,2.6483,2.6373,2.6273,2.6164,2.6164,2.6189,2.6172,2.6197,2.6214,2.6323,2.6348,2.6407,2.6499,2.6499,2.6499,2.6499,2.6382,2.6365,2.6499,2.6365,2.6323,2.6315,2.6323,2.6273,2.6197,2.6281,2.6315,2.6348,2.6449,2.5981,0.0,0.0,0.0,0.0,2.2231,2.1711,2.1571,2.1505,2.0944,1.9802,1.9883,0.0,1.8361,1.811,1.8008,1.798,1.7625,0.0,0.0,0.0,0.0,0.0,0.0,0.0,0.0,0.0,0.0,0.0,1.8262,1.8418,1.8041,1.8479,1.8691,1.8411,1.9005,1.9502,1.9621,1.9991,2.041,2.0888,2.0947,2.1171,2.169,2.17,2.1729,2.1876,2.1816,2.1807,2.1915,2.1915,2.1915,2.1923,2.1512,2.129,2.1291,1.906,1.736,1.7298,1.8004,1.8972,1.9568,1.8521,1.7504,1.7381,1.6584,1.6224,1.631,1.6499,1.662,1.6538,1.6748,1.7086,1.7498,1.7549,1.7515,1.7528,1.7568,1.7595,1.7541,1.7528,1.7541,2.6499,0.0,2.6499,2.6499,0.0,0.0,2.6499,2.6499,2.6499,2.6499,2.6499,2.6499,2.6499,2.6499,2.6499,2.6499,2.6499,2.6499,2.6499,2.6483,2.6189,2.6214,2.6483,2.6189,2.6063,2.6063,2.6046,2.5912,2.5695,2.5929,2.6055,2.6063,2.6348,2.6181,2.5608,2.5494,2.444,2.2416,2.1987,2.1694,2.1572,2.1809,2.1357,2.0199,0.0,0.0,0.0,0.0,0.0,0.0,0.0,0.0,0.0,0.0,0.0,1.8642,1.8865,1.8894,1.8672,1.9034,1.9152,1.8975,1.9951,2.0205,1.9318,1.9463,1.9687,1.9874,2.0284,2.0644,2.0879,2.1114,2.1319,2.1523,2.1542,2.162,2.1857,2.1915,2.1983,2.2168,2.2198,2.2266,2.247,2.2489,2.2479,2.2447,2.1969,2.1853,2.2144,2.0225,1.8324,1.7485,1.8535,1.9146,1.8401,1.798,1.7536,1.7013,1.6724,1.6613,1.6724,1.6858,1.698,1.7101,1.7235,1.7368,1.7551,1.7607,1.7649,1.7769,1.7782,1.7862,1.7983,1.7916,1.7809,2.6499,2.6499,2.6499,2.6499,2.6499,2.6499,2.6499,2.6499,0.0,0.0,0.0,2.6499,2.6499,2.6499,2.6499,2.6499,2.6499,2.6499,2.6499,2.6474,2.5979,2.6005,2.6483,2.5979,2.5778,2.5778,2.5753,2.5544,2.5126,2.5536,2.577,2.5795,2.6273,2.6397,2.6249,2.5878,2.4508,2.2219,2.2337,2.2328,2.2068,2.2373,2.1984,2.0841,2.1075,2.0752,1.9756,1.9524,1.9452,1.9521,1.953,1.9491,1.9414,1.9717,1.9756,1.9473,2.0146,2.0303,1.9697,2.0079,2.0352,2.0361,2.1319,2.1426,2.0332,2.0322,2.0635,2.1259,2.1317,2.1464,2.1866,2.1896,2.1935,2.2003,2.1992,2.2042,2.209,2.212,2.2275,2.2559,2.2606,2.2732,2.3014,2.3073,2.3112,2.2972,2.2325,2.198,2.2742,2.1774,2.02,1.9046,1.9473,1.9177,1.7939,1.7659,1.7345,1.747,1.7286,1.7163,1.7177,1.7246,1.7367,1.7515,1.7608,1.7661,1.7728,1.7795,1.7836,1.8036,1.8103,1.8169,1.8397,1.833,1.8156,2.6499,2.6499,2.6499,2.6499,2.6499,2.6499,2.6499,2.6499,2.6499,2.6499,2.6499,2.6499,2.6499,2.6499,2.6499,2.6499,2.6499,2.6499,2.6499,0.0,2.6407,2.6432,2.6499,2.6432,2.6373,2.6373,2.6365,2.6348,2.6273,2.6323,2.6382,2.6399,2.6457,2.6102,2.5149,2.3494,2.2427,2.2055,2.3222,2.3418,2.2592,2.216,2.159,2.0849,2.0674,2.0471,2.0144,1.9928,2.0009,2.041,2.041,2.0234,1.9863,1.9893,1.9873,1.9834,2.0303,2.0674,2.0937,2.1689,2.2138,2.2118,2.1992,2.1797,2.1651,2.1923,2.204,2.1846,2.1797,2.1827,2.1905,2.1935,2.21,2.2383,2.2422,2.2548,2.2888,2.2936,2.2956,2.3034,2.3014,2.3034,2.317,2.317,2.319,2.3098,2.2964,2.305,2.3424,2.3149,2.2629,2.2147,2.1291,2.1291,2.1354,2.197,2.0698,2.0167,1.9086,1.8209,1.7373,1.7381,1.7515,1.7595,1.7609,1.7795,1.8211,1.8374,1.8388,1.8439,1.841,1.8464,1.8558,1.865,1.869,2.6499,2.6499,2.6499,2.6499,2.6499,2.6499,2.6499,2.6499,2.6499,2.6499,2.6499,2.6499,2.6499,2.6499,2.6499,2.6499,2.6499,2.6499,2.6499,2.6499,2.6499,2.6499,2.6499,2.6499,2.6499,2.6499,2.6801,2.6918,2.6977,2.7202,2.7386,2.7361,2.7352,2.7139,2.6611,2.5196,2.4446,2.4404,2.2963,2.1992,2.1556,2.131,2.0998,2.0693,2.0578,2.0531,2.0407,2.0321,2.038,2.0586,2.0595,2.0596,2.0625,2.083,2.1094,2.1318,2.1719,2.1953,2.1902,2.209,2.2255,2.247,2.2314,2.2441,2.2901,2.2461,2.2177,2.2227,2.2227,2.2324,2.2518,2.2548,2.2724,2.3164,2.3203,2.3379,2.3708,2.3806,2.3806,2.3806,2.3806,2.3806,2.3806,2.3794,2.3794,2.3794,2.3794,2.3903,2.4102,2.3942,2.3557,2.2869,2.1571,2.0751,2.1079,2.0273,1.946,1.881,1.8535,1.8106,1.7486,1.7542,1.7596,1.7609,1.7609,1.7849,1.84,1.8783,1.8878,1.8748,1.8717,1.8771,1.8945,1.9093,1.9106,2.6876,2.6868,2.6868,2.6876,2.6876,2.6876,2.6876,2.6851,2.6868,2.6868,2.6826,2.6616,2.6499,2.6499,2.6625,2.6684,2.67,2.6792,2.6851,2.6842,2.6842,2.6876,2.6876,2.6868,2.6868,2.6893,2.7286,2.7478,2.7528,2.7905,2.796,2.7767,2.7739,2.7628,2.7354,2.6325,2.5791,2.5568,2.2555,2.1007,2.1193,2.1017,2.0899,2.0879,2.0889,2.0948,2.1016,2.1016,2.1075,2.1143,2.1172,2.1269,2.1493,2.1836,2.2139,2.2383,2.2752,2.2917,2.2802,2.25,2.25,2.2899,2.2919,2.3212,2.3761,2.3058,2.2608,2.286,2.2967,2.3084,2.3326,2.3385,2.3532,2.3875,2.3926,2.4043,2.4324,2.4414,2.4414,2.4414,2.4414,2.4394,2.4414,2.4414,2.4363,2.4344,2.4481,2.4539,2.457,2.4617,2.425,2.3446,2.2309,2.1576,2.0257,1.9589,1.9008,1.8339,1.8284,1.8189,1.7914,1.7729,1.7715,1.7697,1.775,1.8099,1.8614,1.9056,1.9234,1.9071,1.9011,1.9092,1.9294,1.9428,1.9441,2.7946,2.7946,2.7921,2.7946,2.7921,2.7921,2.793,2.7921,2.7946,2.7946,2.7821,2.6943,2.6533,2.6575,2.7018,2.7236,2.7261,2.7729,2.7921,2.7921,2.7946,2.7955,2.7905,2.7921,2.7946,2.7921,2.7996,2.8012,2.8037,2.8067,2.7616,2.6755,2.6642,2.6197,2.5179,2.42,2.3663,2.3582,2.2402,2.2199,2.2947,2.2229,2.1778,2.1768,2.1778,2.1963,2.2207,2.2344,2.2489,2.2819,2.28,2.2683,2.2401,2.2411,2.2294,2.2031,2.2383,2.286,2.3585,2.3633,2.375,2.4168,2.418,2.4207,2.4355,2.4215,2.4157,2.4196,2.4196,2.4157,2.4266,2.4246,2.4246,2.4324,2.4344,2.4352,2.4461,2.4414,2.4414,2.4414,2.452,2.4434,2.45,2.452,2.4481,2.4559,2.4824,2.5012,2.5051,2.5249,2.5423,2.5295,2.5128,2.4808,2.4034,2.3633,2.1812,2.0979,2.0321,1.9292,1.836,1.8169,1.8286,1.7903,1.8038,1.8529,1.9036,1.9398,1.9394,1.9328,1.9293,1.9347,1.9428,1.9587,1.9653,2.8113,2.8113,2.8113,2.8113,2.8113,2.8113,2.8113,2.8113,2.8113,2.8113,2.8063,2.7638,2.7453,2.7462,2.7679,2.7779,2.7795,2.7996,2.8113,2.8113,2.8113,2.8113,2.8113,2.8113,2.8113,2.8138,2.8405,2.8571,2.8519,2.8261,2.7553,2.6599,2.6489,2.625,2.5757,2.4726,2.4189,2.4148,2.315,2.2809,2.3028,2.2339,2.1915,2.1915,2.1915,2.1963,2.212,2.2148,2.2216,2.2383,2.2392,2.242,2.2479,2.2498,2.2676,2.2999,2.3387,2.3778,2.4152,2.416,2.4215,2.4391,2.4414,2.45,2.4766,2.4816,2.4914,2.5074,2.4715,2.4414,2.4422,2.4414,2.4512,2.4727,2.4816,2.4883,2.5152,2.516,2.516,2.516,2.516,2.5148,2.516,2.5171,2.5171,2.5191,2.5359,2.5469,2.5488,2.5601,2.5679,2.5724,2.5981,2.5485,2.4276,2.2515,2.1219,1.9998,1.9342,1.8782,1.8591,1.837,1.8392,1.8175,1.8382,1.8753,1.926,1.9385,1.941,1.9428,1.9561,1.9641,1.9626,1.9838,1.9917,2.8555,2.8565,2.8549,2.8565,2.8574,2.8574,2.8574,2.8574,2.8574,2.8574,2.8574,2.8574,2.8574,2.8549,2.8414,2.8304,2.8339,2.8489,2.8565,2.8574,2.8574,2.8565,2.8565,2.8583,2.8391,2.8207,2.8462,2.8669,2.8589,2.7973,2.7258,2.6576,2.6204,2.5892,2.5526,2.4702,2.4339,2.4244,2.3475,2.3112,2.3025,2.2518,2.2237,2.2227,2.2227,2.2227,2.2216,2.2227,2.2237,2.2237,2.2344,2.2539,2.2821,2.2958,2.3309,2.3898,2.4227,2.4461,2.459,2.4578,2.4637,2.4754,2.475,2.4879,2.5195,2.5395,2.5578,2.5776,2.5406,2.5113,2.4762,2.4762,2.4922,2.5239,2.5266,2.5391,2.5628,2.5784,2.5874,2.5893,2.5959,2.6069,2.6069,2.6069,2.605,2.6069,2.6069,2.6037,2.6069,2.6076,2.603,2.5792,2.6259,2.5988,2.4224,2.3027,2.0955,1.974,1.9616,1.9292,1.8819,1.8678,1.8758,1.8756,1.8742,1.8852,1.9267,1.939,1.9483,1.9562,1.9721,1.9907,1.9905,2.013,2.0231,2.9739,2.9679,2.9704,2.9673,2.9704,2.9663,2.9679,2.9613,2.9654,2.9679,2.9628,2.9654,2.9679,2.9628,2.9082,2.8881,2.8938,2.9393,2.9613,2.9603,2.959,2.9684,2.9729,2.9719,2.9115,2.8151,2.8169,2.8112,2.8,2.7075,2.6565,2.6402,2.5443,2.438,2.3642,2.3444,2.323,2.3365,2.3275,2.314,2.3151,2.3081,2.3053,2.3053,2.3023,2.3034,2.3034,2.3042,2.3053,2.3053,2.3437,2.3691,2.3761,2.4071,2.4305,2.4383,2.441,2.4629,2.5004,2.5063,2.5227,2.5542,2.5589,2.5647,2.5745,2.6074,2.6289,2.638,2.655,2.6413,2.5776,2.5628,2.5679,2.5706,2.5706,2.5737,2.5745,2.6147,2.634,2.6406,2.6628,2.6765,2.6894,2.694,2.6843,2.6843,2.6901,2.6862,2.6804,2.6862,2.655,2.6193,2.6423,2.6832,2.6302,2.451,2.3483,2.1847,2.0082,2.0284,1.9624,1.9105,1.9225,1.9305,1.925,1.925,1.9374,1.9468,1.9589,1.9734,2.0013,2.0159,2.0199,2.0468,2.0568,2.9779,2.9779,2.9779,2.9779,2.9779,2.9779,2.9779,2.9779,2.9779,2.9779,2.9779,2.9779,2.9779,2.9779,2.9578,2.9468,2.9493,2.9713,2.9779,2.9711,2.9057,2.8718,2.8718,2.8718,2.8525,2.8164,2.8094,2.7481,2.6425,2.5947,2.5559,2.5183,2.4748,2.4309,2.399,2.3942,2.3942,2.3923,2.3942,2.3942,2.3903,2.3942,2.3934,2.3923,2.368,2.3544,2.3544,2.3775,2.3923,2.3923,2.409,2.4199,2.425,2.4601,2.4867,2.4875,2.5086,2.5308,2.5457,2.5496,2.5684,2.6081,2.614,2.6257,2.6511,2.6687,2.6784,2.6804,2.6882,2.6804,2.6635,2.6537,2.6518,2.653,2.6518,2.6498,2.6557,2.6674,2.6777,2.6816,2.6921,2.7012,2.707,2.7012,2.7012,2.7012,2.7012,2.7051,2.7031,2.7012,2.691,2.6743,2.6975,2.6811,2.4867,2.4268,2.3166,2.1226,1.9822,1.9847,1.944,1.931,1.9361,1.9356,1.9399,1.9454,1.9479,1.9709,1.9801,2.0012,2.0292,2.0481,2.0537,2.0722,2.0822,2.9779,2.9779,2.9779,2.9779,2.9779,2.9779,2.9779,2.9779,2.9779,2.9779,2.9779,2.9779,2.9779,2.9779,2.9779,2.9779,2.9779,2.9779,2.9779,2.9721,2.9008,2.8648,2.8599,2.8287,2.7978,2.7676,2.7133,2.6388,2.569,2.5245,2.5029,2.4983,2.461,2.4414,2.4414,2.4414,2.4414,2.4414,2.4414,2.4402,2.4414,2.4414,2.4414,2.4402,2.4277,2.4152,2.4015,2.4246,2.4414,2.4422,2.4539,2.4676,2.482,2.5117,2.5363,2.552,2.5749,2.5991,2.6096,2.6115,2.6245,2.6543,2.6602,2.6738,2.6979,2.7129,2.7207,2.7259,2.7363,2.7409,2.7409,2.7409,2.7311,2.709,2.7012,2.7012,2.7012,2.7129,2.7285,2.7422,2.7461,2.7461,2.7422,2.7441,2.7461,2.7428,2.7409,2.7422,2.7422,2.7428,2.7415,2.7439,2.7655,2.7222,2.613,2.5446,2.4187,2.2253,2.1008,2.0573,1.9734,1.9603,1.9411,1.9407,1.9475,1.9502,1.9665,1.9893,2.012,2.0317,2.0573,2.0802,2.0869,2.0949,2.0968,2.9779,2.9779,2.9779,2.9779,2.9779,2.9779,2.9779,2.9779,2.9779,2.9779,2.9779,2.9779,2.9779,2.9779,2.9779,2.9804,2.9845,2.9763,2.9732,2.974,2.9527,2.9405,2.9342,2.8273,2.7677,2.7232,2.5485,2.5293,2.6205,2.5345,2.5191,2.5749,2.5005,2.4578,2.4473,2.4551,2.45,2.4508,2.4559,2.45,2.4422,2.452,2.4539,2.4551,2.4855,2.4855,2.4449,2.4469,2.4539,2.4559,2.4863,2.5273,2.5601,2.5698,2.5906,2.625,2.6387,2.6582,2.6894,2.6901,2.6869,2.7031,2.7012,2.7038,2.7207,2.7474,2.7702,2.7741,2.7982,2.8203,2.8184,2.8164,2.7891,2.7201,2.7155,2.7168,2.7175,2.7454,2.7839,2.8105,2.8164,2.8262,2.8262,2.8144,2.8105,2.8105,2.8125,2.8125,2.8086,2.8066,2.8223,2.8215,2.8163,2.7722,2.7406,2.7029,2.55,2.4017,2.3089,2.2294,2.0715,2.0077,1.9554,1.9473,1.9859,1.9928,2.0169,2.0385,2.047,2.0681,2.0924,2.1029,2.1056,2.1069,2.1053,2.9779,2.9779,2.9779,2.9779,2.9779,2.9779,2.9779,2.9779,2.9779,2.9779,2.9779,2.9779,2.9779,2.9779,2.9789,3.0005,3.0262,2.9547,2.9355,2.9523,2.8285,2.7765,2.7753,2.6829,2.6743,2.7454,2.7129,2.718,2.754,2.6687,2.6489,2.6782,2.5876,2.5344,2.5269,2.5296,2.5296,2.5308,2.5296,2.5296,2.5277,2.5277,2.5289,2.5308,2.5445,2.5425,2.5296,2.5296,2.5296,2.53,2.5425,2.5698,2.6081,2.6191,2.6387,2.6745,2.6804,2.6843,2.696,2.7031,2.7175,2.7396,2.7487,2.763,2.7851,2.7988,2.8099,2.8099,2.8236,2.8301,2.8301,2.8301,2.8144,2.7943,2.7891,2.7851,2.7832,2.8001,2.8138,2.8242,2.8301,2.8301,2.8301,2.8301,2.8301,2.8301,2.8301,2.8301,2.8287,2.834,2.8301,2.8301,2.828,2.8369,2.8109,2.7298,2.5806,2.4294,2.34,2.2795,2.1408,2.0299,1.98,1.9706,2.0095,2.0406,2.0648,2.0765,2.0806,2.0882,2.1029,2.1066,2.108,2.1093,2.1093,2.9779,2.9779,2.9779,2.9779,2.9839,2.998,3.0105,3.0131,3.0316,3.0392,3.0382,3.0392,3.0401,3.0303,2.994,2.9903,3.0065,2.8959,2.8874,2.9363,2.7877,2.7103,2.7276,2.6878,2.7085,2.8043,2.8365,2.8388,2.8302,2.7576,2.7071,2.6739,2.6074,2.5686,2.5686,2.5686,2.5686,2.5686,2.5686,2.5686,2.5686,2.5686,2.5771,2.5913,2.5964,2.605,2.6167,2.6174,2.6018,2.5803,2.5854,2.6179,2.6562,2.6641,2.6816,2.7148,2.7278,2.7324,2.7448,2.7539,2.7578,2.7878,2.7936,2.8021,2.8242,2.8301,2.8301,2.8301,2.8301,2.8301,2.8301,2.8301,2.8359,2.8516,2.8373,2.832,2.8301,2.8301,2.8281,2.8301,2.8301,2.8301,2.8301,2.8301,2.8301,2.8301,2.8301,2.8385,2.8444,2.8535,2.8487,2.8511,2.8719,2.8754,2.8707,2.7572,2.6067,2.453,2.3113,2.2486,2.1524,2.0589,1.9905,2.0064,2.036,2.0674,2.0933,2.0918,2.0935,2.1026,2.1093,2.1093,2.1093,2.1093,2.1093,2.9779,2.9814,2.9829,2.988,2.9965,3.0422,3.0648,3.0723,3.111,3.1296,3.1321,3.1256,3.1306,3.1076,3.0126,2.9695,2.9457,2.8504,2.8549,2.9055,2.8364,2.7843,2.7832,2.8177,2.8511,2.8791,2.9127,2.8778,2.808,2.768,2.7006,2.6163,2.5917,2.5686,2.5686,2.5686,2.5686,2.5686,2.5686,2.5706,2.5776,2.5764,2.5971,2.6399,2.6426,2.6562,2.6811,2.6862,2.6557,2.5971,2.625,2.6621,2.6953,2.7051,2.7246,2.7682,2.7721,2.7897,2.8177,2.8229,2.8281,2.8334,2.8412,2.8373,2.849,2.8535,2.8535,2.8516,2.8476,2.8457,2.8457,2.849,2.8646,2.8834,2.8711,2.8516,2.8412,2.8437,2.8516,2.8476,2.8379,2.8398,2.8496,2.8476,2.8476,2.8476,2.8496,2.8691,2.8834,2.8902,2.8746,2.8884,2.9133,2.9391,2.9417,2.7921,2.6551,2.5892,2.4106,2.2778,2.1826,2.0842,2.0344,2.0487,2.0586,2.0913,2.1085,2.1029,2.1,2.1053,2.1093,2.1093,2.1093,2.1093,2.1189,2.9779,2.9829,3.0231,3.0397,3.0482,3.0949,3.1195,3.122,3.1346,3.1482,3.1432,3.1406,3.1482,3.1274,3.0184,2.9825,2.9819,2.893,2.8701,2.9308,2.9173,2.878,2.8634,2.8959,2.9205,2.9307,2.9374,2.9246,2.8866,2.799,2.7398,2.709,2.6086,2.5686,2.5686,2.5686,2.5686,2.5686,2.5718,2.5893,2.6179,2.6198,2.6426,2.6797,2.6843,2.6901,2.6999,2.7012,2.694,2.6726,2.6777,2.7051,2.7454,2.7526,2.7689,2.8021,2.8138,2.8177,2.8334,2.8594,2.8723,2.8789,2.9004,2.9266,2.9252,2.9232,2.9252,2.9266,2.9266,2.9213,2.9246,2.9246,2.9324,2.9369,2.9311,2.9232,2.9207,2.9252,2.9252,2.9266,2.9227,2.9193,2.9188,2.9188,2.9174,2.9174,2.9188,2.9246,2.9336,2.94,2.9286,2.9342,2.9573,2.9984,2.9752,2.8272,2.7297,2.7101,2.5553,2.3487,2.2307,2.1003,2.0844,2.0923,2.0839,2.1053,2.1096,2.1066,2.108,2.112,2.1149,2.1176,2.112,2.112,2.1325,2.9779,2.9829,3.0372,3.0598,3.0713,3.1401,3.1738,3.1788,3.2024,3.211,3.211,3.211,3.21,3.1985,3.0847,3.0453,3.0561,2.9476,2.9421,3.0202,3.0741,3.0556,2.996,2.967,2.9636,3.0079,2.9613,2.9108,2.8576,2.7908,2.7375,2.6704,2.6086,2.5698,2.5686,2.5706,2.5803,2.5952,2.6003,2.6198,2.6602,2.6641,2.6907,2.722,2.7318,2.7344,2.75,2.7559,2.748,2.7357,2.7318,2.7493,2.7884,2.7969,2.8047,2.8301,2.8451,2.8541,2.8633,2.8945,2.918,2.9219,2.9467,2.9579,2.9579,2.9598,2.9598,2.9579,2.9598,2.9598,2.9623,2.9741,2.9819,2.9877,3.0014,2.9975,2.969,2.9559,2.9598,2.9598,2.9598,2.9598,2.9618,2.9618,2.9618,2.9579,2.952,2.9643,2.978,2.9852,2.9931,2.9955,3.0034,3.0403,3.0234,2.8943,2.7519,2.7279,2.5305,2.349,2.2829,2.1431,2.106,2.1051,2.108,2.1122,2.1165,2.1192,2.1203,2.1243,2.1243,2.1336,2.1376,2.1349,2.1529,2.9839,2.9949,3.0482,3.0713,3.0974,3.1853,3.2315,3.239,3.2778,3.3025,3.3,3.3075,3.295,3.3015,3.1559,3.1142,3.1086,3.0145,3.0371,3.1011,3.1634,3.152,3.0528,3.0067,2.992,3.0147,2.9613,2.8518,2.7626,2.7315,2.68,2.6086,2.5779,2.5757,2.5835,2.5835,2.603,2.6387,2.6445,2.668,2.6992,2.709,2.7318,2.7682,2.7761,2.7897,2.8119,2.8203,2.808,2.7767,2.7761,2.7936,2.8236,2.8281,2.834,2.8418,2.8691,2.8873,2.9029,2.9408,2.9657,2.9676,2.9735,2.9735,2.9852,2.9877,2.9891,2.9911,2.9755,2.9852,2.9897,3.0098,3.0234,3.0312,3.0639,3.0444,2.997,2.9735,2.9735,2.9735,2.9755,2.9721,2.9721,2.9721,2.9755,3.0073,3.0034,3.0131,3.0234,3.0288,3.0444,3.0605,3.0698,3.083,3.0359,2.9676,2.8252,2.7092,2.4423,2.2742,2.313,2.2205,2.1432,2.1107,2.1218,2.129,2.1351,2.1362,2.1408,2.1486,2.1593,2.174,2.1844,2.175,2.185,3.0055,3.0472,3.1019,3.1486,3.1928,3.2602,3.2903,3.2903,3.304,3.3126,3.3126,3.3126,3.3126,3.3015,3.1887,3.1189,3.1278,3.0911,3.0999,3.1034,3.0327,3.017,3.0033,3.0373,2.9875,2.8935,2.8192,2.7351,2.646,2.6283,2.6046,2.583,2.5842,2.5893,2.6211,2.6257,2.6452,2.6797,2.6894,2.7109,2.7454,2.7552,2.7728,2.8099,2.8144,2.8197,2.8262,2.8301,2.8242,2.8197,2.8177,2.8223,2.832,2.8326,2.8463,2.8736,2.8873,2.9101,2.9428,2.9819,3.0087,3.0092,3.0327,3.0605,3.062,3.0561,3.0581,3.062,3.0605,3.0522,3.0542,3.0678,3.0698,3.0737,3.0796,3.0835,3.0659,3.0581,3.0542,3.0561,3.0561,3.06,3.0581,3.0522,3.0542,3.06,3.0586,3.0625,3.0644,3.0664,3.0762,3.0898,3.0913,3.0898,3.0601,2.9903,2.8709,2.7187,2.4564,2.2693,2.3069,2.2862,2.2019,2.1583,2.1397,2.1502,2.1681,2.1711,2.1767,2.1847,2.1943,2.2021,2.2084,2.2074,2.2141,3.0131,3.0638,3.116,3.1712,3.2254,3.2839,3.3126,3.3126,3.3126,3.3126,3.3126,3.3126,3.3126,3.3058,3.2413,3.2119,3.1909,3.1468,3.1533,3.1689,3.0933,3.0316,3.0293,3.0586,2.9965,2.7871,2.6947,2.6371,2.6111,2.603,2.6209,2.6303,2.6291,2.6472,2.6641,2.6699,2.6914,2.7226,2.7337,2.7532,2.7904,2.7995,2.8041,2.8334,2.8444,2.8516,2.832,2.8483,2.8574,2.8574,2.8561,2.858,2.858,2.858,2.8809,2.9141,2.9434,2.957,2.9916,3.0268,3.0542,3.0522,3.0762,3.0854,3.0913,3.0913,3.0913,3.0913,3.0893,3.0893,3.0913,3.0893,3.0913,3.0913,3.0913,3.0913,3.0913,3.0913,3.0913,3.0913,3.0854,3.0854,3.0893,3.0913,3.0893,3.0737,3.0737,3.0796,3.0796,3.0815,3.0835,3.0913,3.0913,3.0869,3.0689,3.005,2.9054,2.7451,2.5416,2.4017,2.3621,2.3173,2.2558,2.2059,2.1526,2.1965,2.2141,2.2134,2.2114,2.2151,2.2218,2.2271,2.2352,2.2462,2.2546,3.0166,3.0748,3.122,3.1763,3.2365,3.2889,3.3126,3.3126,3.3126,3.3126,3.3126,3.3126,3.3126,3.3068,3.3058,3.3068,3.272,3.1832,3.1656,3.213,3.1244,3.0784,3.0774,3.0479,2.9789,2.78,2.6951,2.6504,2.6486,2.6516,2.6589,2.6901,2.696,2.6992,2.7057,2.7116,2.7324,2.7708,2.7767,2.7884,2.8184,2.8255,2.8295,2.8496,2.8809,2.8887,2.8744,2.8848,2.901,2.901,2.901,2.9049,2.9074,2.9029,2.9199,2.9643,2.9941,3.0117,3.0312,3.0639,3.0874,3.0913,3.0913,3.0913,3.0913,3.0913,3.0913,3.0913,3.0913,3.0913,3.0913,3.0913,3.0913,3.0913,3.0913,3.0913,3.0913,3.0913,3.0913,3.0913,3.0913,3.0913,3.0913,3.0913,3.0913,3.0913,3.0932,3.0932,3.0952,3.0932,3.0952,3.0913,3.0913,3.1074,3.0961,3.0309,2.9302,2.8412,2.6463,2.5282,2.4413,2.382,2.3219,2.2078,2.1713,2.2312,2.2586,2.2448,2.2449,2.2479,2.2498,2.2555,2.2689,2.285,2.2867,3.0376,3.1271,3.1371,3.1999,3.2878,3.3065,3.3126,3.3126,3.3126,3.3126,3.3126,3.3126,3.3126,3.3126,3.3126,3.3126,3.2831,3.1865,3.1411,3.1651,3.0969,3.0629,3.0571,3.0305,2.9389,2.879,2.7991,2.7474,2.6981,2.6921,2.6999,2.7031,2.709,2.7226,2.7493,2.7604,2.7747,2.806,2.8119,2.8203,2.8262,2.8359,2.8516,2.8795,2.9238,2.9369,2.9364,2.9389,2.9487,2.9481,2.9481,2.9662,2.9805,2.9648,2.9741,3.0034,3.0195,3.0405,3.0664,3.0815,3.0913,3.0913,3.0913,3.0913,3.0913,3.0913,3.0932,3.0972,3.0972,3.0952,3.0913,3.1045,3.0952,3.0932,3.1011,3.1011,3.0991,3.1025,3.105,3.1089,3.103,3.0972,3.103,3.1108,3.1221,3.126,3.124,3.1221,3.1201,3.1094,3.102,3.0957,3.0913,3.1133,3.1323,3.0517,2.9717,2.9497,2.8051,2.6405,2.553,2.4777,2.3888,2.2572,2.2487,2.3266,2.3281,2.2846,2.2707,2.2689,2.2773,2.2827,2.2867,2.2893,2.2893,3.0683,3.1421,3.1687,3.23,3.3025,3.3126,3.3126,3.3126,3.3126,3.3126,3.3126,3.3126,3.3126,3.3126,3.3126,3.3126,3.2763,3.1788,3.1612,3.1843,3.1531,3.1148,3.1147,3.0864,3.0146,2.9522,2.894,2.8281,2.7453,2.737,2.7441,2.7643,2.7676,2.7793,2.793,2.8015,2.8099,2.8281,2.8301,2.832,2.8359,2.8483,2.8848,2.9252,2.9623,2.978,2.9657,2.9838,2.9897,2.9916,2.9916,3.017,3.0346,3.0405,3.0361,3.0522,3.0561,3.0639,3.0854,3.0913,3.0913,3.0913,3.0932,3.0913,3.0913,3.0932,3.1016,3.1211,3.1499,3.1577,3.1597,3.1553,3.1573,3.1573,3.1553,3.1538,3.1558,3.1553,3.1514,3.1441,3.1387,3.1348,3.1309,3.1421,3.1573,3.1592,3.1553,3.1514,3.1475,3.1441,3.1333,3.1249,3.1298,3.1646,3.1851,3.1352,3.0764,3.0469,2.952,2.788,2.6697,2.5952,2.4452,2.2848,2.3314,2.3691,2.343,2.2811,2.287,2.2893,2.288,2.2867,2.288,2.2893,2.2907,3.0899,3.1446,3.1968,3.2541,3.304,3.3126,3.3126,3.3126,3.3126,3.3126,3.3126,3.3126,3.3126,3.3126,3.3126,3.3079,3.3004,3.2072,3.2457,3.2983,3.3036,3.2698,3.2379,3.2159,3.1486,2.9808,2.9122,2.875,2.7983,2.7819,2.8001,2.8105,2.8242,2.8281,2.8262,2.8236,2.8301,2.832,2.8398,2.8437,2.8633,2.8951,2.9316,2.9735,3.0098,3.019,3.0034,3.021,3.0332,3.0351,3.0385,3.0508,3.0835,3.0913,3.0952,3.1011,3.0937,3.0913,3.0932,3.105,3.1094,3.1094,3.1133,3.1167,3.1221,3.1323,3.1348,3.1641,3.191,3.212,3.2061,3.2159,3.214,3.214,3.212,3.2159,3.2101,3.2061,3.2022,3.1929,3.1836,3.1777,3.1758,3.1734,3.1885,3.1905,3.1866,3.1905,3.1885,3.1944,3.1864,3.1726,3.18,3.2203,3.2405,3.2476,3.2111,3.1982,3.0736,2.9136,2.8093,2.7179,2.5254,2.3181,2.2859,2.3086,2.2895,2.2945,2.2893,2.2893,2.2893,2.2893,2.2893,2.292,2.2947,3.0924,3.1446,3.1978,3.2541,3.3065,3.3126,3.3126,3.3126,3.3126,3.3126,3.3126,3.309,3.3079,3.3004,3.3079,3.309,3.31,3.331,3.3446,3.3845,3.4259,3.389,3.3161,3.2559,3.1356,2.9868,2.8931,2.8456,2.8177,2.8158,2.8216,2.8281,2.8301,2.8301,2.8301,2.8301,2.8301,2.8373,2.8672,2.9023,2.9408,2.9766,2.998,3.0215,3.0508,3.0718,3.06,3.0698,3.0757,3.0776,3.0796,3.0835,3.0898,3.0913,3.1128,3.1211,3.1152,3.0913,3.105,3.1269,3.1445,3.1504,3.1734,3.1983,3.1925,3.1964,3.1988,3.2066,3.2237,3.2316,3.2355,3.2261,3.2237,3.2296,3.2394,3.2335,3.2296,3.2535,3.2496,3.2496,3.2422,3.232,3.2261,3.2218,3.2179,3.2198,3.2218,3.2257,3.2316,3.2418,3.2437,3.2307,3.2339,3.2711,3.28,3.2906,3.293,3.3051,3.1954,3.0402,2.9158,2.7785,2.5347,2.3679,2.3256,2.3354,2.395,2.389,2.3218,2.3184,2.3563,2.3307,2.2911,2.3036,2.3735,3.1652,3.1903,3.2476,3.2853,3.3101,3.3126,3.3126,3.3126,3.3126,3.3126,3.3126,3.309,3.2731,3.237,3.2698,3.2875,3.2804,3.3535,3.4087,3.4169,3.4355,3.3708,3.2381,3.1498,3.0463,2.9395,2.8668,2.8395,2.8301,2.8301,2.8301,2.8301,2.8301,2.8301,2.8301,2.8301,2.8444,2.8691,2.9082,2.9492,2.9863,3.0117,3.0332,3.0566,3.0781,3.0893,3.0913,3.0913,3.0913,3.0913,3.0913,3.1035,3.1157,3.1289,3.1426,3.1831,3.1753,3.167,3.169,3.1812,3.187,3.191,3.2101,3.214,3.2237,3.2413,3.2535,3.2535,3.2754,3.2832,3.2832,3.2871,3.2855,3.2855,3.2754,3.2773,3.2808,3.2887,3.2969,3.2988,3.2969,3.2832,3.2769,3.2754,3.2734,3.2754,3.2793,3.2851,3.291,3.3008,3.3008,3.2938,3.3016,3.3227,3.3215,3.3207,3.3168,3.323,3.312,3.1553,3.0041,2.8262,2.588,2.4513,2.4168,2.448,2.5267,2.4655,2.3819,2.4026,2.4385,2.4631,2.4962,2.5937,2.619,3.2441,3.2455,3.2914,3.3126,3.3126,3.3126,3.3126,3.3126,3.3126,3.3126,3.3126,3.3068,3.2547,3.2102,3.2807,3.3148,3.271,3.3769,3.4424,3.4531,3.4015,3.3068,3.199,3.0888,2.9689,2.8308,2.8375,2.8301,2.8301,2.8301,2.8301,2.8301,2.8301,2.8301,2.8334,2.8476,2.873,2.9283,2.957,2.9955,3.0307,3.0391,3.0586,3.0796,3.0913,3.0913,3.0913,3.0913,3.0913,3.1074,3.1108,3.1289,3.1587,3.1699,3.1894,3.2222,3.2281,3.2359,3.2394,3.2437,3.2359,3.2359,3.2476,3.2613,3.2598,3.2793,3.2949,3.2949,3.3144,3.3304,3.3367,3.3344,3.3269,3.325,3.3285,3.3347,3.3367,3.3265,3.3223,3.3207,3.3207,3.3265,3.3226,3.3304,3.3328,3.3347,3.3386,3.3386,3.3383,3.3363,3.3304,3.3191,3.3262,3.3371,3.3359,3.3367,3.3386,3.3292,3.3197,3.246,3.0773,2.8801,2.6536,2.5628,2.5283,2.707,2.8693,2.651,2.4568,2.5513,2.6383,2.698,2.7594,2.8457,2.8456,3.304,3.3029,3.309,3.3126,3.3126,3.3126,3.3126,3.3126,3.3126,3.3126,3.3126,3.3093,3.2961,3.2945,3.3228,3.3645,3.3651,3.4886,3.5154,3.5033,3.4582,3.3218,3.1901,3.058,2.9526,2.8481,2.8301,2.8301,2.8301,2.8301,2.8301,2.8301,2.8301,2.8301,2.8437,2.8691,2.9238,2.9785,3.0112,3.0351,3.0678,3.0796,3.0835,3.0874,3.0913,3.0913,3.0913,3.0952,3.1089,3.1372,3.1465,3.168,3.2031,3.2124,3.2359,3.2652,3.2769,3.2871,3.3008,3.2891,3.2773,3.2851,3.3008,3.3129,3.3109,3.3246,3.3344,3.3285,3.3363,3.3383,3.3386,3.3386,3.3386,3.3386,3.3386,3.3386,3.3386,3.3367,3.3344,3.3367,3.3386,3.3386,3.3386,3.3386,3.3386,3.3386,3.3386,3.3386,3.3386,3.3383,3.3367,3.3328,3.3347,3.3383,3.3383,3.3386,3.3386,3.3114,3.2892,3.2253,3.1176,2.9158,2.7622,2.7213,2.7229,2.9699,3.1488,2.9623,2.8295,2.808,2.8395,2.8977,2.9025,2.9307,2.9402,3.3126,3.3126,3.3126,3.3126,3.3126,3.3126,3.3126,3.3126,3.3126,3.3126,3.3126,3.3072,3.2367,3.2013,3.315,3.3363,3.2982,3.4711,3.5014,3.4498,3.3619,3.2369,3.1043,2.9911,2.8741,2.8381,2.8301,2.8301,2.8301,2.8301,2.8301,2.8301,2.834,2.8301,2.8463,2.8984,2.9629,3.0098,3.0483,3.0757,3.0815,3.0913,3.0913,3.0913,3.0913,3.0913,3.0952,3.1172,3.1333,3.1543,3.1812,3.2148,3.2461,3.2554,3.2769,3.3066,3.3125,3.3226,3.3344,3.3246,3.3168,3.3187,3.3304,3.3386,3.3386,3.3386,3.3386,3.3386,3.3386,3.3386,3.3386,3.3386,3.3386,3.3386,3.3386,3.3386,3.3425,3.3461,3.348,3.3519,3.3445,3.3386,3.3386,3.3386,3.3386,3.3386,3.3386,3.3386,3.3386,3.3386,3.3386,3.3386,3.3386,3.3386,3.3386,3.3386,3.3386,3.3067,3.2718,3.2349,3.1835,3.0884,2.9582,2.912,2.9203,3.1177,3.2334,3.2341,3.1716,3.0666,3.0548,3.0913,3.0787,3.0135,2.9482,3.3126,3.3126,3.3126,3.3126,3.3126,3.3126,3.3126,3.3126,3.3126,3.3126,3.3126,3.304,3.2478,3.2027,3.3055,3.3896,3.3765,3.4814,3.4942,3.4267,3.3057,3.1584,3.0276,2.9171,2.8415,2.8301,2.8301,2.8301,2.8301,2.8301,2.8385,2.8476,2.849,2.8516,2.8711,2.9311,2.9975,3.0391,3.0664,3.0913,3.0913,3.0913,3.0913,3.0952,3.105,3.1133,3.125,3.1484,3.1812,3.2007,3.2242,3.2559,3.2812,3.3027,3.3144,3.3285,3.3386,3.3386,3.3386,3.3386,3.3386,3.3347,3.3347,3.3386,3.3386,3.3386,3.3386,3.3386,3.3386,3.3386,3.3386,3.3386,3.3386,3.3386,3.3386,3.3406,3.3539,3.3597,3.3617,3.3656,3.3539,3.3422,3.3519,3.3539,3.3578,3.3519,3.3402,3.3386,3.3386,3.3386,3.3386,3.3386,3.3386,3.3386,3.3386,3.3425,3.3461,3.3339,3.3082,3.3181,3.2667,3.1891,3.1679,3.1481,3.1868,3.2825,3.3282,3.3544,3.3211,3.2623,3.2375,3.1946,3.0615,2.9751,2.8711,3.3126,3.3126,3.3126,3.3126,3.3126,3.3126,3.3126,3.3126,3.3126,3.3126,3.3126,3.3115,3.3289,3.3479,3.4119,3.4485,3.4881,3.568,3.551,3.4032,3.2868,3.1546,3.0159,2.8953,2.8441,2.8335,2.8341,2.8341,2.8468,2.8419,2.8568,2.8795,2.8912,2.9004,2.901,2.9746,3.0391,3.0815,3.0874,3.0893,3.0913,3.0913,3.0913,3.0972,3.123,3.1352,3.145,3.1929,3.2261,3.2515,3.2691,3.2949,3.3226,3.3285,3.3344,3.3367,3.3386,3.3386,3.3386,3.3386,3.3386,3.3386,3.3386,3.3386,3.3386,3.3386,3.3386,3.3386,3.3386,3.3386,3.3386,3.3425,3.3461,3.3519,3.3539,3.3675,3.3832,3.3906,3.3965,3.3988,3.3695,3.3461,3.3617,3.3714,3.3754,3.3675,3.348,3.3461,3.3558,3.3438,3.3433,3.3754,3.3773,3.3773,3.3793,3.3597,3.3519,3.3461,3.3523,3.3695,3.3773,3.3405,3.3366,3.356,3.3614,3.3761,3.4304,3.487,3.4448,3.3944,3.2952,3.215,3.0708,2.9442,2.8508,3.3126,3.3126,3.3126,3.3126,3.3126,3.3126,3.3126,3.3126,3.3126,3.3126,3.3126,3.3126,3.3047,3.3405,3.4209,3.4812,3.4989,3.5909,3.5439,3.313,3.2469,3.085,2.944,2.8728,2.8708,2.9131,2.8993,2.8807,2.967,2.8986,2.8738,2.8951,2.9478,2.9746,2.9805,3.017,3.043,3.0815,3.0913,3.0913,3.0913,3.0913,3.0913,3.0937,3.1328,3.1548,3.1645,3.2261,3.2672,3.2887,3.3004,3.3226,3.3367,3.3386,3.3386,3.3386,3.3386,3.3386,3.3386,3.3386,3.3386,3.3386,3.3386,3.3386,3.3386,3.3386,3.3386,3.3386,3.3386,3.3386,3.3386,3.373,3.3848,3.3965,3.4062,3.4277,3.4434,3.4394,3.4414,3.4453,3.4277,3.4219,3.4277,3.4316,3.4316,3.4394,3.43,3.4163,3.4203,3.3756,3.3581,3.4138,3.4375,3.4336,3.4238,3.4062,3.4043,3.4066,3.4183,3.4355,3.4414,3.4372,3.4313,3.4154,3.4306,3.4529,3.5031,3.5463,3.5572,3.5126,3.3741,3.1965,3.0192,2.9212,2.8611,3.3126,3.3126,3.3126,3.3126,3.3126,3.3126,3.3126,3.3126,3.3126,3.3126,3.3151,3.3269,3.3469,3.3744,3.438,3.5127,3.5162,3.5846,3.4921,3.2595,3.2293,3.0669,2.9118,2.8341,2.8641,2.9237,2.9032,2.8801,2.931,2.9083,2.9137,2.9517,3.0059,3.0312,3.0444,3.0508,3.0586,3.0874,3.0913,3.0913,3.0913,3.0932,3.0962,3.1211,3.1523,3.1836,3.2094,3.2524,3.2992,3.3086,3.3207,3.3386,3.3386,3.3386,3.3386,3.3386,3.3386,3.3386,3.3386,3.3386,3.3386,3.3386,3.3386,3.3386,3.3386,3.3386,3.3386,3.3386,3.3386,3.3519,3.3636,3.402,3.4176,3.4274,3.4508,3.4707,3.4883,3.4863,3.4805,3.4844,3.4785,3.4824,3.4922,3.4961,3.4961,3.5078,3.5156,3.5,3.4824,3.4379,3.3986,3.4464,3.4884,3.4903,3.476,3.4531,3.4551,3.4668,3.4746,3.4824,3.4785,3.4687,3.4739,3.4826,3.5004,3.5251,3.5653,3.5939,3.569,3.5011,3.3825,3.1896,2.9756,2.9282,2.9218,3.3126,3.3126,3.3126,3.3126,3.3126,3.3126,3.3126,3.3126,3.3126,3.3126,3.3165,3.3671,3.4079,3.471,3.5269,3.5712,3.6104,3.6346,3.4594,3.2982,3.2318,3.0424,2.9098,2.8327,2.8887,2.8747,2.8727,2.9106,2.8707,2.9033,2.9545,3.0078,3.0561,3.0737,3.0796,3.0796,3.0835,3.0893,3.0913,3.0913,3.0913,3.0913,3.1094,3.1421,3.1831,3.2242,3.2598,3.3047,3.3265,3.3328,3.3367,3.3386,3.3386,3.3386,3.3386,3.3386,3.3386,3.3386,3.3386,3.3386,3.3386,3.3386,3.348,3.3441,3.3386,3.3386,3.3386,3.3386,3.3406,3.3711,3.3981,3.4176,3.4372,3.4567,3.4785,3.5019,3.5237,3.5257,3.5195,3.5137,3.5022,3.5098,3.5332,3.543,3.543,3.5547,3.5569,3.5413,3.5237,3.5081,3.4804,3.4887,3.5241,3.5432,3.5294,3.5069,3.5059,3.5179,3.5078,3.5098,3.5059,3.5101,3.5187,3.5349,3.5658,3.5901,3.5986,3.5765,3.5412,3.466,3.4263,3.2665,3.0786,3.0733,3.063,3.3126,3.3126,3.3126,3.3126,3.3126,3.3126,3.3126,3.3126,3.3126,3.328,3.3671,3.3822,3.4438,3.5244,3.5433,3.5882,3.6194,3.6025,3.4508,3.3206,3.2104,3.0437,2.9184,2.8495,2.9395,3.0159,3.0383,3.0223,3.0963,3.0656,3.0019,3.0659,3.0815,3.0893,3.0913,3.0913,3.0913,3.0913,3.0913,3.0913,3.0932,3.0952,3.1191,3.1562,3.2027,3.2437,3.2867,3.3187,3.3347,3.3386,3.3386,3.3386,3.3386,3.3386,3.3386,3.3386,3.3386,3.3386,3.3386,3.3386,3.3422,3.3539,3.3711,3.3652,3.3519,3.3464,3.3484,3.3542,3.3617,3.3887,3.4238,3.4489,3.4743,3.5039,3.5273,3.5471,3.5667,3.5628,3.555,3.553,3.5432,3.5471,3.5723,3.5762,3.5764,3.592,3.594,3.5784,3.5647,3.5471,3.5393,3.546,3.555,3.5717,3.5804,3.5647,3.5647,3.5647,3.551,3.5452,3.555,3.563,3.5677,3.5775,3.5886,3.5942,3.5996,3.5799,3.5688,3.5731,3.5299,3.3587,3.2246,3.2298,3.2053,3.3126,3.3126,3.3126,3.3126,3.3126,3.3126,3.3126,3.3126,3.3126,3.338,3.3897,3.4148,3.4678,3.5444,3.5757,3.6056,3.6321,3.5607,3.4252,3.2745,3.1851,3.0146,2.8953,2.894,2.9911,3.097,3.1632,3.1559,3.2015,3.1209,3.041,3.0835,3.0913,3.0913,3.0913,3.0913,3.0913,3.0913,3.0913,3.0913,3.0952,3.1069,3.1387,3.1758,3.2203,3.2613,3.2969,3.3304,3.3347,3.3386,3.3386,3.3386,3.3386,3.3386,3.3386,3.3386,3.3386,3.3386,3.3406,3.3633,3.3652,3.3789,3.4062,3.4141,3.4101,3.4062,3.4027,3.4027,3.4027,3.4124,3.4492,3.4844,3.5215,3.5586,3.5781,3.5959,3.5999,3.5999,3.5979,3.5979,3.5959,3.594,3.5999,3.6018,3.6018,3.6018,3.6018,3.5959,3.5881,3.5823,3.5784,3.5781,3.5859,3.5949,3.6018,3.6018,3.592,3.5862,3.5842,3.5842,3.6018,3.5982,3.5886,3.5906,3.5999,3.6057,3.6152,3.6269,3.6242,3.6289,3.635,3.5464,3.4532,3.436,3.3904,3.3126,3.3126,3.3126,3.3126,3.3126,3.3126,3.3126,3.3126,3.3201,3.3481,3.4011,3.4539,3.5079,3.5718,3.6093,3.6281,3.6038,3.5223,3.397,3.2306,3.1533,3.0172,2.9579,2.9807,3.103,3.1468,3.2056,3.2882,3.1552,3.0851,3.0566,3.0893,3.0913,3.0913,3.0913,3.0913,3.0913,3.0913,3.0991,3.1055,3.1108,3.1328,3.1738,3.2218,3.2609,3.2965,3.3246,3.3386,3.3386,3.3386,3.3386,3.3386,3.3386,3.3386,3.3386,3.3386,3.3386,3.35,3.3613,3.3844,3.4055,3.4235,3.4528,3.4668,3.4668,3.4473,3.4414,3.4394,3.4394,3.459,3.4922,3.5114,3.5427,3.5703,3.592,3.6018,3.6018,3.6018,3.6018,3.6018,3.6018,3.6018,3.6018,3.6018,3.6018,3.6018,3.6018,3.6018,3.6018,3.6018,3.6018,3.6018,3.6018,3.6018,3.6018,3.6018,3.6018,3.5999,3.6018,3.6018,3.6018,3.6018,3.6001,3.6169,3.6358,3.6287,3.6345,3.6541,3.6736,3.6738,3.6875,3.7148,3.68,3.6134,3.5508,3.3126,3.3126,3.3126,3.3126,3.3126,3.3126,3.3126,3.314,3.3531,3.3997,3.4527,3.5079,3.5618,3.6105,3.6292,3.6405,3.6097,3.4993,3.3661,3.2755,3.1838,3.0979,3.0341,3.1197,3.2431,3.3776,3.4405,3.4061,3.2939,3.1725,3.0757,3.0893,3.0913,3.0913,3.0913,3.0913,3.0913,3.0913,3.1172,3.1309,3.1406,3.1523,3.1816,3.2398,3.2851,3.3047,3.3285,3.3386,3.3386,3.3386,3.3386,3.3386,3.3386,3.3386,3.3386,3.3386,3.3425,3.3613,3.3864,3.4114,3.4349,3.4645,3.4902,3.5117,3.5117,3.488,3.4762,3.4746,3.4844,3.5098,3.531,3.5427,3.5564,3.5801,3.6018,3.6018,3.6018,3.6018,3.6018,3.6018,3.6018,3.6018,3.6018,3.6018,3.6018,3.6018,3.6018,3.6018,3.6018,3.6018,3.6018,3.6018,3.6018,3.6018,3.6018,3.6018,3.6018,3.6018,3.6018,3.6018,3.6018,3.6008,3.6052,3.6514,3.6757,3.6796,3.6862,3.7012,3.7148,3.7187,3.7324,3.7559,3.7358,3.6763,3.6414,3.3126,3.3126,3.3126,3.3126,3.3126,3.3126,3.323,3.3542,3.4011,3.4564,3.5043,3.5394,3.5844,3.6343,3.6393,3.6405,3.6156,3.4981,3.4166,3.3378,3.2532,3.1889,3.1974,3.2602,3.3664,3.4953,3.4827,3.4354,3.3744,3.2131,3.0893,3.0913,3.0913,3.0913,3.0913,3.0913,3.0913,3.0932,3.1313,3.1587,3.1777,3.2012,3.2226,3.2754,3.2988,3.3168,3.3265,3.3386,3.3386,3.3386,3.3386,3.3386,3.3386,3.3386,3.3386,3.348,3.3597,3.3809,3.4118,3.4446,3.4704,3.5039,3.5374,3.5608,3.5647,3.5449,3.543,3.5413,3.5413,3.5644,3.5647,3.5762,3.5801,3.594,3.5999,3.6018,3.6018,3.6018,3.6018,3.6018,3.6018,3.6018,3.6018,3.6018,3.6018,3.6018,3.6018,3.6018,3.6018,3.6018,3.6018,3.6018,3.6018,3.6018,3.6018,3.6018,3.6018,3.6018,3.6018,3.6018,3.604,3.602,3.6141,3.6697,3.718,3.7479,3.7566,3.7569,3.7559,3.758,3.7754,3.7967,3.7671,3.7377,3.7051,3.3126,3.3126,3.3126,3.3126,3.3126,3.3126,3.3391,3.3922,3.4463,3.4968,3.5433,3.557,3.5944,3.6256,3.6405,3.6405,3.6002,3.4933,3.4386,3.3982,3.318,3.2855,3.3263,3.4075,3.5204,3.5421,3.5143,3.4472,3.3759,3.1998,3.0913,3.0913,3.0913,3.0913,3.0913,3.0913,3.0913,3.1035,3.1367,3.1812,3.2183,3.2593,3.2754,3.2969,3.3168,3.3367,3.3386,3.3386,3.3386,3.3386,3.3386,3.3386,3.3386,3.3386,3.3519,3.3613,3.3844,3.4098,3.4446,3.4938,3.5231,3.5527,3.5859,3.5979,3.5959,3.5959,3.594,3.594,3.594,3.594,3.5959,3.5959,3.5979,3.5999,3.5999,3.6018,3.6018,3.6018,3.6018,3.6018,3.6018,3.6018,3.6018,3.6018,3.6018,3.6018,3.6018,3.6018,3.6018,3.6018,3.6018,3.6018,3.6018,3.6018,3.6018,3.6018,3.6018,3.6018,3.6018,3.6038,3.6045,3.6049,3.6338,3.699,3.7457,3.7873,3.7982,3.7925,3.7949,3.7951,3.8105,3.8242,3.8117,3.7843,3.7595,3.3126,3.3126,3.3126,3.3126,3.3126,3.3126,3.3406,3.3922,3.4477,3.5004,3.5556,3.6043,3.6343,3.6405,3.6405,3.6381,3.6204,3.5126,3.4581,3.4214,3.4166,3.4068,3.4514,3.5709,3.7097,3.6766,3.5819,3.5041,3.3473,3.1767,3.0913,3.0913,3.0913,3.0913,3.0913,3.0913,3.0952,3.1133,3.1601,3.212,3.2261,3.2613,3.2969,3.3168,3.3347,3.3386,3.3386,3.3386,3.3386,3.3386,3.3386,3.3386,3.3386,3.3406,3.3574,3.3828,3.4079,3.4505,3.488,3.527,3.5547,3.5801,3.5999,3.5999,3.5999,3.5999,3.5979,3.5979,3.5979,3.5979,3.5999,3.5999,3.5999,3.5999,3.6018,3.6018,3.6018,3.6018,3.6018,3.6018,3.6018,3.6038,3.6094,3.6077,3.6077,3.6077,3.6038,3.6057,3.6116,3.6077,3.6038,3.6038,3.6021,3.6018,3.6018,3.6018,3.6018,3.6018,3.6077,3.6194,3.6225,3.6116,3.6495,3.7248,3.7873,3.8348,3.8364,3.8221,3.8319,3.8358,3.8436,3.8497,3.8428,3.8299,3.8062]}]]